[[{"header":{"parameterUnit":"m.s-1","parameterCategory":1,"la1":30.6,"la2":28.766,"lo1":-90.7593,"lo2":-88.6598,"dy":0.0162,"dx":0.0183,"nx":116,"ny":114,"refTime":"2024-03-18T06:00:00:Z","depth":0,"parameterNumber":2,"parameterNumberName":"U-component_of_WINDS"},"data":[0.0,0.0,0.0,0.0,0.0,0.0,0.0,0.0,0.0,0.0,0.0,0.0,0.0,0.0,0.0,0.0,0.0,0.0,0.0,0.0,0.0,0.0,0.0,0.0,0.0,0.0,0.0,0.0,0.0,0.0,0.0,0.0,0.0,0.0,0.0,0.0,0.0,0.0,0.0,0.0,0.0,0.0,0.0,0.0,0.0,0.0,0.0,0.0,0.0,0.0,0.0,0.0,0.0,0.0,0.0,0.0,0.0,0.0,0.0,0.0,0.0,0.0,0.0,0.0,0.0,0.0,0.0,0.0,0.0,0.0,0.0,0.0,0.0,0.0,0.0,0.0,0.0,0.0,0.0,0.0,0.0,0.0,0.0,0.0,0.0,0.0,0.0,0.0,0.0,0.0,0.0,0.0,0.0,0.0,0.0,0.0,0.0,0.0,0.0,0.0,0.0,0.0,0.0,0.0,0.0,0.0,0.0,0.0,0.0,0.0,0.0,0.0,0.0,0.0,0.0,0.0,0.0,0.0,0.0,0.0,0.0,0.0,0.0,0.0,0.0,0.0,0.0,0.0,0.0,0.0,0.0,0.0,0.0,0.0,0.0,0.0,0.0,0.0,0.0,0.0,0.0,0.0,0.0,0.0,0.0,0.0,0.0,0.0,0.0,0.0,0.0,0.0,0.0,0.0,0.0,0.0,0.0,0.0,0.0,0.0,0.0,0.0,0.0,0.0,0.0,0.0,0.0,0.0,0.0,0.0,0.0,0.0,0.0,0.0,0.0,0.0,0.0,0.0,0.0,0.0,0.0,0.0,0.0,0.0,0.0,0.0,0.0,0.0,0.0,0.0,0.0,0.0,0.0,0.0,0.0,0.0,0.0,0.0,0.0,0.0,0.0,0.0,0.0,0.0,0.0,0.0,0.0,0.0,0.0,0.0,0.0,0.0,0.0,0.0,0.0,0.0,0.0,0.0,0.0,0.0,0.0,0.0,0.0,0.0,0.0,0.0,0.0,0.0,0.0,0.0,0.0,0.0,0.0,0.0,0.0,0.0,0.0,0.0,0.0,0.0,0.0,0.0,0.0,0.0,0.0,0.0,0.0,0.0,0.0,0.0,0.0,0.0,0.0,0.0,0.0,0.0,0.0,0.0,0.0,0.0,0.0,0.0,0.0,0.0,0.0,0.0,0.0,0.0,0.0,0.0,0.0,0.0,0.0,0.0,0.0,0.0,0.0,0.0,0.0,0.0,0.0,0.0,0.0,0.0,0.0,0.0,0.0,0.0,0.0,0.0,0.0,0.0,0.0,0.0,0.0,0.0,0.0,0.0,0.0,0.0,0.0,0.0,0.0,0.0,0.0,0.0,0.0,0.0,0.0,0.0,0.0,0.0,0.0,0.0,0.0,0.0,0.0,0.0,0.0,0.0,0.0,0.0,0.0,0.0,0.0,0.0,0.0,0.0,0.0,0.0,0.0,0.0,0.0,0.0,0.0,0.0,0.0,0.0,0.0,0.0,0.0,0.0,0.0,0.0,0.0,0.0,0.0,0.0,0.0,0.0,0.0,0.0,0.0,0.0,0.0,0.0,0.0,0.0,0.0,0.0,0.0,0.0,0.0,0.0,0.0,0.0,0.0,0.0,0.0,0.0,0.0,0.0,0.0,0.0,0.0,0.0,0.0,0.0,0.0,0.0,0.0,0.0,0.0,0.0,0.0,0.0,0.0,0.0,0.0,0.0,0.0,0.0,0.0,0.0,0.0,0.0,0.0,0.0,0.0,0.0,0.0,0.0,0.0,0.0,0.0,0.0,0.0,0.0,0.0,0.0,0.0,0.0,0.0,0.0,0.0,0.0,0.0,0.0,0.0,0.0,0.0,0.0,0.0,0.0,0.0,0.0,0.0,0.0,0.0,0.0,0.0,0.0,0.0,0.0,0.0,0.0,0.0,0.0,0.0,0.0,0.0,0.0,0.0,0.0,0.0,0.0,0.0,0.0,0.0,0.0,0.0,0.0,0.0,0.0,0.0,0.0,0.0,0.0,0.0,0.0,0.0,0.0,0.0,0.0,0.0,0.0,0.0,0.0,0.0,0.0,0.0,0.0,0.0,0.0,0.0,0.0,0.0,0.0,0.0,0.0,0.0,0.0,0.0,0.0,0.0,0.0,0.0,0.0,0.0,0.0,0.0,0.0,0.0,0.0,0.0,0.0,0.0,0.0,0.0,0.0,0.0,0.0,0.0,0.0,0.0,0.0,0.0,0.0,0.0,0.0,0.0,0.0,0.0,0.0,0.0,0.0,0.0,0.0,0.0,0.0,0.0,0.0,0.0,0.0,0.0,0.0,0.0,0.0,0.0,0.0,0.0,0.0,0.0,0.0,0.0,0.0,0.0,0.0,0.0,0.0,0.0,0.0,0.0,0.0,0.0,0.0,0.0,0.0,0.0,0.0,0.0,0.0,0.0,0.0,0.0,0.0,0.0,0.0,0.0,0.0,0.0,0.0,0.0,0.0,0.0,0.0,0.0,0.0,0.0,0.0,0.0,0.0,0.0,0.0,0.0,0.0,0.0,0.0,0.0,0.0,0.0,0.0,0.0,0.0,0.0,0.0,0.0,0.0,0.0,0.0,0.0,0.0,0.0,0.0,0.0,0.0,0.0,0.0,0.0,0.0,0.0,0.0,0.0,0.0,0.0,0.0,0.0,0.0,0.0,0.0,0.0,0.0,0.0,0.0,0.0,0.0,0.0,0.0,0.0,0.0,0.0,0.0,0.0,0.0,0.0,0.0,0.0,0.0,0.0,0.0,0.0,0.0,0.0,0.0,0.0,0.0,0.0,0.0,0.0,0.0,0.0,0.0,0.0,0.0,0.0,0.0,0.0,0.0,0.0,0.0,0.0,0.0,0.0,0.0,0.0,0.0,0.0,0.0,0.0,0.0,0.0,0.0,0.0,0.0,0.0,0.0,0.0,0.0,0.0,0.0,0.0,0.0,0.0,0.0,0.0,0.0,0.0,0.0,0.0,0.0,0.0,0.0,0.0,0.0,0.0,0.0,0.0,0.0,0.0,0.0,0.0,0.0,0.0,0.0,0.0,0.0,0.0,0.0,0.0,0.0,0.0,0.0,0.0,0.0,0.0,0.0,0.0,0.0,0.0,0.0,0.0,0.0,0.0,0.0,0.0,0.0,0.0,0.0,0.0,0.0,0.0,0.0,0.0,0.0,0.0,0.0,0.0,0.0,0.0,0.0,0.0,0.0,0.0,0.0,0.0,0.0,0.0,0.0,0.0,0.0,0.0,0.0,0.0,0.0,0.0,0.0,0.0,0.0,0.0,0.0,0.0,0.0,0.0,0.0,0.0,0.0,0.0,0.0,0.0,0.0,0.0,0.0,0.0,0.0,0.0,0.0,0.0,0.0,0.0,0.0,0.0,0.0,0.0,0.0,0.0,0.0,0.0,0.0,0.0,0.0,0.0,0.0,0.0,0.0,0.0,0.0,0.0,0.0,0.0,0.0,0.0,0.0,0.0,0.0,0.0,0.0,0.0,0.0,0.0,0.0,0.0,0.0,0.0,0.0,0.0,0.0,0.0,0.0,0.0,0.0,0.0,0.0,0.0,0.0,0.0,0.0,0.0,0.0,0.0,0.0,0.0,0.0,0.0,0.0,0.0,0.0,0.0,0.0,0.0,0.0,0.0,0.0,0.0,0.0,0.0,0.0,0.0,0.0,0.0,0.0,0.0,0.0,0.0,0.0,0.0,0.0,0.0,0.0,0.0,0.0,0.0,0.0,0.0,0.0,0.0,0.0,0.0,0.0,0.0,0.0,0.0,0.0,0.0,0.0,0.0,0.0,0.0,0.0,0.0,0.0,0.0,0.0,0.0,0.0,0.0,0.0,0.0,0.0,0.0,0.0,0.0,0.0,0.0,0.0,0.0,0.0,0.0,0.0,0.0,0.0,0.0,0.0,0.0,0.0,0.0,0.0,0.0,0.0,0.0,0.0,0.0,0.0,0.0,0.0,0.0,0.0,0.0,0.0,0.0,0.0,0.0,0.0,0.0,0.0,0.0,0.0,0.0,0.0,0.0,0.0,0.0,0.0,0.0,0.0,0.0,0.0,0.0,0.0,0.0,0.0,0.0,0.0,0.0,0.0,0.0,0.0,0.0,0.0,0.0,0.0,0.0,0.0,0.0,0.0,0.0,0.0,0.0,0.0,0.0,0.0,0.0,0.0,0.0,0.0,0.0,0.0,0.0,0.0,0.0,0.0,0.0,0.0,0.0,0.0,0.0,0.0,0.0,0.0,0.0,0.0,0.0,0.0,0.0,0.0,0.0,0.0,0.0,0.0,0.0,0.0,0.0,0.0,0.0,0.0,0.0,0.0,0.0,0.0,0.0,0.0,0.0,0.0,0.0,0.0,0.0,0.0,0.0,0.0,0.0,0.0,0.0,0.0,0.0,0.0,0.0,0.0,0.0,0.0,0.0,0.0,0.0,0.0,0.0,0.0,0.0,0.0,0.0,0.0,0.0,0.0,0.0,0.0,0.0,0.0,0.0,0.0,0.0,0.0,0.0,0.0,0.0,0.0,0.0,0.0,0.0,0.0,0.0,0.0,0.0,0.0,0.0,0.0,0.0,0.0,0.0,0.0,0.0,0.0,0.0,0.0,0.0,0.0,0.0,0.0,0.0,0.0,0.0,0.0,0.0,0.0,0.0,0.0,0.0,0.0,0.0,0.0,0.0,0.0,0.0,0.0,0.0,0.0,0.0,0.0,0.0,0.0,0.0,0.0,0.0,0.0,0.0,0.0,0.0,0.0,0.0,0.0,0.0,0.0,0.0,0.0,0.0,0.0,0.0,0.0,0.0,0.0,0.0,0.0,0.0,0.0,0.0,0.0,0.0,0.0,0.0,0.0,0.0,0.0,0.0,0.0,0.0,0.0,0.0,0.0,0.0,0.0,0.0,0.0,0.0,0.0,0.0,0.0,0.0,0.0,0.0,0.0,0.0,0.0,0.0,0.0,0.0,0.0,0.0,0.0,0.0,0.0,0.0,0.0,0.0,0.0,0.0,0.0,0.0,0.0,0.0,0.0,0.0,0.0,0.0,0.0,0.0,0.0,0.0,0.0,0.0,0.0,0.0,0.0,0.0,0.0,0.0,0.0,0.0,0.0,0.0,0.0,0.0,0.0,0.0,0.0,0.0,0.0,0.0,0.0,0.0,0.0,0.0,0.0,0.0,0.0,0.0,0.0,0.0,0.0,0.0,0.0,0.0,0.0,0.0,0.0,0.0,0.0,0.0,0.0,0.0,0.0,0.0,0.0,0.0,0.0,0.0,0.0,0.0,0.0,0.0,0.0,0.0,0.0,0.0,0.0,0.0,0.0,0.0,0.0,0.0,0.0,0.0,0.0,0.0,0.0,0.0,0.0,0.0,0.0,0.0,0.0,0.0,0.0,0.0,0.0,0.0,0.0,0.0,0.0,0.0,0.0,0.0,0.0,0.0,0.0,0.0,0.0,0.0,0.0,0.0,0.0,0.0,0.0,0.0,0.0,0.0,0.0,0.0,0.0,0.0,0.0,0.0,0.0,0.0,0.0,0.0,0.0,0.0,0.0,0.0,0.0,0.0,0.0,0.0,0.0,0.0,0.0,0.0,0.0,0.0,0.0,0.0,0.0,0.0,0.0,0.0,0.0,0.0,0.0,0.0,0.0,0.0,0.0,0.0,0.0,0.0,0.0,0.0,0.0,0.0,0.0,0.0,0.0,0.0,0.0,0.0,0.0,0.0,0.0,0.0,0.0,0.0,0.0,0.0,0.0,0.0,0.0,0.0,0.0,0.0,0.0,0.0,0.0,0.0,0.0,0.0,0.0,0.0,0.0,0.0,0.0,0.0,0.0,0.0,0.0,0.0,0.0,0.0,0.0,0.0,0.0,0.0,0.0,0.0,0.0,0.0,0.0,0.0,0.0,0.0,0.0,0.0,0.0,0.0,0.0,0.0,0.0,0.0,0.0,0.0,0.0,0.0,0.0,0.0,0.0,0.0,0.0,0.0,0.0,0.0,0.0,0.0,0.0,0.0,0.0,0.0,0.0,0.0,0.0,0.0,0.0,0.0,0.0,0.0,0.0,4.0981,0.0,0.0,0.0,0.0,0.0,0.0,0.0,0.0,0.0,0.0,0.0,0.0,0.0,0.0,0.0,0.0,0.0,0.0,0.0,0.0,0.0,0.0,0.0,0.0,0.0,0.0,0.0,3.6239,3.6191,3.6589,3.705,3.7318,3.7308,3.8528,3.9146,3.9126,3.913,3.952,4.0369,4.0742,4.2208,4.455,4.5035,4.5048,4.4754,0.0,0.0,0.0,0.0,0.0,0.0,0.0,0.0,0.0,0.0,0.0,0.0,0.0,0.0,0.0,0.0,0.0,0.0,0.0,0.0,0.0,0.0,0.0,0.0,0.0,0.0,0.0,0.0,0.0,0.0,0.0,0.0,0.0,0.0,0.0,0.0,0.0,0.0,0.0,0.0,0.0,0.0,0.0,0.0,0.0,0.0,0.0,0.0,0.0,0.0,0.0,0.0,0.0,0.0,0.0,0.0,0.0,0.0,0.0,0.0,0.0,0.0,0.0,0.0,0.0,0.0,0.0,0.0,0.0,0.0,0.0,4.4686,0.0,0.0,0.0,0.0,0.0,0.0,0.0,0.0,0.0,0.0,0.0,0.0,0.0,0.0,0.0,0.0,0.0,0.0,0.0,0.0,0.0,0.0,0.0,3.6152,3.663,3.7617,3.7065,3.7022,3.789,3.7958,3.7906,3.7741,3.9227,4.004,4.0018,4.0174,4.1007,4.2588,4.3634,4.6201,5.0233,5.1377,5.1261,5.0025,4.7805,0.0,0.0,0.0,0.0,0.0,0.0,0.0,0.0,0.0,0.0,0.0,0.0,0.0,0.0,0.0,0.0,0.0,0.0,0.0,0.0,0.0,0.0,0.0,0.0,0.0,0.0,0.0,0.0,0.0,0.0,0.0,0.0,0.0,0.0,0.0,0.0,0.0,0.0,0.0,0.0,0.0,0.0,0.0,0.0,0.0,0.0,0.0,0.0,0.0,0.0,0.0,0.0,0.0,0.0,0.0,0.0,0.0,0.0,0.0,0.0,0.0,0.0,0.0,0.0,5.6571,5.7661,5.8665,5.9591,6.0106,5.4735,5.1128,4.8894,0.0,0.0,0.0,0.0,0.0,0.0,0.0,0.0,0.0,0.0,0.0,0.0,0.0,0.0,0.0,0.0,0.0,0.0,0.0,0.0,0.0,0.0,3.6671,3.7734,3.9242,3.9334,3.9647,4.0452,4.0585,4.0257,3.9507,4.0426,4.0911,4.0922,4.168,4.2477,4.3354,4.9058,5.3649,5.7157,5.9474,6.0864,6.1021,5.2884,4.9205,4.9089,0.0,0.0,0.0,0.0,0.0,0.0,0.0,0.0,0.0,0.0,0.0,0.0,0.0,0.0,0.0,0.0,0.0,0.0,0.0,0.0,0.0,0.0,0.0,0.0,0.0,0.0,0.0,0.0,0.0,0.0,0.0,0.0,0.0,0.0,0.0,0.0,0.0,0.0,0.0,0.0,0.0,4.2549,4.2791,0.0,0.0,0.0,0.0,0.0,0.0,0.0,0.0,0.0,0.0,0.0,0.0,0.0,0.0,5.3429,5.6543,5.7892,5.752,5.9964,6.0465,5.9249,6.0866,6.205,6.2836,6.2772,0.0,5.6498,5.127,0.0,0.0,0.0,0.0,0.0,0.0,0.0,0.0,0.0,0.0,0.0,0.0,0.0,0.0,0.0,0.0,0.0,0.0,0.0,0.0,0.0,3.917,4.1466,4.3095,4.6268,4.754,4.6045,4.5963,4.4562,4.1326,4.1155,4.0851,4.037,4.2119,4.5458,5.0451,5.5731,6.0003,6.3322,6.4932,6.5895,6.6088,6.2039,5.7615,5.3171,5.1346,0.0,0.0,0.0,0.0,0.0,0.0,0.0,0.0,0.0,0.0,0.0,0.0,0.0,0.0,0.0,0.0,0.0,0.0,0.0,0.0,0.0,0.0,0.0,0.0,0.0,0.0,0.0,0.0,0.0,0.0,0.0,0.0,0.0,0.0,0.0,0.0,0.0,0.0,0.0,4.2656,4.5299,4.421,4.5797,4.6124,0.0,0.0,0.0,0.0,0.0,0.0,0.0,0.0,0.0,5.2524,5.5851,5.8325,5.9841,6.2259,6.3641,6.4012,6.559,6.6205,6.5961,6.7218,6.8256,6.9085,7.0064,6.8853,6.5539,5.7829,5.3974,5.2415,0.0,0.0,0.0,0.0,0.0,4.4883,0.0,0.0,0.0,0.0,0.0,0.0,0.0,0.0,0.0,0.0,0.0,0.0,3.8938,4.3104,4.6747,4.9284,5.3118,5.444,5.2188,5.084,4.8092,4.3466,4.2499,4.1654,4.0805,4.4452,5.0032,5.7505,6.1959,6.582,6.9052,6.9937,7.0475,7.0667,7.0437,6.5972,5.8394,5.5839,5.2569,4.8871,0.0,0.0,0.0,0.0,0.0,0.0,0.0,0.0,0.0,0.0,0.0,0.0,0.0,0.0,0.0,0.0,0.0,0.0,0.0,0.0,0.0,0.0,0.0,0.0,0.0,0.0,0.0,0.0,0.0,0.0,0.0,0.0,0.0,0.0,0.0,0.0,0.0,4.5268,4.7858,4.5784,4.8493,4.9412,0.0,0.0,0.0,0.0,0.0,0.0,5.1403,5.5784,5.871,5.9865,6.2974,6.5167,6.6326,6.7812,6.9135,7.036,7.0975,7.1734,7.2531,7.3212,7.3998,7.4822,7.5362,7.456,7.2246,6.3822,5.8703,5.5787,5.2193,5.0608,5.0304,5.0226,5.0504,5.1148,0.0,0.0,0.0,0.0,0.0,0.0,0.0,0.0,0.0,0.0,0.0,3.9764,4.3895,4.8766,5.3726,5.8579,5.7893,5.7443,5.8131,5.3685,4.9496,4.6075,4.5152,4.4321,4.3539,5.053,5.6747,6.1889,6.6884,7.1052,7.4361,7.5207,7.6053,7.6823,7.5976,7.1849,6.5356,6.2721,5.8839,5.4202,5.1602,0.0,0.0,0.0,0.0,0.0,0.0,0.0,0.0,0.0,0.0,0.0,0.0,0.0,0.0,0.0,0.0,0.0,0.0,0.0,0.0,0.0,0.0,0.0,0.0,0.0,0.0,0.0,0.0,0.0,0.0,0.0,0.0,0.0,0.0,0.0,0.0,0.0,0.0,4.8594,5.2585,0.0,0.0,0.0,0.0,5.2097,5.4356,5.6861,5.9654,6.2235,6.4419,6.6068,6.8529,7.0913,7.3168,7.3937,7.4725,7.561,7.5649,7.6139,7.6976,7.7015,7.7487,7.8219,7.7497,7.6293,7.435,6.8222,6.4744,6.2871,5.8623,5.7585,5.8398,5.7577,5.7177,5.6951,0.0,0.0,0.0,0.0,0.0,0.0,0.0,0.0,3.3359,3.4531,3.8759,4.307,4.6733,5.4984,6.1853,6.587,6.9123,6.9924,6.7556,6.175,5.638,5.1904,4.7913,4.7382,5.0767,5.5524,6.1447,6.8652,7.2601,7.6053,7.8823,7.9131,7.9438,7.9746,7.94,7.7015,7.2927,6.7577,6.3068,5.9051,5.3795,4.9871,0.0,0.0,0.0,0.0,0.0,0.0,0.0,0.0,0.0,0.0,0.0,0.0,0.0,0.0,0.0,0.0,0.0,0.0,0.0,0.0,0.0,0.0,0.0,0.0,0.0,0.0,0.0,0.0,0.0,0.0,0.0,0.0,0.0,0.0,0.0,0.0,0.0,5.4932,5.8471,0.0,0.0,5.5203,5.5628,5.7992,5.9474,6.1832,6.5487,6.8034,7.0464,7.277,7.4239,7.562,7.6955,7.7216,7.7438,7.7622,7.7583,7.7766,7.8103,7.8643,7.9075,7.9361,7.9631,7.8784,7.7044,7.4414,7.0462,6.5804,6.2561,6.1266,6.1214,6.1541,6.1509,6.1404,0.0,0.0,0.0,0.0,0.0,0.0,0.0,0.0,3.4531,3.6548,4.2153,4.7932,5.3022,6.275,7.0439,7.414,7.7189,7.716,7.3008,6.5972,5.9731,5.4655,5.0831,5.1045,5.5908,6.0708,6.6699,7.3899,7.7053,7.9746,8.1939,8.1631,8.1516,8.1477,8.1208,8.0015,7.7823,7.2706,6.7924,6.3253,5.7429,5.3768,5.1319,0.0,0.0,0.0,0.0,0.0,0.0,0.0,0.0,0.0,0.0,0.0,0.0,0.0,0.0,0.0,0.0,0.0,0.0,0.0,0.0,0.0,0.0,0.0,0.0,0.0,0.0,0.0,0.0,0.0,0.0,0.0,0.0,0.0,0.0,0.0,5.9381,6.0056,6.3422,6.4817,6.2497,6.1312,6.1578,6.361,6.5316,6.7741,7.1094,7.3082,7.5204,7.7527,7.8139,7.8784,7.9592,7.96,7.9523,7.9392,7.9392,7.9392,7.9422,7.9961,8.0238,8.0254,8.0523,7.9823,7.8421,7.7314,7.3947,6.9244,6.7267,6.5693,6.4624,6.5596,6.5646,6.5295,0.0,0.0,0.0,0.0,0.0,0.0,0.0,3.4687,3.6169,4.033,4.6823,5.427,6.2738,7.1941,7.9208,8.3439,8.1439,7.816,7.3986,6.5796,5.8855,5.393,5.3776,5.5361,5.8702,6.6167,7.2476,7.74,7.9939,8.2016,8.3555,8.2747,8.2324,8.2324,8.1516,8.0708,7.9785,7.813,7.3553,6.709,6.2814,5.9086,5.5709,0.0,0.0,0.0,0.0,0.0,0.0,0.0,0.0,0.0,0.0,0.0,0.0,0.0,0.0,0.0,0.0,0.0,0.0,0.0,0.0,0.0,0.0,0.0,0.0,0.0,0.0,0.0,0.0,0.0,0.0,0.0,0.0,0.0,5.142,5.7852,6.2935,6.377,6.746,6.8706,6.5449,6.6692,6.8064,6.8973,7.2025,7.4657,7.6494,7.7284,7.843,8.0061,8.0138,8.0446,8.1093,8.1093,8.1093,8.1093,8.1093,8.1093,8.1093,8.1093,8.1093,8.1054,8.0215,7.9331,7.8361,7.6746,7.5062,7.3457,7.2668,7.0975,6.9075,6.9871,6.954,6.8629,0.0,0.0,0.0,0.0,0.0,0.0,0.0,3.39,3.5976,3.9507,4.8515,5.7821,6.6189,7.6532,8.4247,8.7863,8.4747,8.083,7.6701,6.6273,5.828,5.3885,5.5327,5.9545,6.6564,7.1074,7.5562,8.0054,8.1977,8.3131,8.3593,8.3362,8.3247,8.3208,8.3016,8.2439,8.1554,8.0516,7.8246,7.4784,6.8078,6.3075,5.9166,0.0,0.0,0.0,0.0,0.0,0.0,0.0,0.0,0.0,0.0,0.0,0.0,0.0,0.0,0.0,0.0,0.0,0.0,0.0,0.0,0.0,0.0,0.0,0.0,0.0,0.0,0.0,0.0,0.0,0.0,0.0,0.0,5.772,5.7362,6.3338,6.8745,7.1294,7.3745,7.4591,7.3091,7.336,7.3745,7.3995,7.5447,7.7062,7.8792,7.9092,7.9708,8.0785,8.0823,8.09,8.1093,8.1093,8.1093,8.1093,8.1093,8.1093,8.1093,8.1093,8.1093,8.1093,8.0862,7.99,7.8438,7.8006,7.6438,7.4226,7.2811,7.1486,7.0326,6.9959,6.964,6.9398,0.0,0.0,0.0,0.0,0.0,0.0,0.0,3.4597,3.7069,4.2088,5.1722,6.1562,7.0643,8.0805,8.7786,8.9748,8.5742,8.0585,7.4707,6.4616,5.7885,5.5772,5.9727,6.5086,7.1747,7.5524,7.9285,8.3208,8.4555,8.5363,8.5709,8.5363,8.517,8.517,8.4824,8.4362,8.3824,8.3016,8.1708,7.9631,7.4476,6.9926,6.5749,6.1504,5.9012,5.7464,5.4542,5.4602,5.5323,5.0218,0.0,0.0,0.0,0.0,0.0,0.0,0.0,0.0,0.0,0.0,0.0,0.0,0.0,0.0,0.0,0.0,0.0,0.0,0.0,0.0,0.0,0.0,0.0,0.0,5.7969,6.3154,6.5191,6.9206,7.3031,7.5938,7.7515,7.813,7.763,7.7592,7.7592,7.7592,7.84,7.9323,8.0285,8.0323,8.0592,8.1093,8.1093,8.1093,8.1093,8.1093,8.1093,8.1093,8.1093,8.1093,8.1093,8.1093,8.1093,0.0,8.1093,8.0323,7.9015,7.8631,7.7207,0.0,0.0,0.0,0.0,0.0,7.0179,7.0179,0.0,0.0,0.0,0.0,0.0,0.0,0.0,3.5847,3.8543,4.6123,5.518,6.4754,7.4735,8.4016,8.9594,8.9863,8.4703,7.7775,6.9176,6.1737,5.816,5.9341,6.5743,7.1209,7.5322,7.9515,8.317,8.6247,8.7132,8.7979,8.8825,8.8055,8.7671,8.7632,8.6863,8.644,8.6209,8.5478,8.417,8.2477,8.0977,7.766,7.3212,6.9258,6.7663,6.7123,6.3808,6.1902,6.0162,5.5078,0.0,0.0,0.0,0.0,0.0,0.0,0.0,0.0,0.0,0.0,0.0,0.0,0.0,0.0,0.0,0.0,0.0,0.0,0.0,0.0,0.0,0.0,0.0,0.0,6.2975,6.8531,7.337,7.5118,7.6625,7.8707,7.9708,8.0169,8.0092,8.0169,8.0131,7.9939,8.0823,8.1323,8.1246,0.0,0.0,0.0,0.0,8.117,8.1093,8.1093,8.1093,8.1093,8.1093,8.1093,8.1093,8.1093,8.1093,8.1093,8.1093,8.0592,7.9746,7.8985,7.76,7.5899,7.4945,7.3674,7.2234,7.1503,7.1168,0.0,0.0,0.0,0.0,0.0,0.0,0.0,0.0,3.494,3.789,4.6021,5.4671,6.3863,7.385,8.2054,8.7671,8.971,8.0965,7.1161,6.1445,5.9815,6.1142,6.5385,7.0671,7.5524,7.9785,8.3324,8.5786,8.7132,8.8017,8.8863,8.9671,8.9517,8.944,8.9402,8.9248,8.8402,8.7132,8.6978,8.594,8.4362,8.4055,8.0138,7.4235,7.2073,7.0398,6.8886,6.6162,6.6718,6.7957,6.2858,6.0964,6.0173,5.6522,5.2643,0.0,0.0,0.0,0.0,0.0,0.0,0.0,0.0,0.0,0.0,0.0,0.0,0.0,0.0,0.0,0.0,0.0,0.0,0.0,6.1603,6.7782,7.335,7.7015,8.0085,8.1855,8.1593,8.2324,8.2593,8.19,8.2439,8.2285,8.0939,8.2247,8.2785,8.2124,8.274,0.0,8.2086,8.2086,8.1778,8.1093,8.1093,8.1093,8.1093,0.0,0.0,8.1093,8.1093,8.1093,8.1093,8.1093,8.0592,7.9785,7.9631,7.8169,7.5861,7.434,7.352,7.3251,7.307,7.2993,7.2877,0.0,0.0,0.0,0.0,0.0,0.0,0.0,3.5335,3.7577,4.384,5.1288,5.89,6.6428,7.2919,7.7098,7.7961,7.0734,6.4132,5.9485,6.1489,6.5649,7.2032,7.5918,7.99,8.417,8.6709,8.844,8.9286,9.0594,9.1402,9.1787,9.1787,9.1787,9.1787,9.1787,9.1325,9.0479,8.9671,8.8556,8.7325,8.6478,8.3599,7.9569,7.7455,7.587,7.4437,7.188,7.1478,7.153,6.7282,6.5359,6.4089,6.0635,5.7555,5.4477,0.0,0.0,0.0,0.0,0.0,0.0,0.0,0.0,0.0,0.0,0.0,0.0,0.0,0.0,5.0724,5.4164,0.0,6.3474,6.7282,7.2465,7.689,7.9438,8.2394,8.3933,8.3048,8.3324,8.3247,8.2362,8.2324,8.217,8.1739,8.2477,8.2939,8.2971,8.3362,8.3208,8.2317,8.2285,8.19,8.1093,8.1093,8.1093,8.1093,8.1093,8.1093,8.1093,8.1093,8.1093,8.1093,8.1093,8.0862,8.04,7.9977,7.8562,7.657,7.5736,7.462,7.3514,7.3514,7.3514,7.3437,0.0,0.0,0.0,0.0,0.0,0.0,0.0,3.5852,3.7304,4.1634,4.7684,5.3386,5.8064,6.2974,6.5199,6.3418,6.0997,5.9688,6.0008,6.484,7.094,7.8207,8.1131,8.4324,8.8055,8.9633,9.0825,9.171,9.3018,9.3787,9.3941,9.3941,9.3941,9.3941,9.3941,9.3864,9.3595,9.2249,9.121,9.0287,8.8748,8.7017,8.5132,8.2939,8.1323,7.9939,7.7385,7.511,7.286,7.0283,6.7948,6.5731,6.3309,6.1709,5.9773,5.478,5.3665,0.0,0.0,0.0,0.0,0.0,0.0,0.0,0.0,0.0,5.0008,5.137,5.4022,5.733,6.1291,6.5434,6.9296,7.2495,7.638,7.9669,8.1554,8.3862,8.5126,8.4433,8.417,8.3747,8.2894,8.2362,8.2208,8.2547,8.2862,8.3208,8.3587,8.3785,8.3445,8.2554,8.2554,8.217,8.1323,8.1323,8.1323,8.1323,8.117,8.117,8.1323,8.117,8.1093,8.1093,8.1093,8.1093,8.1054,8.0331,7.9146,7.777,7.7592,7.6169,7.4226,7.4034,7.3995,7.3957,0.0,0.0,0.0,0.0,0.0,0.0,0.0,0.0,3.663,4.1568,4.6176,5.0336,5.3814,5.8054,5.8523,5.3237,5.9012,6.2397,6.1019,6.8953,7.6467,8.2631,8.6055,8.8748,9.0748,9.171,9.2595,9.3403,9.3595,9.4095,9.4826,9.4826,9.4826,9.4826,9.4826,9.4403,9.3672,9.348,9.2941,9.2133,9.1171,8.9325,8.7017,8.594,8.4055,8.1701,7.9131,7.5716,7.2495,7.2839,7.0315,6.7275,6.8339,6.7072,6.4193,5.9173,5.7212,5.5284,4.8798,4.6578,4.6371,4.7674,4.8087,4.9111,0.0,0.0,5.4805,5.7934,6.0035,6.2098,6.4869,6.8809,7.2542,7.5159,7.8515,8.167,8.4132,8.6011,8.7089,8.6973,8.6286,8.5517,8.4676,8.517,8.4978,8.3555,8.4824,8.5087,8.3657,8.4324,8.4368,8.349,8.3471,8.3041,8.2163,8.2163,8.2163,8.2163,8.1439,8.1477,8.2124,8.1439,8.1093,8.1093,8.1093,8.1093,8.1093,8.0977,8.0369,7.9446,7.8661,7.7766,7.6775,7.6015,7.5745,7.5485,0.0,0.0,0.0,0.0,0.0,0.0,0.0,0.0,0.0,3.8244,4.0613,4.2759,4.4628,4.6831,4.7163,4.4733,5.2574,5.9065,6.2345,7.1543,8.0015,8.6978,8.9133,9.0941,9.2633,9.3518,9.4095,9.4441,9.5441,9.6095,9.648,9.698,9.7211,9.7211,9.7211,9.6711,9.5865,9.5403,9.4711,9.3864,9.3018,9.1441,8.9402,8.7555,8.4356,8.0508,7.8,7.5043,0.0,7.0992,6.909,6.7341,6.7972,6.6469,6.3723,6.0111,5.7789,5.5401,5.0664,4.9853,0.0,0.0,5.3145,5.5516,5.773,5.9386,6.085,6.2257,6.5026,6.7859,6.9937,7.336,7.6553,0.0,8.1431,8.3702,8.4747,8.5901,8.6094,8.4609,8.4561,8.4709,8.4868,8.4753,8.4561,8.4395,8.501,8.5318,8.5087,8.5395,8.5203,8.4395,8.4356,8.3933,8.3079,8.3079,8.281,8.2278,8.1946,8.1753,8.1593,8.1246,8.1093,8.1093,8.1093,8.1093,8.1093,8.1093,8.0592,7.9754,7.94,7.8707,7.7852,7.6476,7.6015,7.5899,0.0,0.0,0.0,0.0,0.0,0.0,0.0,0.0,0.0,0.0,3.6336,3.6918,3.7789,3.8414,3.8843,3.9078,4.6639,5.4689,6.2404,7.208,8.1222,8.9556,9.1633,9.3287,9.4711,9.5595,9.6057,9.6057,9.725,9.7865,9.7865,9.8481,9.8788,9.8788,9.8788,9.8442,9.7827,9.725,9.648,9.5595,9.4749,9.2979,9.0517,8.7512,8.3317,7.8776,7.6271,7.285,6.9254,6.7648,6.6049,6.4897,6.5538,6.4526,6.2563,5.9983,5.6994,5.415,5.2222,0.0,0.0,5.4919,5.7944,6.1152,6.2868,6.4859,6.6628,6.7552,7.036,7.3206,7.4938,7.7207,7.94,8.1131,8.3394,8.4895,8.4901,8.5593,8.5142,8.2587,8.2676,8.3156,8.3791,8.3945,8.4214,8.4856,8.5126,8.5395,8.5747,8.578,8.5504,8.4927,8.4901,8.4593,8.3933,8.3933,8.3625,8.2978,8.2561,8.2138,8.1778,8.1285,8.1093,8.1093,8.1093,8.1093,8.1093,8.1093,8.0746,8.0138,7.9908,7.9408,7.8669,7.7216,7.6553,7.6284,0.0,0.0,0.0,0.0,0.0,0.0,0.0,0.0,0.0,0.0,0.0,0.0,0.0,3.6108,3.6462,3.7282,4.2791,5.0482,6.0525,6.9855,7.945,8.9444,9.3903,9.6519,9.7365,9.825,9.8673,9.8673,9.875,9.875,9.875,9.8788,9.8788,9.8788,9.8788,9.8788,9.875,9.8711,9.8211,9.7365,9.6557,9.371,8.9479,8.5286,8.1054,7.7015,7.4494,6.8781,6.2527,6.3284,6.1362,5.909,6.1571,6.2313,6.1758,5.9258,5.5084,5.1579,5.3028,0.0,5.5436,5.8684,6.1373,6.4282,6.8475,7.009,7.1668,7.4976,7.6438,7.763,7.9285,7.9708,8.0323,8.1977,8.374,8.4895,8.4907,8.556,8.5142,8.2595,8.1616,8.1186,0.0,8.3439,8.4863,8.4907,8.5632,8.5747,8.4983,8.4945,8.4945,8.4907,8.4907,8.4907,8.4868,8.4868,8.4868,8.4791,8.3093,8.2701,8.3464,8.1855,8.1093,8.1093,8.1093,8.1093,8.1093,8.1093,8.1093,8.0977,8.0138,7.9792,7.9677,7.8762,7.7908,7.7006,0.0,0.0,0.0,0.0,0.0,0.0,0.0,0.0,0.0,0.0,0.0,0.0,0.0,0.0,0.0,0.0,4.2113,4.805,5.4885,6.7085,7.6534,8.2207,9.1356,9.6172,9.5826,9.7788,9.8788,9.8788,9.9365,9.9635,9.9673,10.0212,10.0519,10.0519,10.0519,10.0212,9.9596,9.9058,9.798,9.6519,9.4557,9.121,8.6978,8.3324,7.7553,7.1014,0.0,6.4383,6.0993,5.9027,5.7235,5.6117,5.7503,5.7618,5.6753,5.4194,5.3858,5.44,5.497,0.0,6.2004,6.477,6.8185,7.1555,7.4139,7.5361,7.613,7.6746,7.6198,7.5649,7.561,7.5225,7.5995,7.9326,8.1801,8.3702,8.4758,8.5588,8.4324,7.9527,7.973,0.0,0.0,0.0,0.0,8.4791,8.5137,8.5406,8.5709,8.6219,8.6296,8.5676,8.6247,8.6286,8.5709,8.5709,8.5406,8.4907,8.374,8.331,8.3541,8.2394,8.1893,8.1893,8.1323,8.1093,8.1093,8.1093,8.1093,8.1054,8.0785,8.0669,8.0561,7.9677,7.88,7.7946,0.0,0.0,0.0,0.0,0.0,0.0,0.0,0.0,0.0,0.0,0.0,0.0,0.0,0.0,0.0,0.0,0.0,4.4587,5.0622,6.0692,6.8783,7.3997,8.2651,8.7218,8.6986,8.9145,9.0422,9.0769,9.3089,9.4552,9.5245,9.7518,9.875,9.9058,9.9673,9.9635,9.9096,9.7942,9.6097,9.3714,9.0905,8.6829,8.199,7.8062,7.2399,0.0,6.2029,5.9542,5.7786,5.5286,5.3899,5.334,5.3861,5.3898,5.3546,5.2531,5.4643,5.7519,5.8721,6.3136,6.8013,7.0507,7.3845,7.6901,7.8331,7.9054,7.8938,7.7216,7.6024,7.4745,7.2958,7.229,7.3316,7.7483,7.9798,8.1869,8.411,8.4626,8.3086,7.8743,7.8613,7.837,0.0,0.0,0.0,8.3785,8.4561,8.5253,8.606,8.6603,8.6795,8.6594,8.7094,8.6978,8.6094,8.6401,8.6017,8.4907,8.4324,8.3894,8.3587,8.267,8.2317,8.224,8.1439,8.1093,8.1093,8.1093,8.1093,8.1093,8.1093,8.1093,8.1016,8.0446,7.9715,7.88,0.0,0.0,0.0,0.0,0.0,0.0,0.0,0.0,0.0,0.0,0.0,0.0,0.0,0.0,0.0,0.0,0.0,0.0,4.7388,5.1397,5.7035,6.5083,6.9051,7.1468,7.2275,7.3976,7.5267,7.6171,8.0877,8.4019,8.5753,9.0509,9.3172,9.4018,9.5672,9.6403,9.6288,9.4711,9.2023,8.861,8.5488,8.0645,7.472,6.9959,6.5974,6.2257,5.7328,5.4523,5.3028,5.2241,5.153,5.093,5.0889,5.1476,5.2546,5.4475,5.7382,6.0791,6.4215,6.8846,7.3283,7.571,7.8161,8.0114,8.0946,8.1016,7.9908,7.6625,7.5782,7.4601,0.0,0.0,7.2354,7.6598,7.8103,7.9915,8.3336,8.3131,8.197,0.0,0.0,0.0,0.0,0.0,0.0,8.2317,0.0,8.5258,8.6142,8.6214,8.6632,8.7445,8.7406,8.7022,8.6247,8.7012,8.6555,8.4983,8.4983,8.4527,8.372,8.2792,8.2362,8.2317,8.1477,8.1093,8.1093,8.1093,8.1093,8.1093,8.1093,8.1093,8.1093,8.1093,8.0523,7.9523,0.0,0.0,0.0,0.0,0.0,0.0,0.0,0.0,0.0,0.0,0.0,0.0,0.0,0.0,0.0,0.0,0.0,0.0,3.8922,4.7007,5.264,5.4865,6.4193,6.9452,6.9645,7.1881,7.3481,7.4369,7.5633,7.6469,7.6931,7.8777,7.9721,7.9991,8.0977,8.1446,8.1439,8.0984,7.953,7.7493,7.6053,7.2217,6.723,6.5333,6.1704,5.7297,5.4748,5.3135,5.2221,5.1991,5.2223,5.2563,5.1962,5.3188,5.5481,5.8433,6.1695,6.5331,6.9972,7.4475,7.8323,8.0246,8.1177,8.1753,8.1946,7.9607,7.6955,7.5474,7.1722,6.8257,0.0,0.0,0.0,7.471,7.8386,0.0,8.5883,8.6807,0.0,8.3002,0.0,8.2759,8.2348,8.2317,0.0,0.0,8.4993,8.5535,8.7022,8.7675,8.8132,8.8359,8.7748,8.7598,8.8025,8.7594,8.6858,8.5786,8.5786,8.5709,8.5406,8.3939,8.3279,8.3195,8.1739,8.1093,8.1093,8.1093,8.1093,8.1093,8.1093,8.1093,8.1093,8.1093,8.0138,7.8762,0.0,0.0,0.0,0.0,0.0,0.0,0.0,0.0,0.0,0.0,0.0,0.0,0.0,0.0,0.0,0.0,0.0,0.0,0.0,4.1568,4.5463,4.6649,5.3042,5.6946,5.7683,5.9436,6.0738,6.1574,6.3806,6.5255,6.6028,6.8636,7.0053,7.0452,7.1992,7.2668,7.2629,7.2245,7.0871,0.0,0.0,6.368,5.9917,5.8735,5.6297,5.3315,5.2017,5.1689,5.2056,5.3174,0.0,5.4535,5.5615,5.795,6.0828,6.3885,0.0,7.1641,7.526,7.9362,8.2802,8.3726,8.3702,8.2869,8.0568,7.8283,7.5464,7.127,6.8171,0.0,6.218,0.0,0.0,0.0,0.0,0.0,8.6637,8.7825,8.7709,0.0,8.6488,0.0,8.533,8.5253,8.5676,0.0,8.5915,8.6184,8.7868,8.8406,8.8863,8.9205,8.8748,8.8714,8.9252,8.8402,8.7709,8.7248,8.6863,8.6671,8.6594,8.4516,8.3625,8.351,0.0,8.1093,8.1093,8.1093,8.1093,8.1093,8.1093,8.1093,8.1093,8.1093,8.0484,7.9523,0.0,0.0,0.0,0.0,0.0,0.0,0.0,0.0,0.0,0.0,0.0,0.0,0.0,0.0,0.0,0.0,0.0,0.0,0.0,0.0,3.8077,4.0471,4.07,4.1473,4.3052,4.3948,4.4791,4.5585,4.9975,5.2845,5.4343,5.8742,6.119,6.1957,6.4363,6.5433,6.5345,6.4754,6.3065,6.0597,5.812,5.5561,5.313,0.0,5.1085,5.0258,4.9486,5.015,5.1867,5.5131,5.6414,5.7335,6.0819,6.4166,6.7398,7.019,7.4312,7.8315,8.0414,8.374,8.6569,8.6492,8.5588,8.3413,7.8339,7.6555,7.3812,6.6126,0.0,6.3726,5.8309,6.1522,6.5887,6.8552,0.0,7.9772,8.6889,8.7804,8.8413,9.0178,8.9793,8.9066,8.8336,8.8144,8.8067,8.8064,8.7257,8.7406,8.8786,8.8863,8.9098,8.9748,8.9979,8.9979,8.9748,8.9137,8.8825,8.8671,8.7825,8.7325,8.7132,8.4709,8.3516,8.3324,0.0,0.0,8.1093,8.1093,8.1093,8.1093,8.1093,8.1093,8.1093,8.1093,8.1016,8.0708,0.0,0.0,0.0,0.0,0.0,0.0,0.0,0.0,0.0,0.0,3.1421,3.0992,0.0,0.0,0.0,0.0,0.0,0.0,0.0,0.0,0.0,3.7843,3.8572,3.9416,4.0351,4.1225,4.2066,4.2866,4.3753,4.4344,4.4655,4.6138,4.6883,4.71,4.8827,4.9584,4.9679,5.0125,4.9701,4.8852,5.0413,4.9894,4.8297,4.947,0.0,0.0,4.8356,4.8529,4.9775,5.6552,6.0252,6.2567,6.6038,6.9424,7.2946,7.6875,7.9632,8.2242,8.6111,8.8179,8.9056,8.8406,8.5992,8.2644,7.8227,7.2943,0.0,0.0,6.2305,6.0318,5.7843,6.1578,6.6458,7.0915,7.4866,8.0447,8.9294,0.0,9.0375,0.0,0.0,0.0,0.0,0.0,0.0,0.0,0.0,0.0,8.971,8.971,8.9479,8.8906,9.0248,9.0325,8.8906,8.944,8.9363,8.8671,8.7825,8.7017,8.6247,8.4439,8.3208,8.2477,0.0,0.0,8.1093,8.1093,8.1093,8.1093,8.1093,8.1093,8.1093,8.1093,8.0669,7.9869,0.0,0.0,0.0,0.0,0.0,0.0,0.0,3.1092,3.1514,3.1936,3.1663,3.143,3.1391,3.0983,3.0697,0.0,0.0,0.0,0.0,0.0,0.0,0.0,3.7378,3.8234,3.9059,3.948,3.9901,4.0276,0.0,4.0235,4.0226,4.0548,4.0699,4.0754,4.1905,4.243,4.2502,4.3728,4.402,4.3827,4.5466,4.5659,4.5004,0.0,0.0,0.0,0.0,4.7645,4.9682,5.5538,5.9557,6.3271,7.0179,7.4696,7.763,7.8339,8.1574,8.5151,8.5884,8.8951,9.1598,9.0329,8.6401,8.1561,7.6466,0.0,0.0,0.0,6.0433,5.9181,5.6534,6.0932,0.0,6.748,7.0599,7.6338,8.6555,8.677,0.0,0.0,0.0,0.0,0.0,0.0,0.0,0.0,0.0,0.0,9.0633,9.0594,9.0402,9.0017,9.0787,9.0825,9.0017,9.0402,9.0171,8.9325,8.8479,8.7632,8.6709,8.4555,8.3362,8.2901,8.1631,0.0,8.1093,8.1093,8.1093,8.1093,8.1093,8.1093,8.1093,8.1093,8.0862,8.0331,0.0,0.0,0.0,0.0,0.0,0.0,0.0,3.1424,3.2124,3.2499,3.2361,3.2283,3.2259,3.1312,3.0683,0.0,0.0,0.0,0.0,0.0,0.0,0.0,0.0,0.0,0.0,0.0,0.0,0.0,0.0,0.0,0.0,0.0,0.0,0.0,0.0,3.9197,3.9226,4.0524,4.106,0.0,0.0,4.2409,0.0,0.0,0.0,0.0,0.0,4.6952,4.9779,5.4216,5.7896,6.2198,7.1233,7.6467,7.9114,7.8412,8.2317,8.6714,8.6035,8.9835,9.3522,9.1675,8.6576,8.0481,7.4602,6.845,0.0,5.9011,5.8854,5.8574,5.5613,5.9924,6.4011,0.0,6.6477,7.2073,8.2964,8.355,8.5741,0.0,9.5557,0.0,0.0,0.0,0.0,0.0,0.0,0.0,9.1248,9.121,9.121,9.121,9.121,9.121,9.121,9.121,9.0748,8.9902,8.9094,8.8055,8.6786,8.4593,8.3401,8.2978,8.167,0.0,0.0,8.1093,8.1093,8.1093,8.1093,8.1093,8.1093,8.1093,8.1093,8.0977,0.0,0.0,0.0,0.0,0.0,0.0,0.0,3.1442,3.2555,3.4078,3.3588,3.3106,3.3067,3.167,3.0707,0.0,0.0,0.0,0.0,0.0,0.0,0.0,0.0,0.0,0.0,0.0,0.0,0.0,0.0,0.0,0.0,0.0,0.0,0.0,0.0,0.0,0.0,3.8414,0.0,0.0,0.0,0.0,0.0,0.0,0.0,0.0,0.0,4.6068,4.899,5.401,5.7495,6.0696,6.6242,7.0414,7.4191,7.9259,0.0,0.0,9.1402,9.3826,9.4287,9.1828,8.617,7.9653,7.3755,0.0,6.0577,5.7852,5.7545,5.7357,5.6132,5.8453,6.1758,0.0,0.0,7.1223,8.13,8.3917,8.6726,9.2088,0.0,0.0,0.0,0.0,0.0,0.0,0.0,0.0,0.0,9.121,9.121,9.121,9.121,9.121,9.121,9.121,9.0748,8.9902,8.9094,8.744,8.5093,8.4055,8.2747,8.1323,0.0,0.0,0.0,8.1093,8.1093,8.1093,8.1093,8.1093,8.1093,8.1093,8.1093,8.0977,0.0,0.0,0.0,0.0,0.0,0.0,2.9868,3.1064,3.2377,3.3563,3.2917,3.255,3.3158,3.1611,3.0595,3.0637,0.0,0.0,0.0,0.0,0.0,0.0,0.0,0.0,0.0,0.0,0.0,0.0,0.0,0.0,0.0,0.0,0.0,0.0,0.0,0.0,0.0,0.0,0.0,0.0,0.0,0.0,0.0,0.0,0.0,0.0,0.0,0.0,4.6222,0.0,5.1376,5.3976,5.6521,5.9706,6.3801,0.0,7.7428,8.3803,8.5652,9.0894,9.5172,9.2633,8.5363,7.7699,7.342,0.0,5.8392,5.7503,5.7366,5.7318,5.6911,5.8181,6.0176,6.2754,6.174,0.0,7.2855,7.4217,7.7639,8.6838,0.0,0.0,0.0,0.0,0.0,0.0,0.0,0.0,0.0,9.1479,9.121,9.121,9.121,9.121,9.121,9.0671,9.0017,8.9171,8.8325,8.7094,8.5593,8.4747,8.3747,8.2593,0.0,0.0,0.0,8.1093,8.1093,8.1093,8.1093,8.1093,8.1093,8.1093,8.1093,8.1054,0.0,0.0,0.0,0.0,0.0,2.9116,2.9373,3.0808,3.2197,3.3072,3.2618,3.2377,3.2744,3.142,3.0434,3.022,3.0414,0.0,0.0,0.0,0.0,0.0,0.0,0.0,0.0,0.0,3.2798,3.2526,0.0,0.0,0.0,0.0,0.0,0.0,0.0,0.0,0.0,0.0,0.0,0.0,0.0,0.0,0.0,0.0,0.0,0.0,0.0,0.0,0.0,0.0,0.0,4.929,5.0426,5.264,5.6286,6.359,7.1877,7.9278,8.1937,8.8271,9.3708,9.2133,8.4632,7.6727,0.0,0.0,5.7545,5.7412,5.7202,5.7124,5.7366,5.8181,5.9318,6.0949,5.9365,6.0419,6.7638,6.8446,7.1852,0.0,0.0,0.0,0.0,0.0,0.0,0.0,0.0,0.0,0.0,9.1672,9.121,9.121,9.121,9.1095,9.0825,9.021,8.9363,8.8286,8.7671,8.6824,8.5709,8.4901,8.4055,8.317,0.0,0.0,0.0,8.1093,8.1093,8.1093,8.1093,8.1093,8.1093,8.1093,8.1093,8.1093,0.0,0.0,0.0,0.0,0.0,0.0,2.9256,3.0831,3.2219,3.3081,3.3188,3.2821,3.1932,3.109,3.022,2.9293,2.9998,0.0,0.0,0.0,0.0,0.0,0.0,0.0,0.0,0.0,3.1612,3.0711,3.1649,3.2071,0.0,0.0,0.0,0.0,0.0,0.0,0.0,0.0,0.0,0.0,0.0,0.0,0.0,0.0,0.0,0.0,0.0,0.0,0.0,0.0,0.0,0.0,0.0,5.1426,5.3816,6.2334,6.7293,7.2404,8.3218,8.75,8.9046,8.9748,8.4202,7.7313,0.0,6.4675,5.8351,5.7583,5.6759,5.6466,5.7249,5.8181,5.9342,6.0954,6.1909,6.3907,6.8103,7.0078,7.2716,0.0,0.0,0.0,0.0,0.0,0.0,0.0,0.0,0.0,0.0,9.1672,9.121,9.121,9.121,9.0787,8.994,8.9902,8.9056,8.7401,8.7401,8.6517,8.4901,8.4016,8.3131,0.0,0.0,0.0,0.0,8.1093,8.1093,8.1093,8.1093,8.1093,8.1093,8.1093,8.1093,8.1093,0.0,0.0,0.0,0.0,0.0,0.0,0.0,2.9427,3.0651,3.2124,3.1739,3.1255,3.1023,3.0192,2.9284,2.8463,2.9159,0.0,0.0,0.0,0.0,0.0,0.0,0.0,0.0,0.0,3.0374,3.0691,3.1026,3.1182,3.1119,3.202,3.2389,0.0,0.0,0.0,0.0,0.0,0.0,0.0,0.0,0.0,0.0,0.0,0.0,0.0,0.0,0.0,0.0,0.0,0.0,0.0,0.0,0.0,0.0,5.6634,6.2393,6.8452,7.3652,7.842,8.1822,8.1445,7.6079,7.0169,6.7518,6.1659,5.6747,5.6549,5.6338,5.6455,5.7273,5.7699,5.8645,6.0856,6.1436,6.224,0.0,0.0,0.0,0.0,0.0,0.0,0.0,0.0,0.0,0.0,0.0,0.0,0.0,9.1979,9.121,9.121,9.0633,9.0171,8.9902,8.8748,8.794,8.7401,8.6786,8.6247,8.5709,8.4863,0.0,0.0,0.0,0.0,0.0,8.1093,8.1093,8.1093,8.1093,8.1093,8.1093,8.1093,8.1093,8.1093,0.0,0.0,0.0,0.0,0.0,0.0,0.0,2.8753,2.9821,3.1206,3.0598,3.0047,3.0115,2.8984,2.8077,2.7537,2.8,0.0,0.0,0.0,0.0,0.0,0.0,0.0,0.0,2.9525,2.9667,3.023,3.0898,3.1248,3.1197,3.1735,3.1987,3.1957,3.2128,0.0,0.0,0.0,0.0,0.0,0.0,0.0,3.4079,0.0,0.0,0.0,0.0,0.0,0.0,0.0,0.0,0.0,0.0,0.0,0.0,0.0,5.7407,6.247,6.7586,7.2095,7.5401,7.5451,7.1646,6.7178,6.453,6.0113,5.6437,5.6128,5.6089,5.6261,5.6769,5.7133,5.7978,5.9915,6.0444,0.0,0.0,0.0,0.0,0.0,0.0,0.0,0.0,0.0,0.0,0.0,0.0,0.0,0.0,0.0,9.071,9.071,9.0171,8.9594,8.8979,8.7902,8.7209,8.6901,8.6363,8.6094,8.6055,8.4939,0.0,0.0,0.0,0.0,0.0,8.1093,8.1093,8.1093,8.1093,8.1093,8.1093,8.1093,8.1093,8.1093,0.0,0.0,0.0,0.0,0.0,0.0,0.0,2.8698,2.9541,3.0482,2.989,2.9339,2.9207,2.7765,2.676,2.663,0.0,0.0,0.0,0.0,0.0,0.0,0.0,0.0,2.8117,2.8883,2.9337,2.9395,3.1145,3.2,3.2,3.2057,3.2035,3.1864,3.1064,3.0651,0.0,0.0,0.0,0.0,0.0,3.2348,0.0,0.0,0.0,0.0,0.0,0.0,0.0,0.0,0.0,0.0,0.0,0.0,0.0,0.0,0.0,0.0,0.0,6.7702,6.9378,7.0927,6.9571,6.6879,6.2935,5.9591,0.0,5.6205,5.6012,5.6024,5.6082,5.6628,5.7482,5.8614,0.0,0.0,0.0,0.0,0.0,0.0,0.0,0.0,0.0,0.0,0.0,0.0,0.0,0.0,0.0,0.0,8.9863,8.9825,8.9748,8.8979,8.7401,8.7325,8.6901,8.6094,8.6094,8.6055,8.5978,8.4324,0.0,0.0,0.0,0.0,0.0,8.1093,8.1093,8.1093,8.1093,8.1093,8.1093,8.1093,8.1093,8.1093,0.0,0.0,0.0,0.0,0.0,0.0,0.0,0.0,0.0,0.0,3.0414,2.9785,2.8434,2.7959,2.7194,0.0,0.0,0.0,0.0,0.0,0.0,0.0,0.0,0.0,2.8078,2.8293,2.8741,2.9395,3.1145,3.2,3.2,3.264,3.2547,3.1903,3.1685,3.1241,0.0,0.0,0.0,0.0,3.1787,3.2764,0.0,0.0,0.0,0.0,3.9083,4.041,0.0,0.0,0.0,0.0,0.0,0.0,0.0,0.0,5.2337,5.3111,5.5995,0.0,6.05,6.1582,6.0887,5.9707,0.0,5.7387,5.636,0.0,0.0,5.6381,5.7024,5.7156,5.7947,0.0,0.0,0.0,0.0,0.0,0.0,0.0,0.0,0.0,0.0,0.0,0.0,0.0,0.0,0.0,0.0,0.0,8.9633,8.8979,8.8325,8.7786,8.7401,8.6748,8.6286,8.6094,8.6094,8.5786,8.517,8.4093,0.0,0.0,0.0,0.0,8.1093,8.1093,8.1093,8.1093,8.1093,8.1093,8.1093,8.1093,8.1093,8.1093,0.0,0.0,0.0,0.0,0.0,0.0,0.0,0.0,0.0,0.0,0.0,2.8859,2.7518,2.7025,0.0,0.0,0.0,0.0,0.0,0.0,0.0,0.0,0.0,2.7195,2.6893,2.7697,2.8346,2.8793,3.1365,3.2608,3.2608,3.3402,3.3347,3.2477,3.1659,3.106,0.0,0.0,0.0,0.0,3.1313,0.0,0.0,0.0,0.0,0.0,3.889,3.9844,0.0,4.2576,4.3568,4.4418,0.0,0.0,0.0,0.0,5.1347,5.1827,5.2717,5.4807,5.6781,5.6859,5.7124,5.7179,5.6372,5.6178,5.6007,0.0,0.0,5.6256,5.675,5.6975,0.0,0.0,0.0,0.0,0.0,0.0,0.0,0.0,0.0,0.0,0.0,0.0,0.0,0.0,0.0,0.0,0.0,0.0,8.8979,8.8132,8.6901,8.6247,8.6247,8.5786,8.5363,8.4939,8.4939,8.4709,8.4286,8.3401,0.0,0.0,0.0,0.0,8.1093,8.1093,8.1093,8.1093,8.1093,8.1093,8.1093,8.1093,8.1093,8.1093,0.0,0.0,0.0,0.0,0.0,0.0,0.0,0.0,0.0,0.0,0.0,0.0,0.0,0.0,0.0,0.0,0.0,0.0,0.0,0.0,0.0,0.0,2.7937,2.7148,2.5708,2.7263,2.8216,2.8488,3.1724,3.3363,3.348,3.4309,3.4137,3.3111,3.1516,3.0714,0.0,0.0,0.0,0.0,3.0994,0.0,0.0,0.0,0.0,0.0,0.0,0.0,0.0,4.2202,4.3221,4.3569,4.6278,0.0,0.0,0.0,0.0,0.0,5.2051,5.3948,5.5536,5.4785,5.5839,5.6699,5.518,5.5451,5.5785,0.0,0.0,5.6054,5.6117,5.6665,0.0,0.0,0.0,0.0,0.0,0.0,0.0,0.0,0.0,0.0,0.0,0.0,0.0,0.0,0.0,0.0,0.0,0.0,0.0,8.7209,8.5709,8.4786,8.4516,8.4632,8.4324,8.3593,8.3593,8.3516,8.3362,8.2631,0.0,0.0,0.0,0.0,8.1093,8.1093,8.1093,8.1093,8.1093,8.1093,8.1093,8.1093,8.1093,8.1093,0.0,0.0,0.0,0.0,0.0,0.0,0.0,0.0,0.0,0.0,0.0,0.0,0.0,0.0,0.0,0.0,0.0,0.0,0.0,0.0,0.0,2.9052,2.7744,2.6839,2.6606,2.7574,2.8837,3.0312,3.2252,3.358,3.4318,3.5127,3.4672,3.3074,3.2077,3.1226,3.0634,0.0,0.0,3.2803,3.2755,0.0,0.0,0.0,0.0,0.0,0.0,0.0,0.0,4.2473,4.2884,4.2858,4.6164,0.0,0.0,0.0,0.0,0.0,5.2051,5.3126,5.3901,5.3674,5.4392,5.5049,5.4725,5.4785,5.5133,5.5835,0.0,0.0,0.0,5.7236,0.0,0.0,0.0,0.0,0.0,0.0,0.0,0.0,0.0,0.0,0.0,0.0,0.0,0.0,0.0,0.0,0.0,0.0,0.0,8.6324,8.5401,8.4209,8.2708,8.3439,8.3708,8.3593,8.3593,8.3208,8.2516,8.2362,8.1939,0.0,0.0,8.1093,8.1093,8.1093,8.1093,8.1093,8.1093,8.1093,8.1093,8.1093,8.1093,8.0977,0.0,0.0,0.0,0.0,0.0,0.0,0.0,0.0,0.0,0.0,0.0,0.0,0.0,0.0,0.0,0.0,0.0,0.0,0.0,0.0,2.829,2.9226,2.8539,2.7945,2.7442,2.8753,2.9854,3.0668,3.2792,3.4274,3.5145,3.503,3.4313,3.3026,3.1729,3.0964,3.0634,3.1021,3.168,3.2493,0.0,0.0,0.0,0.0,0.0,0.0,0.0,0.0,0.0,0.0,4.2753,4.3152,4.5221,0.0,0.0,0.0,0.0,0.0,5.1411,5.2291,5.3039,5.331,5.4392,5.526,5.4689,5.4862,5.5183,0.0,0.0,0.0,0.0,0.0,0.0,0.0,0.0,0.0,0.0,0.0,0.0,0.0,0.0,0.0,0.0,0.0,0.0,0.0,0.0,0.0,0.0,0.0,0.0,0.0,8.3939,8.3093,8.2324,8.2285,8.2247,8.2247,8.2247,8.2054,8.1631,8.1631,8.1439,8.1093,0.0,8.1093,8.1093,8.1093,8.1093,8.1093,8.1093,8.1093,8.1093,8.1093,8.0785,8.0285,0.0,0.0,0.0,0.0,0.0,0.0,0.0,0.0,0.0,0.0,0.0,0.0,0.0,0.0,0.0,0.0,0.0,0.0,0.0,0.0,2.8512,2.9168,2.9429,2.9264,2.8616,2.989,3.0983,3.1787,3.3713,3.5116,3.594,3.5078,3.411,3.3055,3.1545,3.078,3.0586,3.0836,3.1301,3.1912,0.0,0.0,0.0,0.0,0.0,0.0,0.0,0.0,0.0,0.0,0.0,0.0,0.0,0.0,0.0,4.8193,4.9253,5.0287,5.1153,5.1864,5.256,5.3498,5.4271,5.4951,5.5538,5.5651,5.575,0.0,0.0,0.0,0.0,0.0,0.0,0.0,0.0,0.0,0.0,0.0,0.0,0.0,0.0,0.0,0.0,0.0,0.0,0.0,0.0,0.0,0.0,0.0,0.0,0.0,8.2631,8.2208,8.2016,8.14,8.1093,8.1093,8.1093,8.1093,8.1093,8.1093,8.1093,8.1093,8.1093,8.1093,8.1093,8.1093,8.1093,8.1093,8.1093,8.1093,8.1093,8.0862,8.0362,7.9669,0.0,0.0,0.0,0.0,0.0,0.0,0.0,0.0,0.0,0.0,0.0,0.0,0.0,0.0,0.0,0.0,0.0,0.0,0.0,0.0,2.9137,2.9206,2.9988,3.0384,3.0327,3.0509,3.2106,3.5229,3.5422,3.5941,3.6691,3.5902,3.4638,3.307,3.2183,3.1379,3.0646,3.1465,3.1853,3.2028,3.3568,0.0,0.0,0.0,0.0,0.0,0.0,0.0,0.0,0.0,0.0,0.0,0.0,0.0,4.6407,4.8038,4.9705,5.1192,5.2072,5.2221,5.2553,5.4281,5.294,5.2587,5.7901,5.7422,0.0,6.0888,0.0,0.0,0.0,0.0,0.0,0.0,0.0,0.0,0.0,0.0,0.0,0.0,0.0,0.0,0.0,0.0,0.0,0.0,0.0,0.0,0.0,0.0,0.0,0.0,0.0,8.1939,8.1208,8.1131,8.1093,8.1093,8.1093,8.1093,8.1093,8.1093,8.1093,8.1093,8.1093,8.1093,8.1093,8.1093,8.1093,8.1093,8.1093,8.1093,8.1016,8.0208,7.9862,7.9592,0.0,0.0,0.0,0.0,0.0,0.0,0.0,0.0,0.0,0.0,0.0,0.0,0.0,0.0,0.0,0.0,0.0,0.0,0.0,2.8527,2.9434,2.9908,3.0837,3.1332,3.1293,3.2347,3.3776,3.5581,3.7177,3.7578,3.6794,3.6041,3.4747,3.3073,3.2261,3.1718,3.1477,3.2299,3.2976,3.3567,3.4158,3.4914,0.0,0.0,0.0,0.0,0.0,0.0,0.0,0.0,4.211,4.2674,4.4033,4.5509,4.7023,4.8216,4.9419,5.0545,5.1411,5.2288,5.3282,5.4442,5.386,0.0,0.0,6.0234,6.0441,6.3629,6.5498,0.0,0.0,0.0,0.0,0.0,0.0,0.0,0.0,0.0,0.0,0.0,0.0,0.0,0.0,0.0,0.0,0.0,0.0,0.0,0.0,0.0,0.0,0.0,0.0,8.14,8.1093,8.1093,8.1093,8.1093,8.1093,8.1093,8.1093,8.1093,8.1093,8.1093,8.1093,8.1093,8.1093,8.1093,8.1093,8.1093,8.1093,8.1093,8.0977,8.0131,7.9477,7.8823,0.0,0.0,0.0,0.0,0.0,0.0,0.0,0.0,0.0,0.0,0.0,0.0,0.0,0.0,0.0,0.0,0.0,0.0,2.7928,2.8961,2.9704,3.0012,3.0914,3.1641,3.2192,3.3566,3.4827,3.5982,3.8518,3.8877,3.7166,3.6416,3.5134,3.347,3.3199,3.2784,3.2358,3.3432,3.3955,3.41,3.4313,3.5108,0.0,0.0,0.0,0.0,0.0,0.0,0.0,0.0,4.1867,4.2781,4.3656,4.5103,4.6735,4.7861,4.8953,4.9938,5.0608,5.1407,5.2447,5.3945,0.0,0.0,6.2512,6.2631,6.2528,6.6671,6.8378,0.0,0.0,0.0,0.0,0.0,0.0,0.0,0.0,0.0,0.0,0.0,0.0,0.0,0.0,0.0,0.0,0.0,0.0,0.0,0.0,0.0,0.0,0.0,0.0,8.1093,8.1093,8.1093,8.1093,8.1093,8.1093,8.1093,8.1093,8.1093,8.1093,8.1093,8.1093,8.0939,8.0708,8.0977,8.1093,8.1093,8.1093,8.0939,8.0592,7.9708,7.8861,7.7977,0.0,0.0,0.0,0.0,0.0,0.0,0.0,0.0,0.0,0.0,0.0,0.0,0.0,0.0,0.0,0.0,0.0,0.0,2.7967,2.9462,3.0051,2.9242,3.0045,3.135,3.3042,3.3812,3.5059,3.6794,3.9283,3.9653,3.7987,3.7244,3.5956,3.4345,3.5234,3.4665,3.3218,3.4897,3.4665,3.3228,3.4061,3.5446,3.6988,0.0,0.0,0.0,0.0,0.0,0.0,0.0,4.1546,4.1373,4.3966,4.4792,4.5142,4.6812,4.8321,4.9575,4.9807,4.9473,4.9736,5.2768,0.0,0.0,6.6337,6.4282,6.2567,7.0398,7.0392,6.9344,7.0516,0.0,0.0,0.0,0.0,0.0,0.0,0.0,0.0,0.0,0.0,0.0,0.0,0.0,0.0,0.0,0.0,0.0,0.0,0.0,0.0,0.0,0.0,0.0,8.1093,8.1093,8.1093,8.1093,8.1093,8.1093,8.1093,8.1093,8.1093,8.1093,8.1093,8.0592,7.9862,8.0708,8.1093,8.1093,8.1093,8.0554,7.9669,7.8823,7.7977,7.7169,0.0,0.0,0.0,0.0,0.0,0.0,0.0,0.0,0.0,0.0,0.0,0.0,0.0,0.0,0.0,0.0,0.0,0.0,2.8884,2.9809,3.0282,3.0051,3.1493,3.2297,3.2192,3.4168,3.5984,3.7654,3.9042,3.8877,3.7218,3.6427,3.5444,3.4417,3.5813,3.5543,3.4156,3.6407,3.6791,3.5873,3.6084,3.6833,3.783,0.0,0.0,0.0,0.0,0.0,0.0,0.0,0.0,0.0,4.3391,4.5025,4.6539,4.7129,4.8373,4.9459,4.9007,4.9575,0.0,5.4357,0.0,0.0,0.0,6.6961,0.0,0.0,7.3322,7.3471,0.0,0.0,0.0,0.0,0.0,0.0,0.0,0.0,0.0,0.0,0.0,0.0,0.0,0.0,0.0,0.0,0.0,0.0,0.0,0.0,0.0,0.0,0.0,0.0,8.1093,8.1093,8.1093,8.1093,8.1093,8.1093,8.1093,8.1093,8.1093,8.1054,8.0439,8.0054,7.9785,7.94,7.9246,7.9246,7.9246,7.9092,7.8784,7.7938,7.7476,7.7169,0.0,0.0,0.0,0.0,0.0,0.0,0.0,0.0,0.0,0.0,3.0451,3.0419,0.0,0.0,0.0,0.0,0.0,0.0,0.0,3.0117,3.0414,3.0414,3.178,3.2624,3.2778,3.5299,3.6755,3.7038,3.8273,3.8209,3.6895,3.6775,3.6218,3.5472,3.7462,3.723,3.5549,3.7668,3.7938,3.6957,3.6936,3.7637,3.8704,0.0,0.0,0.0,0.0,0.0,0.0,0.0,0.0,0.0,4.2632,4.3916,4.5273,4.603,4.708,4.8067,4.8406,4.9567,0.0,5.6268,5.9914,6.3847,6.9318,0.0,0.0,0.0,0.0,0.0,0.0,0.0,0.0,0.0,0.0,0.0,0.0,0.0,0.0,0.0,0.0,0.0,0.0,0.0,0.0,0.0,0.0,0.0,0.0,0.0,0.0,0.0,0.0,0.0,8.0054,8.0054,8.0054,8.0054,8.0054,8.0054,8.0092,8.0439,8.0592,8.0516,7.9323,7.8977,7.9208,7.8361,7.8207,7.8477,7.8477,7.8284,7.7938,7.7476,7.6861,7.6207,0.0,0.0,3.069,3.0707,0.0,0.0,0.0,0.0,0.0,0.0,3.051,3.0451,0.0,0.0,0.0,0.0,0.0,0.0,0.0,0.0,3.0417,3.0494,3.1415,3.2721,3.4364,3.6677,3.7139,3.5588,3.7141,3.7488,3.6829,3.7668,3.7718,3.7228,3.9637,3.9367,3.7228,3.8672,3.8428,3.7003,3.7003,3.807,3.9641,3.9641,0.0,0.0,0.0,0.0,0.0,0.0,0.0,0.0,4.1834,4.2144,4.2532,4.4117,4.5037,4.595,4.7951,4.9528,0.0,5.8567,6.2446,0.0,7.1901,7.7227,0.0,0.0,0.0,0.0,0.0,0.0,0.0,0.0,0.0,0.0,0.0,0.0,0.0,0.0,0.0,0.0,0.0,0.0,0.0,0.0,0.0,0.0,0.0,0.0,0.0,0.0,0.0,0.0,7.8515,7.8477,7.8477,0.0,7.8477,7.8477,7.8515,7.9323,7.9592,7.9361,7.7938,7.7592,7.7977,7.7323,7.7438,7.8054,7.8054,7.7592,7.6938,7.6938,7.5938,7.4591,0.0,0.0,3.0704,3.069,0.0,0.0,0.0,0.0,0.0,0.0,0.0,0.0,0.0,0.0,0.0,0.0,0.0,0.0,0.0,0.0,3.0698,3.1391,3.2851,3.4198,3.5302,3.5879,3.5941,3.5588,3.5952,3.6079,3.5958,3.6728,3.7668,3.8782,4.0639,4.0446,3.8719,3.9133,3.8775,3.792,3.7909,3.8965,4.0525,4.0525,4.0513,0.0,0.0,0.0,0.0,0.0,0.0,0.0,4.1823,4.2524,4.3092,4.3613,4.4639,4.6039,4.7835,5.0443,0.0,0.0,6.9604,7.6351,7.9455,8.1249,8.0578,0.0,0.0,0.0,0.0,0.0,0.0,0.0,0.0,0.0,0.0,0.0,0.0,0.0,0.0,0.0,0.0,0.0,0.0,0.0,0.0,0.0,0.0,0.0,0.0,0.0,0.0,7.8669,7.8477,7.8477,7.8477,0.0,7.8477,7.8477,7.8515,7.8669,7.8054,7.6823,7.7169,7.6245,7.463,7.5053,7.4976,7.4591,7.4591,7.4476,7.4322,7.4322,7.4091,7.3783,0.0,0.0,0.0,0.0,0.0,0.0,0.0,0.0,0.0,0.0,0.0,0.0,0.0,0.0,0.0,0.0,0.0,0.0,0.0,0.0,3.1955,3.2827,3.4135,3.5059,3.5534,3.6006,3.6013,3.5669,3.5271,3.5869,3.7436,3.8207,3.9446,4.0998,4.1915,4.1178,3.9259,3.9328,3.8929,3.823,3.8644,3.9611,4.081,4.081,4.081,4.081,4.081,0.0,0.0,0.0,0.0,0.0,0.0,0.0,4.2228,4.3164,4.393,4.5244,4.8614,0.0,0.0,6.7036,0.0,8.0201,8.1041,8.1141,7.9949,0.0,0.0,0.0,0.0,0.0,0.0,0.0,0.0,0.0,0.0,0.0,0.0,0.0,0.0,0.0,0.0,0.0,0.0,0.0,0.0,0.0,0.0,0.0,0.0,0.0,7.7364,7.7253,7.6707,7.7092,7.6899,7.613,7.6899,7.7092,7.6669,7.7092,7.6592,7.5399,7.5438,7.4745,7.3553,7.3976,7.3899,7.3514,7.3514,7.3514,7.3514,7.3514,7.3245,7.2899,0.0,0.0,0.0,0.0,0.0,0.0,0.0,0.0,0.0,0.0,0.0,0.0,0.0,0.0,0.0,0.0,0.0,0.0,0.0,0.0,0.0,3.4082,3.4979,3.5495,3.5495,3.6277,3.6334,3.5689,3.5156,3.6698,4.0138,4.0354,4.1498,4.3311,4.3517,4.2239,3.9928,3.9895,3.9328,3.8501,3.9197,3.9997,4.081,4.081,4.081,4.081,4.081,4.081,4.081,4.081,0.0,0.0,0.0,0.0,4.1093,4.2521,4.3098,4.425,4.8991,5.4353,6.1246,7.2208,7.7847,0.0,8.0338,7.9713,7.9198,0.0,0.0,0.0,0.0,0.0,0.0,0.0,0.0,0.0,0.0,0.0,0.0,0.0,0.0,0.0,0.0,0.0,0.0,0.0,0.0,0.0,0.0,0.0,7.5587,7.5818,7.5778,7.534,7.4514,7.5207,7.4861,7.3514,7.4899,7.5207,7.4514,7.5091,7.4938,7.4245,7.3707,7.3322,7.3053,7.3206,7.3206,7.3053,7.3053,7.3053,7.3053,7.3053,7.2591,7.1975,0.0,0.0,0.0,0.0,0.0,0.0,0.0,0.0,0.0,0.0,3.2921,3.2821,0.0,3.2697,3.2424,3.178,3.1753,3.1532,3.0897,0.0,0.0,3.416,3.4966,3.5455,3.5496,3.5688,3.5736,3.5599,3.6256,3.8915,4.3406,4.1353,4.2028,4.4951,4.5698,4.4671,4.2386,4.1755,4.0626,3.9352,3.9468,3.9997,4.081,4.081,4.081,4.081,4.081,4.081,4.081,4.081,4.081,0.0,0.0,0.0,4.0861,4.1086,4.2194,4.3967,4.6848,0.0,6.6528,0.0,7.7508,7.953,0.0,0.0,0.0,0.0,0.0,0.0,0.0,0.0,0.0,0.0,0.0,0.0,0.0,0.0,0.0,0.0,0.0,0.0,0.0,0.0,0.0,0.0,0.0,0.0,0.0,7.3898,7.3661,7.3473,7.3231,7.3308,7.3668,7.3783,7.3745,7.3514,7.3745,7.3783,7.363,7.3014,7.2629,7.2552,7.3206,7.2629,7.1321,7.2052,7.1937,7.1245,7.1245,7.1245,7.1245,7.1245,7.1168,7.0997,0.0,0.0,0.0,0.0,0.0,0.0,0.0,0.0,0.0,0.0,0.0,3.3697,3.3635,3.2813,3.2297,3.2408,3.2508,3.2557,3.2607,3.3261,3.3801,3.4186,3.502,3.5483,3.557,3.5643,3.5676,3.5669,3.6521,3.9187,4.3481,4.3234,4.5086,4.858,4.8081,4.6249,4.3542,4.3693,4.2069,3.9455,4.0853,4.1398,4.1351,4.0887,4.0977,4.148,4.1879,4.1403,0.0,0.0,4.1403,4.0655,4.0757,0.0,0.0,0.0,4.2393,4.4614,5.0441,5.8122,6.5981,0.0,7.5955,7.8308,7.958,0.0,0.0,0.0,0.0,0.0,0.0,0.0,0.0,0.0,0.0,0.0,0.0,0.0,0.0,0.0,0.0,0.0,0.0,0.0,0.0,0.0,0.0,0.0,7.3046,7.2097,7.165,7.1836,7.1777,7.1781,7.1855,7.2592,7.3193,7.3514,7.2514,7.2283,7.2745,7.1398,7.1321,7.2168,7.2091,7.136,7.0244,7.0629,7.0552,7.0244,7.0244,7.0514,7.0871,7.0554,7.0463,7.0362,0.0,0.0,0.0,0.0,0.0,0.0,0.0,0.0,0.0,0.0,0.0,3.4583,3.4558,0.0,0.0,0.0,3.3175,3.3341,3.3959,3.4133,3.4327,3.4507,3.5136,3.5534,3.5604,3.5637,3.5669,3.5689,3.6774,3.9264,4.3035,4.4825,4.7685,5.1239,5.0228,4.8143,4.5357,4.5969,4.4116,4.0976,4.302,4.3299,4.2507,4.2473,4.2447,4.2615,4.3568,0.0,0.0,0.0,0.0,0.0,0.0,0.0,0.0,0.0,0.0,4.4925,5.251,0.0,6.2617,6.874,7.2832,7.5887,0.0,0.0,0.0,0.0,0.0,0.0,0.0,0.0,0.0,0.0,0.0,0.0,0.0,0.0,0.0,0.0,0.0,0.0,0.0,0.0,0.0,0.0,0.0,0.0,7.1908,7.0367,6.9737,7.0336,6.9975,6.9731,6.9655,7.076,7.1625,7.2206,7.0898,7.0591,7.1206,6.9937,6.9959,7.0988,7.0335,6.9721,6.9184,6.9184,6.9184,6.9184,6.9376,6.9836,7.0277,6.979,6.9579,6.9469,0.0,0.0,0.0,0.0,0.0,0.0,0.0,0.0,0.0,0.0,0.0,3.5509,3.543,3.5341,3.4995,3.4287,3.355,3.3098,3.3175,3.3886,3.4622,3.5419,3.5483,0.0,3.5584,3.5604,3.5626,3.5715,3.7362,3.9818,4.3073,4.5532,4.8367,5.133,5.1944,5.0976,4.8837,4.8762,4.7346,4.5243,4.6071,4.5515,4.4397,4.6598,4.6032,4.4315,0.0,0.0,0.0,0.0,0.0,0.0,0.0,0.0,0.0,0.0,0.0,0.0,0.0,5.2966,0.0,6.3334,6.7552,7.1227,0.0,0.0,0.0,0.0,0.0,0.0,0.0,0.0,0.0,0.0,0.0,0.0,0.0,0.0,0.0,0.0,0.0,0.0,0.0,0.0,0.0,0.0,0.0,7.1027,7.0257,6.8678,6.8041,6.8623,6.7179,6.6587,6.7088,6.7604,6.8143,6.8667,6.859,6.8552,6.859,6.8513,6.8244,6.7833,6.7795,6.7757,6.7719,6.7719,6.7719,6.7795,6.8564,6.8869,6.8841,6.8376,6.8184,6.803,0.0,0.0,0.0,0.0,0.0,0.0,0.0,0.0,0.0,0.0,0.0,0.0,0.0,3.4995,3.4571,3.4326,3.3561,3.3102,3.3161,3.3892,3.445,3.477,3.5288,3.5581,3.5648,3.5648,3.5697,3.5697,3.7362,3.9341,4.1524,4.4568,4.7414,5.0015,5.1763,5.1483,4.9708,5.0202,4.8438,4.5434,4.6724,4.6653,4.5821,4.6071,0.0,0.0,0.0,0.0,0.0,0.0,0.0,0.0,0.0,0.0,0.0,0.0,0.0,4.4713,0.0,0.0,0.0,5.8582,6.2698,6.6331,6.9078,0.0,0.0,0.0,0.0,0.0,0.0,0.0,0.0,0.0,0.0,0.0,0.0,0.0,0.0,0.0,0.0,0.0,0.0,0.0,0.0,0.0,0.0,0.0,6.8605,6.7504,6.6765,6.6468,6.5878,6.5998,6.6822,6.7014,6.7512,6.8398,6.8398,6.8398,6.8398,6.7821,6.746,6.7218,6.6041,6.5836,6.6329,6.6329,6.6329,6.6367,6.6632,6.7087,6.7505,6.6992,6.6818,6.6768,0.0,0.0,0.0,0.0,0.0,0.0,0.0,0.0,0.0,0.0,0.0,0.0,0.0,0.0,3.4969,3.4774,3.4279,3.3857,3.3606,3.4301,3.4781,3.4792,3.5322,3.5604,3.5637,3.5697,3.5697,3.5665,3.7069,3.8607,4.0222,4.3256,4.586,4.8025,5.0374,5.1269,5.0938,5.0859,4.9163,4.6663,0.0,0.0,4.7958,0.0,0.0,0.0,0.0,0.0,0.0,0.0,0.0,0.0,0.0,0.0,0.0,0.0,0.0,0.0,4.6708,0.0,0.0,0.0,5.8055,6.1211,6.4481,0.0,0.0,0.0,0.0,0.0,0.0,0.0,0.0,0.0,0.0,0.0,0.0,0.0,0.0,0.0,0.0,0.0,0.0,0.0,0.0,0.0,0.0,0.0,6.732,6.6256,6.5301,6.4494,6.4457,6.489,6.5714,6.5914,6.6284,6.6863,6.7345,6.7398,6.709,6.637,6.6078,6.6124,6.448,6.4292,6.5162,6.5007,6.4928,6.4966,6.5266,6.568,6.6165,6.5634,6.544,6.543,0.0,0.0,0.0,0.0,0.0,0.0,0.0,0.0,0.0,3.4453,0.0,0.0,0.0,0.0,0.0,3.5659,3.5693,3.5356,3.4466,3.514,3.5608,3.5623,3.5608,3.5558,3.5496,3.5654,3.5665,3.5611,3.6482,3.7732,3.9336,4.1879,4.3876,4.5477,4.7987,5.0412,5.2551,5.0786,4.9706,4.9343,0.0,5.1548,5.0979,0.0,0.0,0.0,5.4002,5.2254,0.0,0.0,0.0,0.0,0.0,0.0,0.0,0.0,0.0,0.0,0.0,0.0,0.0,0.0,0.0,0.0,6.1911,0.0,0.0,0.0,0.0,0.0,0.0,0.0,0.0,0.0,0.0,0.0,0.0,0.0,0.0,0.0,0.0,0.0,0.0,0.0,0.0,0.0,0.0,6.6439,6.6439,6.4897,6.3649,6.2805,6.2768,6.2988,6.3556,6.4061,6.4098,6.3733,6.5137,6.5397,6.4564,6.4087,6.4068,6.4294,6.2956,6.311,6.4294,6.3808,6.3587,6.3661,6.4443,6.4741,6.465,6.423,6.4053,6.3943,0.0,0.0,0.0,0.0,0.0,0.0,3.5394,3.5549,3.5604,0.0,0.0,0.0,3.6661,3.7266,3.7128,3.5724,3.6211,3.5941,3.4433,3.5129,3.5608,3.5623,3.5584,3.5596,3.5558,3.5608,3.5608,3.5611,3.7063,3.7951,3.8407,4.1016,4.3079,4.4648,4.5918,4.7527,4.9324,4.9281,0.0,5.0609,4.9923,5.1066,0.0,0.0,0.0,0.0,0.0,5.3199,5.1981,0.0,5.1303,5.0553,0.0,0.0,0.0,0.0,0.0,0.0,4.5396,0.0,0.0,0.0,0.0,0.0,5.3719,5.7548,0.0,0.0,0.0,0.0,0.0,0.0,0.0,0.0,0.0,0.0,0.0,0.0,0.0,0.0,0.0,0.0,0.0,0.0,0.0,0.0,6.6219,6.5375,6.4787,6.3759,6.2768,6.1961,6.1924,6.1929,6.1842,6.201,6.2183,6.2429,6.3154,6.3714,6.4058,6.3291,6.3352,6.3954,6.2255,6.2081,6.2949,6.3002,6.3014,6.3014,6.3272,6.3346,6.3346,6.3185,6.3172,6.3209,0.0,0.0,3.5593,3.5643,0.0,3.6207,3.6207,3.6207,3.63,0.0,0.0,0.0,3.7728,3.8551,3.8579,3.7283,3.6986,3.6562,3.5944,3.6009,3.6112,3.6087,3.6087,3.61,3.6061,3.5765,3.5945,3.6614,3.7244,3.791,3.8584,4.0462,4.2178,4.3782,4.4612,4.5669,4.6932,4.7286,0.0,0.0,5.0392,0.0,0.0,5.5973,5.6929,0.0,0.0,0.0,5.6118,5.4802,5.3188,0.0,0.0,0.0,0.0,0.0,0.0,0.0,0.0,0.0,0.0,0.0,0.0,0.0,5.1135,5.4341,5.7527,0.0,0.0,0.0,0.0,0.0,0.0,0.0,0.0,0.0,0.0,0.0,0.0,0.0,0.0,0.0,0.0,0.0,0.0,6.6035,6.4934,6.3906,6.3099,6.2585,6.1924,6.1117,6.108,6.1014,6.0863,6.1087,6.1154,6.1055,6.1902,6.2401,6.2553,6.1822,6.1946,6.2667,6.1106,6.0826,6.1559,6.1739,6.2218,6.2805,6.2805,6.2805,6.2805,6.2805,6.2805,6.2879,0.0,0.0,3.5623,3.5736,3.6455,3.7058,3.7162,3.7162,3.7448,0.0,3.7797,3.7963,3.9552,4.0323,4.0414,3.9609,3.8028,3.7372,3.8028,3.7346,3.6934,3.6934,3.6934,3.692,3.6853,3.619,3.6575,3.8007,3.7382,3.7844,3.9315,4.0123,4.1399,4.3017,4.3806,4.4595,4.5398,4.5551,0.0,4.7783,5.1825,5.3772,0.0,0.0,6.2907,0.0,6.2105,6.1841,6.09,5.6545,5.304,0.0,0.0,0.0,0.0,0.0,4.6359,0.0,0.0,0.0,0.0,0.0,0.0,0.0,5.1544,5.3353,5.5066,0.0,0.0,0.0,0.0,0.0,0.0,0.0,0.0,0.0,0.0,0.0,0.0,0.0,0.0,0.0,0.0,6.5448,6.4971,6.4787,6.3392,6.2218,6.1484,6.1484,6.108,6.0309,6.0272,6.0236,6.0126,6.0604,6.0455,5.9669,6.0942,6.1202,6.0599,6.0112,6.0282,6.0986,5.9669,5.9538,6.0272,6.0272,6.1227,6.2695,6.2695,6.2732,6.2805,6.2805,6.2805,6.2805,3.5547,3.5572,3.5828,3.6532,3.7356,3.8156,3.8749,3.8891,3.9187,3.9923,4.0485,4.1216,4.2255,4.187,4.1232,4.0453,3.9413,3.8604,3.8064,3.7872,3.7781,3.7791,3.7791,3.7738,3.7738,3.7599,3.7676,3.8007,3.8561,3.8984,3.9315,4.013,4.1366,4.3,4.3005,4.3866,4.5413,0.0,0.0,4.8405,5.0998,0.0,5.9564,6.061,6.2537,6.4684,6.4632,6.4563,6.3962,0.0,5.742,5.426,0.0,0.0,0.0,0.0,0.0,0.0,0.0,0.0,0.0,0.0,0.0,0.0,4.7893,5.0214,5.2602,0.0,0.0,0.0,0.0,0.0,0.0,0.0,0.0,0.0,0.0,0.0,0.0,0.0,0.0,0.0,0.0,6.3392,6.2768,6.1447,6.1043,6.0823,6.0639,6.0639,6.0272,5.9465,5.9428,5.9134,5.8474,5.8575,5.8547,5.8363,5.9041,5.9622,6.0108,5.9316,5.9424,6.017,5.8821,5.8694,5.9428,5.9428,6.0382,6.1814,6.1814,6.2218,6.2805,6.2805,6.2805,6.2805,3.5612,3.6267,3.687,3.6868,3.8322,3.9482,3.9341,3.9741,4.0331,4.1093,4.2261,4.3052,4.3052,4.3052,4.2722,4.1925,4.1694,4.1276,4.0499,4.0356,3.9955,3.9237,3.8839,3.8661,3.8661,3.8238,3.8392,3.9238,3.9277,3.9508,3.99,4.0713,4.1754,4.2908,4.3254,4.4554,4.6505,0.0,4.7829,4.967,5.2909,0.0,5.961,6.248,6.4651,6.6173,6.6846,6.6591,6.5291,6.1476,5.8799,0.0,0.0,5.1262,5.0525,0.0,4.8029,4.8074,0.0,0.0,0.0,4.5795,0.0,0.0,0.0,4.9537,5.0757,0.0,0.0,0.0,0.0,0.0,0.0,0.0,0.0,0.0,0.0,0.0,0.0,0.0,0.0,0.0,0.0,6.2218,6.1704,6.0493,6.0419,6.0236,5.9832,5.9795,5.9428,5.8621,5.8621,5.84,5.7997,5.7997,5.7997,5.7997,5.8238,5.8554,5.9005,5.8554,5.8554,5.9005,5.8281,5.8217,5.8621,5.8621,5.9538,6.1043,6.1447,6.2108,6.2805,6.2805,6.2805,6.2805,3.5894,3.7038,3.7951,3.7486,3.9289,4.063,4.0204,4.0745,4.1451,4.2264,4.3799,4.4612,4.4116,4.4748,4.4921,4.4192,4.451,4.4407,0.0,0.0,0.0,4.134,4.0329,3.9777,3.9777,3.8931,3.9123,4.0508,3.9854,3.9861,4.0504,4.114,4.1893,4.2833,4.3522,4.5204,4.7559,0.0,0.0,5.145,0.0,5.7379,5.8428,6.3928,6.6459,6.7258,6.844,6.8092,6.6276,6.1677,0.0,5.812,5.345,5.2456,0.0,0.0,0.0,0.0,0.0,0.0,0.0,0.0,0.0,4.6724,0.0,0.0,0.0,0.0,0.0,0.0,0.0,0.0,0.0,0.0,0.0,0.0,0.0,0.0,0.0,0.0,0.0,0.0,0.0,6.043,6.0052,5.9722,5.9428,5.9171,5.8988,5.8988,5.8694,5.8033,5.7997,5.7997,5.7997,5.7997,5.7997,5.7997,5.7997,5.7997,5.7997,5.7997,5.7997,5.7997,5.7997,5.7997,5.7997,5.7997,5.8951,6.0456,6.1117,6.1961,6.2805,6.2805,6.2805,6.2805,3.6764,3.7525,3.8414,3.9093,4.0024,4.117,4.2555,4.2825,4.3196,4.391,4.5547,4.6954,0.0,0.0,0.0,0.0,0.0,0.0,4.5759,0.0,0.0,4.4478,4.2583,4.1508,4.1508,4.0662,4.03,4.0499,4.0422,4.0389,4.0415,4.0366,4.1227,4.2795,4.2709,0.0,0.0,0.0,4.9487,0.0,5.6973,5.8162,0.0,6.1964,6.515,6.787,6.8641,6.8806,6.8017,0.0,6.1973,6.0419,0.0,5.3981,0.0,0.0,0.0,0.0,0.0,0.0,0.0,0.0,4.8196,0.0,0.0,0.0,0.0,0.0,0.0,0.0,0.0,0.0,0.0,0.0,0.0,0.0,0.0,0.0,0.0,0.0,0.0,0.0,0.0,0.0,5.5757,5.7116,5.5904,5.5978,5.8033,5.8143,5.8107,5.7997,5.7997,5.7997,5.7997,5.7997,5.7997,5.7997,5.7997,5.7997,5.7997,5.7997,5.7997,5.7997,5.7997,5.7997,5.7997,5.7997,5.8951,6.0419,6.0493,6.1484,6.2805,6.2805,6.2805,6.2805,3.6226,3.7243,3.8337,3.867,3.9869,4.0965,4.1658,4.2995,4.4222,4.4897,4.6454,4.8711,0.0,0.0,0.0,0.0,0.0,5.0885,0.0,0.0,4.7041,0.0,0.0,0.0,4.3535,4.1953,4.1144,4.1126,4.0663,4.0398,4.0289,4.073,4.1552,0.0,4.2959,0.0,4.8579,0.0,5.0333,0.0,0.0,0.0,0.0,6.4308,6.7234,6.8532,6.8788,6.8568,6.7504,0.0,6.1617,0.0,0.0,0.0,0.0,0.0,0.0,0.0,0.0,0.0,0.0,0.0,0.0,0.0,0.0,0.0,4.7319,0.0,0.0,0.0,0.0,0.0,0.0,0.0,0.0,0.0,0.0,0.0,0.0,0.0,0.0,0.0,0.0,0.0,0.0,0.0,0.0,5.5101,5.614,5.6919,5.7079,5.6602,5.7519,5.7776,5.7299,5.7776,5.7997,5.7997,5.7997,5.8142,5.8418,5.8418,5.8418,5.8418,5.8418,5.8238,5.7997,5.7997,5.8951,6.0419,6.0419,6.1374,6.2805,6.2805,6.2805,6.2805,3.6433,3.7513,3.862,3.8851,3.9946,4.09,4.1299,0.0,0.0,0.0,0.0,0.0,5.6154,5.4975,0.0,0.0,0.0,5.6588,0.0,0.0,5.0071,0.0,0.0,0.0,0.0,4.3558,4.2466,4.2466,4.1495,4.0959,4.0864,4.1495,4.2201,4.2942,0.0,4.6201,5.0165,0.0,0.0,5.6103,5.7348,5.9144,6.1534,6.6175,6.8193,6.8529,6.8311,6.7871,6.6733,6.2487,6.1532,0.0,5.7816,0.0,0.0,0.0,0.0,0.0,5.2567,0.0,0.0,0.0,0.0,0.0,0.0,0.0,0.0,0.0,0.0,0.0,0.0,0.0,0.0,0.0,0.0,0.0,0.0,0.0,0.0,0.0,0.0,0.0,0.0,0.0,0.0,0.0,0.0,0.0,5.4788,5.5723,5.614,5.5941,5.7042,5.7483,5.7152,5.7703,5.7997,5.7997,5.8142,5.8375,5.8676,5.8835,5.8913,5.8874,5.8756,5.8545,5.8186,5.8309,5.9171,6.0419,6.0639,6.1594,6.2805,6.2805,6.2805,6.2805,3.8119,3.8851,0.0,0.0,0.0,0.0,0.0,0.0,0.0,0.0,0.0,0.0,0.0,0.0,0.0,0.0,0.0,6.4832,5.8591,0.0,5.3904,0.0,0.0,4.7413,0.0,0.0,4.4662,4.4588,4.3292,4.2595,4.2514,4.2514,4.2917,4.3798,4.4554,4.7342,5.1595,5.2275,5.5959,6.1447,6.2238,6.4532,6.7279,0.0,6.6432,6.7614,6.6859,0.0,0.0,6.3562,6.2735,0.0,0.0,0.0,0.0,0.0,0.0,0.0,0.0,0.0,0.0,5.2699,0.0,0.0,0.0,0.0,4.7682,0.0,0.0,0.0,0.0,0.0,0.0,4.5103,0.0,0.0,0.0,0.0,0.0,0.0,0.0,0.0,0.0,0.0,0.0,0.0,0.0,0.0,5.4515,5.4778,5.5433,5.6712,5.6822,5.7189,5.796,5.7997,5.7997,5.7997,5.8461,5.8713,5.8753,5.9176,5.9389,5.9354,5.8913,5.8713,5.8669,5.9034,5.9648,6.0493,6.1263,6.2071,6.2805,6.2805,6.2805,6.2805,4.0351,4.0308,0.0,0.0,0.0,0.0,0.0,4.6586,0.0,0.0,0.0,0.0,0.0,0.0,7.1791,0.0,0.0,6.9429,6.5602,6.1846,0.0,0.0,0.0,5.1921,0.0,0.0,4.6977,4.6832,4.4004,4.3073,4.392,4.2936,4.2927,4.3757,0.0,4.724,0.0,0.0,0.0,0.0,0.0,6.615,6.7141,0.0,0.0,6.6875,6.6565,6.6161,0.0,6.4097,6.3247,6.2485,6.0627,5.9676,5.8981,5.7703,5.7729,0.0,0.0,0.0,5.9071,5.6166,0.0,0.0,0.0,0.0,0.0,0.0,0.0,0.0,0.0,0.0,4.6732,4.4987,4.4121,0.0,0.0,0.0,0.0,0.0,0.0,0.0,0.0,0.0,0.0,0.0,0.0,0.0,0.0,5.2862,5.3842,5.3628,5.5684,5.7074,5.7645,5.8201,5.8632,5.8951,5.9065,5.9319,5.9625,5.9792,5.9855,5.9855,5.9354,5.899,5.8673,5.8481,5.8877,5.9685,6.0493,6.13,6.2071,6.2622,6.2805,6.2805,4.2698,4.1831,0.0,0.0,0.0,0.0,0.0,0.0,0.0,0.0,6.2447,0.0,7.6383,0.0,7.8278,0.0,7.9312,7.4867,7.0073,6.7067,0.0,6.0933,5.8221,0.0,0.0,0.0,5.0471,4.9477,4.6186,4.4877,4.5406,4.3956,4.3582,4.408,0.0,4.7808,5.1751,0.0,5.8601,0.0,0.0,6.6972,0.0,0.0,6.6733,6.6035,0.0,6.5279,6.4779,6.3929,6.3108,6.2215,6.1126,6.0444,5.9688,5.8354,5.8914,5.9806,5.9024,6.0162,0.0,0.0,5.7943,0.0,5.4459,0.0,0.0,0.0,0.0,0.0,0.0,0.0,0.0,4.5677,4.4041,4.2875,0.0,4.0881,0.0,0.0,0.0,0.0,0.0,0.0,0.0,0.0,0.0,0.0,0.0,0.0,5.252,5.2013,5.484,5.6669,5.7237,5.8223,5.8835,5.9139,5.9492,5.9823,6.0103,6.0283,6.0338,6.0311,5.9696,5.9212,5.8913,5.8534,5.8731,5.9318,6.0419,6.1153,6.1704,6.2511,6.2805,6.2842,4.4995,4.3311,0.0,0.0,4.3978,0.0,0.0,0.0,5.9628,0.0,6.6358,7.3326,7.6618,8.0493,8.4044,8.6921,8.5747,0.0,7.2532,7.2079,0.0,0.0,6.2398,6.1919,6.0786,0.0,0.0,0.0,0.0,4.7747,4.7027,4.5595,4.4876,4.4838,4.6619,0.0,5.2057,5.6692,6.0433,6.3527,6.65,6.7193,6.6443,6.6381,0.0,6.5091,6.4369,6.403,6.3823,6.2989,6.223,6.1544,6.1495,6.0456,5.9053,5.8263,5.8621,5.9087,5.8364,5.9869,6.108,5.8767,0.0,0.0,0.0,0.0,5.4912,0.0,0.0,0.0,0.0,0.0,0.0,4.6893,4.3885,4.129,3.9859,0.0,0.0,0.0,0.0,0.0,0.0,0.0,0.0,0.0,0.0,0.0,0.0,0.0,5.1491,5.1981,5.4326,5.6014,5.6904,5.8095,5.8753,5.8756,5.9728,6.0132,6.0161,6.0597,6.0781,6.0734,5.9823,5.9389,5.9359,5.9183,5.9171,5.9318,6.0896,6.1594,6.1741,6.2511,6.2842,6.2989,4.5209,4.379,4.2887,0.0,4.4975,4.7038,0.0,0.0,0.0,0.0,6.9818,7.5894,8.2802,8.7059,8.9488,8.9674,8.8757,0.0,0.0,0.0,0.0,7.2532,7.0128,6.7941,6.586,6.1255,0.0,5.7402,0.0,0.0,4.9284,4.7446,4.6239,4.5759,0.0,0.0,5.2748,5.6285,6.0516,6.4934,6.6884,6.6884,0.0,0.0,6.4177,6.3474,6.3929,6.3282,6.223,6.1972,6.1372,6.0604,5.9979,5.9522,5.9053,5.8263,5.8988,6.0041,5.9822,6.1129,6.2218,6.097,6.097,6.0786,0.0,0.0,0.0,0.0,0.0,0.0,0.0,0.0,0.0,0.0,4.2482,0.0,0.0,0.0,0.0,0.0,0.0,0.0,0.0,0.0,0.0,0.0,0.0,0.0,0.0,0.0,0.0,5.2069,5.4412,5.6418,5.8211,5.8877,5.9389,5.976,6.0338,6.0622,6.0622,6.0757,6.0622,6.0255,5.9663,5.9176,5.8872,5.846,5.8327,5.8474,6.0089,6.1447,6.2511,6.2732,6.3209,6.3796,4.6366,0.0,0.0,4.4709,0.0,0.0,5.3459,0.0,0.0,6.703,7.3972,0.0,8.2039,8.7982,9.162,9.1179,9.0078,0.0,0.0,0.0,0.0,7.624,7.4368,7.2112,6.9301,6.4669,0.0,5.9339,0.0,0.0,5.0253,4.8135,4.6895,4.6539,0.0,5.0417,5.219,5.663,6.0937,6.4908,6.6117,0.0,0.0,6.4301,6.3553,6.2879,6.3342,6.2682,6.1618,6.1592,6.081,5.9822,5.9322,5.9208,5.9127,5.8676,5.9659,6.0945,6.0946,6.1825,6.2695,6.2254,6.2352,6.2192,6.0652,6.053,6.0152,0.0,0.0,0.0,0.0,0.0,0.0,0.0,0.0,0.0,0.0,0.0,0.0,0.0,0.0,0.0,0.0,0.0,0.0,0.0,0.0,0.0,0.0,0.0,0.0,5.0523,5.4275,5.6836,5.8025,5.9628,6.0433,6.0425,6.0674,6.0781,6.0781,6.0781,6.0533,6.0074,5.9592,5.9102,5.8673,5.8194,5.8217,5.8694,6.0309,6.1924,6.3356,6.3356,6.3686,6.4163,4.7969,0.0,0.0,0.0,0.0,0.0,0.0,6.4624,0.0,6.9199,0.0,8.3051,7.9106,8.6513,9.1803,9.1803,0.0,8.7986,8.4278,8.3838,8.1636,7.6937,7.6644,7.5065,7.1835,6.7671,0.0,0.0,0.0,0.0,5.0576,4.8408,4.7304,4.7207,0.0,0.0,0.0,5.739,6.1329,6.3877,6.4736,6.4728,6.4081,6.397,6.3443,6.2805,6.2805,6.2242,6.1409,6.1409,6.0347,5.9066,5.9018,5.9091,5.9191,5.9081,6.0257,6.1581,6.1496,6.2108,6.2805,6.2805,6.3392,6.3356,6.1227,6.1263,6.13,5.9685,5.871,0.0,0.0,0.0,0.0,0.0,0.0,0.0,0.0,0.0,0.0,0.0,0.0,0.0,0.0,0.0,0.0,0.0,0.0,0.0,0.0,0.0,0.0,4.9159,5.4101,0.0,5.7888,0.0,6.1349,6.1031,6.0889,6.0781,6.0781,6.0781,6.0508,5.9977,5.9559,5.9065,5.8591,5.8186,5.8547,5.9538,6.1006,6.2622,6.409,6.42,6.431,6.4604,0.0,0.0,0.0,0.0,0.0,5.9089,6.7246,6.7449,6.8948,7.5198,8.0738,0.0,8.4506,8.8864,9.1803,9.1803,9.0959,0.0,0.0,0.0,0.0,8.0277,7.9507,7.7609,7.4348,6.9169,6.5763,0.0,0.0,0.0,5.1908,5.0002,4.8671,4.8084,5.0434,0.0,5.541,5.8312,0.0,6.2181,6.3663,6.4214,6.4053,6.3282,6.2915,6.2805,6.2805,6.1887,6.0591,6.0591,5.9527,5.8207,5.8244,5.8688,5.9054,5.8421,5.9835,6.1459,6.0762,6.1691,6.2805,6.2805,6.2915,6.2915,6.2475,6.2511,6.2144,6.0529,6.0089,5.9307,5.7198,0.0,0.0,0.0,0.0,0.0,0.0,0.0,0.0,0.0,0.0,0.0,0.0,0.0,0.0,0.0,0.0,0.0,0.0,0.0,0.0,0.0,0.0,0.0,0.0,0.0,6.0653,6.2292,6.1301,6.0781,6.0781,6.0781,6.0338,5.9526,5.9424,5.8913,5.8097,5.8042,5.8877,6.0272,6.1227,6.2622,6.4163,6.4861,6.5521,6.6109,0.0,0.0,0.0,0.0,0.0,0.0,0.0,7.4772,0.0,7.9682,8.2518,8.4396,8.4632,8.8974,9.1803,9.1803,9.0702,8.9674,8.8867,8.6151,8.3691,8.1709,8.0057,0.0,7.5556,7.0543,6.701,6.5251,0.0,0.0,0.0,5.1095,5.009,4.9384,0.0,5.2827,0.0,0.0,0.0,6.0551,6.2598,6.3392,6.3379,6.2989,6.2805,6.2805,6.2805,6.2022,6.0995,6.0529,5.9916,5.9171,5.8757,5.948,6.0384,6.0005,6.1006,6.2118,6.1765,6.2205,6.2805,6.2805,6.2805,6.2805,6.2805,6.2475,6.2071,6.1741,6.0676,5.9124,5.7015,5.3396,0.0,0.0,0.0,0.0,0.0,0.0,0.0,0.0,0.0,0.0,0.0,0.0,0.0,0.0,0.0,0.0,0.0,0.0,0.0,0.0,0.0,0.0,0.0,0.0,0.0,6.1202,6.093,6.0781,6.0781,6.0781,6.043,5.976,5.9492,5.9028,5.8369,5.8575,5.9318,6.0529,6.1741,6.3246,6.4824,6.5632,6.6439,6.71,0.0,5.2635,0.0,0.0,6.1911,0.0,0.0,8.1132,8.4816,8.4278,8.5343,8.5894,8.527,8.8977,9.1546,9.1546,9.0078,8.9014,8.8683,8.538,8.2884,8.1746,7.969,7.7793,7.613,7.1552,6.7888,0.0,0.0,0.0,0.0,0.0,0.0,0.0,0.0,0.0,0.0,0.0,5.7634,5.989,6.1961,6.2805,6.2805,6.2805,6.2805,6.2805,6.2805,6.2388,6.1752,6.0945,6.054,6.0309,5.9663,6.0444,6.1569,6.1385,6.2058,6.2768,6.2585,6.2695,6.2805,6.2805,6.2805,6.2805,6.2805,6.2181,6.1741,6.2218,6.0529,5.839,5.6731,5.4069,0.0,0.0,0.0,0.0,0.0,0.0,0.0,0.0,0.0,0.0,0.0,0.0,0.0,0.0,0.0,0.0,0.0,0.0,0.0,0.0,0.0,5.5509,5.7332,0.0,6.1248,0.0,6.07,6.0781,6.0781,6.0781,6.0482,5.9916,5.9559,5.9178,5.8842,5.9099,5.9795,6.0786,6.2071,6.3576,6.5118,6.5742,6.6586,6.743,0.0,0.0,0.0,0.0,0.0,0.0,0.0,8.2095,8.7059,9.0445,9.1033,9.1106,9.1033,9.0849,9.0702,9.0702,8.9234,8.7692,8.6224,8.4425,8.2406,8.0094,7.9103,7.7793,7.613,7.2071,6.8394,0.0,0.0,0.0,0.0,0.0,0.0,0.0,0.0,0.0,0.0,5.7094,5.9329,6.1459,6.2401,6.2805,6.2805,6.2805,6.2805,6.2805,6.2805,6.2768,6.2585,6.1741,6.1006,6.0419,6.0286,6.0909,6.1459,6.0738,6.163,6.2658,6.1924,6.2254,6.2805,6.2805,6.2805,6.2805,6.2805,6.2181,6.141,6.075,5.9281,5.7629,5.5978,5.5888,5.4715,0.0,0.0,0.0,0.0,0.0,0.0,0.0,0.0,0.0,0.0,0.0,0.0,0.0,0.0,0.0,0.0,0.0,0.0,5.0787,0.0,5.4652,6.1014,5.954,0.0,6.2315,6.1301,6.0781,6.0781,6.0781,6.0311,5.9458,5.9424,5.9285,5.9145,5.9171,6.0126,6.1484,6.163,6.2732,6.42,6.431,6.5301,6.6623,0.0,0.0,0.0,0.0,0.0,0.0,0.0,8.6507,9.0039,9.1583,9.1803,9.162,9.1143,9.0812,9.0408,8.9931,8.8426,8.7215,8.6554,8.3654,8.1525,8.0571,7.8809,7.7463,7.6839,7.3377,6.9944,0.0,0.0,0.0,0.0,0.0,0.0,0.0,0.0,5.4133,5.6735,5.7707,5.9467,6.1716,6.3038,6.3883,6.431,6.4324,6.3994,6.3553,6.3576,6.3246,6.2768,6.2438,6.2108,6.1777,6.1251,6.1691,6.2278,6.1961,6.2328,6.2622,6.1814,6.2181,6.2695,6.2218,6.2438,6.2805,6.2805,6.1814,6.0933,6.108,5.9832,5.84,5.7262,5.6447,5.553,0.0,0.0,0.0,0.0,0.0,0.0,0.0,0.0,0.0,0.0,0.0,0.0,0.0,0.0,0.0,0.0,0.0,0.0,4.8122,0.0,5.3757,5.6734,5.9076,6.022,6.0152,6.0585,6.105,6.155,6.0738,5.9885,5.899,5.899,5.9074,5.9208,5.9208,6.0162,6.163,6.2144,6.3062,6.4163,6.464,6.5228,6.5852,7.0344,0.0,7.1574,0.0,7.9547,8.3006,8.522,8.8717,9.1106,9.1106,9.1289,9.1216,9.0665,9.0188,8.9674,8.9124,8.7582,8.6554,8.6334,8.3177,8.1158,8.0681,7.8736,0.0,7.7341,7.4625,7.1561,6.8268,6.5124,0.0,0.0,0.0,0.0,0.0,5.4075,5.6051,5.8731,5.9171,6.0687,6.2781,6.3957,6.4802,6.5301,6.5316,6.4802,6.4117,6.4104,6.3503,6.2805,6.2805,6.2805,6.2695,6.2144,6.2365,6.2768,6.2511,6.2438,6.2291,6.1484,6.1814,6.2254,6.1447,6.1851,6.2438,6.2438,6.141,6.0493,6.0823,5.9795,5.8694,5.8107,5.7079,5.6345,5.6328,0.0,0.0,0.0,0.0,0.0,0.0,0.0,4.3054,4.416,0.0,0.0,0.0,0.0,0.0,0.0,0.0,0.0,0.0,0.0,0.0,0.0,5.8713,6.0031,5.8559,6.0217,6.1288,6.1864,6.0781,5.9685,5.8713,5.8809,5.9095,5.9575,5.9575,6.0493,6.1998,6.2328,6.2989,6.3796,6.4383,6.4751,6.5044,7.6276,7.5909,7.6607,8.2296,8.3985,8.4572,8.4609,8.7362,8.9454,8.9454,9.0115,9.0629,9.0592,8.9197,8.8243,8.8206,8.6738,8.549,8.4682,8.3104,8.1489,0.0,0.0,7.8185,7.7341,7.5726,7.3309,7.0052,0.0,0.0,5.9419,0.0,5.7265,5.5684,5.8904,6.0334,6.0493,6.2077,6.3701,6.5294,6.5249,6.5286,6.5301,6.5301,6.4772,6.4075,6.4117,6.3516,6.2805,6.2805,6.2805,6.2805,6.2805,6.2805,6.2658,6.1851,6.1594,6.1447,6.0639,6.1006,6.141,6.0639,6.1006,6.1594,6.1594,6.097,6.0199,5.9391,5.8584,5.7997,5.7997,5.796,5.7446,5.5868,0.0,0.0,0.0,0.0,0.0,0.0,4.592,4.554,4.3952,0.0,0.0,0.0,0.0,0.0,0.0,0.0,0.0,4.9824,5.3236,0.0,5.7063,5.8458,5.8988,5.8716,6.053,6.1391,6.1391,6.0913,5.9965,5.871,5.9079,5.9648,6.0382,6.0382,6.1337,6.2732,6.1924,6.2108,6.2842,6.2842,6.3392,6.4127,8.0131,8.1562,8.3067,8.5453,8.6518,8.7252,8.7802,8.8757,8.9601,9.0152,8.9491,8.916,8.9748,8.9344,8.8353,0.0,8.56,8.4646,0.0,8.2296,8.1158,8.0645,7.9323,7.8479,7.8185,7.6582,7.4125,7.0919,0.0,0.0,0.0,5.9255,5.8887,5.8951,6.0529,6.2181,6.3796,6.4317,6.5124,6.6109,6.6129,6.6459,6.6953,6.6953,6.6439,6.5683,6.5132,6.4383,6.3613,6.3025,6.2805,6.2805,6.2805,6.2805,6.2658,6.1851,6.1998,6.1998,6.0126,6.0566,6.141,6.0603,6.0603,6.0933,6.1484,6.0566,5.9355,5.8547,5.818,5.7997,5.7997,5.7997,5.7629,5.6475,0.0,0.0,0.0,0.0,0.0,0.0,0.0,4.397,0.0,4.3623,0.0,0.0,0.0,0.0,0.0,0.0,0.0,0.0,5.2705,0.0,5.6073,5.8557,5.9393,5.8713,6.0186,6.0972,6.1205,6.1089,6.0608,5.9817,5.9412,5.9979,6.1227,6.1227,6.1851,6.2768,6.2511,6.2585,6.2805,6.2805,6.2989,6.3356,8.2847,8.4792,8.6518,8.7325,8.7876,8.839,8.8867,8.872,8.8683,8.9197,8.8647,8.828,8.85,8.8793,0.0,8.6407,8.5233,8.4389,8.3875,8.2333,8.1342,8.1012,7.9764,7.8919,7.8589,0.0,0.0,7.3141,7.1027,6.7432,6.2581,6.2132,6.2365,6.3172,6.398,6.5375,6.71,6.6753,6.69,6.7393,6.7083,6.723,6.7687,6.7687,6.7226,6.6381,6.561,6.4751,6.398,6.3099,6.2805,6.2805,6.2805,6.2805,6.2585,6.1484,6.152,6.152,5.9722,6.0162,6.097,6.0162,6.0199,6.0529,6.1043,6.0162,5.9171,5.8951,5.8437,5.7997,5.7997,5.7997,5.7813,5.7208,0.0,5.5566,0.0,0.0,0.0,0.0,0.0,0.0,0.0,4.4884,0.0,0.0,0.0,0.0,0.0,0.0,0.0,4.9897,5.4216,0.0,5.6581,5.8751,5.9361,5.8461,6.0073,6.0937,6.1172,6.147,6.1204,6.0382,5.9869,6.0382,6.1594,6.1594,6.2071,6.2805,6.2805,6.2805,6.2805,6.2805,6.2805,6.2952,8.4535,8.593,0.0,0.0,8.8133,0.0,8.8133,8.7472,8.7031,8.7105,8.7692,8.7839,8.7105,8.7619,8.7729,8.6921,0.0,0.0,0.0,8.303,8.1819,8.1048,8.0241,0.0,7.8626,7.7781,7.69,7.6019,7.2149,6.9082,6.6846,6.6769,6.719,6.7981,6.8678,6.9449,7.0146,6.9339,6.8972,6.8825,6.8091,6.7724,6.7687,6.7687,6.7263,6.6455,6.5573,6.4839,6.4016,6.3135,6.2805,6.2805,6.2805,6.2805,6.2475,6.086,6.0493,6.0382,5.9465,5.9832,6.0309,5.9575,5.9942,6.0456,6.0419,5.9795,5.9428,6.0162,5.9098,5.7997,5.7997,5.7997,5.796,5.7923,5.6528,5.4796,5.3097,0.0,0.0,0.0,0.0,0.0,0.0,4.6652,4.7645,0.0,0.0,0.0,0.0,0.0,5.0046,5.2259,5.6953,5.9005,5.8215,5.8989,5.9016,5.8253,6.0277,6.1241,6.1316,6.2023,6.1678,6.0566,6.0529,6.0933,6.1667,6.1667,6.2108,6.2805,6.2805,6.2805,6.2805,6.2805,6.2805,6.2879,0.0,0.0,8.7068,8.7252,8.7288,8.7288,8.7288,8.7142,8.7215,8.7839,8.7545,8.7215,8.7031,8.6628,8.604,8.5233,8.4829,8.4095,8.2847,8.2406,8.1819,8.1048,8.0241,7.9396,7.8626,7.7781,7.6582,7.5189,7.301,7.1301,7.0124,6.9577,6.965,7.044,7.0,7.0257,7.0954,7.0146,6.9449,6.8898,6.8678,6.8238,6.7687,6.7687,6.7577,6.721,6.5778,6.5191,6.4787,6.3319,6.2805,6.2805,6.2805,6.2805,6.2475,6.086,6.1263,6.1814,5.9758,6.0236,6.1263,6.108,6.119,6.1153,6.0529,5.9795,5.9281,5.9465,5.8694,5.7997,5.7997,5.7997,5.7813,5.7189,5.5244,5.3225,5.1532,4.9038,0.0,0.0,4.6838,4.6948,4.7131,4.7352,4.8015,0.0,0.0,0.0,0.0,5.2103,5.239,5.2978,5.5919,5.7684,5.8042,5.8851,5.9769,6.075,6.1261,6.1835,6.2424,6.1982,6.196,6.2218,6.1594,6.1777,6.2511,6.2511,6.2658,6.2805,6.2805,6.2805,6.2805,6.2805,6.2805,6.2952,8.6334,8.6701,8.6995,8.6995,8.6995,8.6995,8.6995,8.6995,8.7178,8.7582,8.7288,8.6995,8.6995,8.6628,8.6004,8.5233,8.4792,8.4058,8.2847,8.2737,8.2223,8.1048,8.0241,7.9396,7.8626,7.7781,7.6692,7.5458,7.4588,7.3707,7.2951,7.2129,7.1982,7.2349,7.1578,7.1431,7.1798,7.0991,7.0403,6.9926,6.9192,6.8641,6.8201,6.7834,6.7467,6.699,6.5742,6.5081,6.4516,6.3246,6.2805,6.2805,6.2805,6.2805,6.2585,6.13,6.1557,6.1961,6.0639,6.0933,6.1594,6.1594,6.13,6.1043,6.097,6.0346,5.9869,6.0236,5.9355,5.8547,5.8547,5.8253,5.7483,5.5941,5.4332,5.2463,5.011,4.8272,0.0,4.772,4.805,4.8563,4.937,4.9738,5.0034,5.0335,0.0,0.0,5.2177,5.3524,5.4289,5.4289,5.6271,5.774,5.8547,5.9355,6.0304,6.1394,6.1763,6.2316,6.2947,6.2917,6.2963,6.3131,6.2318,6.2288,6.2768,6.2401,6.2475,6.2805,6.2805,6.2805,6.2805,6.2805,6.2805,6.2952,8.6995,8.6995,8.6995,8.6995,8.6995,8.6995,8.6995,8.6995,8.6958,8.6848,8.6921,8.6921,8.6664,8.6775,8.6481,8.5673,8.4976,8.4278,8.3471,8.3398,8.2627,8.0901,8.0167,7.936,7.8405,7.7708,7.6913,7.6093,7.6093,7.5712,7.4918,7.4206,7.3839,7.367,7.312,7.2753,7.2459,7.1908,7.1541,7.1174,6.9706,6.9009,6.8825,6.8017,6.7283,6.6586,6.5778,6.5044,6.4296,6.3356,6.2989,6.2952,6.2842,6.2805,6.2695,6.1998,6.1851,6.1924,6.1667,6.1704,6.1777,6.1777,6.1263,6.0933,6.163,6.1153,6.0786,6.1447,6.0419,5.9355,5.9245,5.8547,5.7262,5.4993,5.3681,5.1956,4.9084,0.0,4.7942,4.8751,4.9743,5.0618,5.1463,5.2637,5.2637,5.0802,5.2344,5.2931,0.0,5.4473,5.6014,5.6124,5.7483,5.8621,5.9575,6.0331,6.0987,6.1544,6.2342,6.2928,6.335,6.403,6.4099,6.3556,6.2886,6.2641,6.2768,6.2071,6.2181,6.2805,6.2805,6.2805,6.2805,6.2805,6.2805,6.2952,8.6885,8.6995,8.6995,8.6995,8.6995,8.6995,8.6995,8.6995,8.6775,8.6077,8.6591,8.6481,8.5123,8.5563,8.5673,8.4866,8.4682,8.4278,8.3471,8.3398,8.237,8.0094,7.9874,7.9066,7.7561,7.7378,7.6913,7.6093,7.6118,7.5678,7.4872,7.4775,7.4395,7.3707,7.4294,7.378,7.2532,7.3083,7.2532,7.1248,7.0293,6.9522,6.8825,6.8017,6.7614,6.7393,6.6586,6.6219,6.5904,6.4369,6.387,6.3787,6.3025,6.2805,6.2805,6.2658,6.3135,6.3392,6.1961,6.2108,6.2622,6.2622,6.2548,6.2475,6.2585,6.1998,6.1447,6.1557,6.086,6.0015,5.9355,5.8547,5.7455,5.5945,5.3212,5.0927,4.9824,0.0,4.9597,5.0365,5.2344,5.3959,5.4766,5.4473,5.462,5.5611,5.4766,5.4987,5.6785,5.7373,5.7923,5.8621,5.8877,5.9722,6.119,6.1826,6.2464,6.3221,6.3834,6.4105,6.4181,6.4332,6.4099,6.3593,6.3482,6.316,6.2805,6.2695,6.2695,6.2805,6.2805,6.2805,6.2805,6.2805,6.2805,6.2952,8.6848,8.6995,8.6995,8.6995,8.6995,8.6995,8.6995,8.6995,8.6885,8.6481,8.6775,8.6738,8.5967,8.6224,8.6297,8.593,8.549,8.4903,8.4095,8.3654,8.2333,7.991,7.98,7.9029,7.7378,7.7304,7.7096,7.6766,7.6766,7.6582,7.6179,7.5715,7.5372,7.4992,7.4955,7.4258,7.3156,7.3523,7.301,7.1835,7.0587,6.9889,6.9412,6.8164,6.743,6.699,6.6623,6.6219,6.5742,6.4971,6.4765,6.4692,6.4288,6.4154,6.4117,6.4127,6.4127,6.4016,6.3686,6.3539,6.3503,6.3503,6.3503,6.3392,6.2915,6.2879,6.2805,6.2328,6.1594,6.0786,6.0015,5.8841,5.7426,5.5544,5.2769,0.0,0.0,5.0082,5.0628,5.3125,5.4773,5.6198,5.7409,5.6822,5.6638,5.7373,5.6345,5.6565,5.8547,5.8657,5.9208,6.0456,6.0493,6.086,6.1594,6.2538,6.3392,6.4056,6.4554,6.4938,6.5199,6.5199,6.4769,6.4019,6.4019,6.355,6.2805,6.2805,6.2805,6.2805,6.2805,6.2805,6.2805,6.2805,6.2805,6.2952,8.6811,8.6995,8.6995,8.6995,8.6995,8.6995,8.6995,8.6995,8.6921,8.6738,8.6885,8.6921,8.6738,8.6885,8.6921,8.6738,8.6004,8.5159,8.4389,8.3581,8.215,7.9874,7.9433,7.8626,7.7341,7.7304,7.7304,7.7304,7.7304,7.7304,7.7304,7.6644,7.6276,7.6056,7.5652,7.4808,7.3707,7.3891,7.3413,7.2386,7.0954,7.0367,7.022,6.8788,6.7871,6.732,6.7136,6.6659,6.6109,6.5668,6.5595,6.5543,6.5375,6.5279,6.5294,6.5301,6.5007,6.4751,6.5191,6.4861,6.4383,6.4383,6.4383,6.42,6.3539,6.3759,6.3906,6.3246,6.2438,6.163,6.0823,5.9355,5.7647,5.5581,0.0,0.0,0.0,5.1226,5.225,5.53,5.6683,5.7923,5.9355,5.8914,5.8547,5.8547,5.7997,5.818,5.9428,5.9685,6.0419,6.1814,6.1887,6.1887,6.1887,6.302,6.3892,6.4445,6.4866,6.5388,6.5897,6.5897,6.5388,6.4554,6.4444,6.3892,6.2965,6.2855,6.2805,6.2805,6.2805,6.2805,6.2805,6.2805,6.2805,6.2965,8.6701,8.6995,8.6995,8.6995,8.6995,8.6995,8.6995,8.6995,8.6738,8.5967,8.6554,8.6738,8.5967,8.6554,8.6701,8.593,8.5159,8.4352,8.3544,8.2737,8.1525,7.9874,7.8332,7.7451,7.7304,7.7304,7.7304,7.7304,7.7304,7.7304,7.7304,7.7268,7.6827,7.6093,7.6827,7.5812,7.3758,7.4515,7.3927,7.2422,7.1578,7.1211,7.1138,7.0257,6.9889,6.9743,6.9009,6.8696,6.8419,6.69,6.6406,6.6243,6.553,6.5257,6.5311,6.5307,6.5763,6.6182,6.5485,6.5264,6.5228,6.5228,6.5228,6.5191,6.5154,6.4604,6.4053,6.4016,6.3319,6.2475,6.1667,6.0199,5.863,5.7168,0.0,0.0,5.241,5.399,5.5337,5.5581,5.7629,5.9391,6.0236,6.0272,6.0236,6.0236,6.0162,6.0199,6.0309,6.1006,6.1814,6.2695,6.2732,6.2732,6.2732,6.3317,6.3892,6.4445,6.4866,6.5388,6.5897,6.5897,6.5569,6.5035,6.459,6.4059,6.3498,6.3014,6.2805,6.2805,6.2805,6.2805,6.2805,6.2805,6.2805,6.2941,8.6701,8.6428,8.5991,8.5991,8.5991,8.5991,8.5991,8.6571,8.6885,8.6591,8.6811,8.6885,8.6591,8.6371,8.6114,8.582,8.4609,8.3508,8.27,8.1893,8.0975,7.9837,7.8185,7.7304,7.7304,7.7304,7.7304,7.7304,7.7304,7.7304,7.7304,7.7304,7.7157,7.6827,7.6656,7.5776,7.4441,7.4198,7.3523,7.2422,7.1651,7.1321,7.1211,7.0403,7.011,7.0073,6.9743,6.9633,6.9541,6.8898,6.8715,6.8678,6.8403,6.8275,6.8275,6.8275,6.8147,6.7944,6.7614,6.6806,6.6035,6.6035,6.6035,6.5925,6.5411,6.5448,6.5448,6.4934,6.4163,6.3356,6.2511,6.1043,5.9669,5.8792,0.0,5.4638,5.5217,5.5491,5.6169,5.7666,5.9538,6.0823,6.1117,6.1153,6.1153,6.1153,6.163,6.1887,6.1887,6.2181,6.2475,6.2805,6.2805,6.3062,6.3613,6.3613,6.3941,6.4683,6.4634,6.4765,6.4971,6.5261,6.513,6.4661,6.4481,6.4136,6.3587,6.3014,6.2805,6.2805,6.2805,6.2805,6.2879,6.3429,6.3456,6.3456,8.6171,8.5806,8.5201,8.4852,8.4773,8.4888,8.5278,8.5954,8.6571,8.6925,8.6995,8.6995,8.6995,8.6261,8.56,8.5086,8.4058,8.2847,8.1525,8.0681,7.9984,7.9433,7.8075,7.7304,7.7304,7.7304,7.7304,7.7304,7.7304,7.7304,7.7304,7.7304,7.7194,7.69,7.6081,7.5201,7.4358,7.3505,7.2875,7.234,7.1792,7.1641,7.1615,7.1064,7.0844,7.0807,7.0587,7.0477,7.044,7.0202,7.0128,7.0073,7.0091,7.0071,7.0127,7.0127,6.9687,6.9302,6.9302,6.8274,6.7173,6.6953,6.688,6.6733,6.6182,6.6292,6.6329,6.5778,6.5044,6.4237,6.3392,6.2071,6.0871,5.9992,5.7831,5.661,5.7634,5.7353,5.7813,5.9722,6.1153,6.1998,6.1998,6.2438,6.2658,6.2401,6.3135,6.3613,6.3613,6.3099,6.3062,6.3576,6.3099,6.3356,6.4457,6.3722,6.3705,6.445,6.4237,6.4217,6.4407,6.4731,6.4765,6.459,6.4444,6.4178,6.3808,6.3308,6.2917,6.2805,6.2805,6.2805,6.2879,6.3677,6.3789,6.3817,8.5218,8.5278,8.4967,8.379,8.3585,8.3958,8.5123,8.5278,8.5731,8.6856,8.6995,8.6995,8.6995,8.6261,8.5123,8.3544,8.3398,8.237,7.9947,7.9029,7.8589,7.8589,7.7781,7.7304,7.7304,7.7304,7.7304,7.7304,7.7304,7.7341,7.7243,7.7243,7.6864,7.6019,7.5117,7.4188,7.3356,7.2436,7.2107,7.2221,7.2221,7.2299,7.2496,7.2496,7.2496,7.2422,7.1615,7.1321,7.1211,7.0421,7.0108,7.0108,7.014,7.012,7.014,7.0127,7.011,7.011,7.011,6.9522,6.8715,6.7907,6.7687,6.7687,6.7687,6.7063,6.6512,6.6512,6.5888,6.5081,6.4273,6.3429,6.2291,6.0676,6.0419,6.0162,5.9318,5.9905,6.0713,6.152,6.2328,6.2842,6.2805,6.4347,6.4971,6.4163,6.4861,6.5301,6.5301,6.3723,6.3576,6.5264,6.3686,6.3613,6.5264,6.3649,6.3062,6.3587,6.3631,6.3892,6.437,6.437,6.4626,6.5067,6.459,6.437,6.4332,6.3808,6.3308,6.2805,6.2805,6.2805,6.2904,6.3408,6.3631,6.3873,8.5218,8.5278,8.4693,8.275,8.3103,8.3415,8.2981,8.4253,8.5468,8.5806,8.5988,8.6151,8.6151,8.4939,8.3691,8.2663,8.2039,8.0938,7.9066,7.8185,7.7708,7.7708,7.7451,7.7304,7.7304,7.7304,7.7304,7.7304,7.7304,7.6956,7.6264,7.6264,7.5747,7.4798,7.3928,7.3434,7.3152,7.3047,7.3001,7.3044,7.3188,7.3324,7.3245,7.2716,7.2496,7.2459,7.2239,7.2165,7.2129,7.1872,7.1741,7.1778,7.1814,7.2144,7.2496,7.1945,7.1394,7.0954,7.0954,6.9963,6.8862,6.8605,6.8128,6.7687,6.7687,6.7504,6.732,6.732,6.6696,6.6072,6.5815,6.5118,6.4016,6.2365,6.2108,6.163,6.0236,6.1227,6.1961,6.163,6.3356,6.4347,6.3759,6.4677,6.5191,6.4971,6.5154,6.5301,6.5301,6.4824,6.453,6.4457,6.398,6.3943,6.4457,6.3356,6.3198,6.3947,6.3357,6.3121,6.3271,6.368,6.4099,6.459,6.4444,6.437,6.4332,6.3808,6.3308,6.2805,6.2805,6.3014,6.3437,6.4175,6.4547,6.4924,8.4745,8.5062,8.4693,8.2928,8.275,8.2734,8.2241,8.3294,8.4198,8.4376,8.4934,8.5306,8.5306,8.4168,8.2957,8.1819,8.0388,7.9286,7.8626,7.7781,7.7304,7.7304,7.7304,7.7304,7.7304,7.7304,7.7304,7.7304,7.6856,7.6396,7.5787,7.5369,7.4725,7.3814,7.2929,7.2564,7.2535,7.2674,7.2937,7.3369,7.3819,7.408,7.4059,7.3288,7.2994,7.2957,7.2606,7.2496,7.2496,7.2496,7.2679,7.3031,7.3361,7.3545,7.3603,7.3104,7.2386,7.1798,7.1798,7.0844,6.9853,6.9853,6.9009,6.8091,6.776,6.7944,6.8091,6.776,6.7283,6.688,6.6549,6.6109,6.5338,6.4016,6.3796,6.3466,6.2475,6.3209,6.3613,6.3135,6.4677,6.5448,6.464,6.5595,6.6256,6.6256,6.5962,6.5778,6.5778,6.5485,6.5228,6.5044,6.442,6.4237,6.4567,6.3392,6.3062,6.3576,6.3062,6.2805,6.2805,6.3121,6.368,6.437,6.437,6.437,6.437,6.4019,6.3498,6.2805,6.2805,6.3121,6.3668,6.4374,6.5049,6.5824,8.3943,8.4705,8.4865,8.3648,8.2664,8.2028,8.2093,8.2276,8.2557,8.267,8.3733,8.4462,8.4389,8.3691,8.2553,8.0938,7.8662,7.7671,7.8442,7.7745,7.7304,7.7304,7.7304,7.7243,7.7181,7.7243,7.7243,7.7181,7.6264,7.5718,7.551,7.461,7.3729,7.2871,7.2021,7.1607,7.1546,7.1735,7.2335,7.33,7.4226,7.4732,7.4932,7.4081,7.3823,7.3713,7.2863,7.2606,7.2606,7.2606,7.3178,7.4028,7.4632,7.4375,7.3787,7.3639,7.3067,7.2496,7.2496,7.1908,7.1321,7.1321,7.022,6.8898,6.8091,6.8495,6.8788,6.7944,6.7797,6.754,6.6769,6.6623,6.6329,6.5558,6.5411,6.5375,6.5301,6.5375,6.5375,6.5301,6.6072,6.6292,6.5485,6.6806,6.7687,6.7687,6.7026,6.6586,6.6512,6.5888,6.5815,6.6476,6.5081,6.4677,6.5411,6.3759,6.2879,6.2805,6.2805,6.2842,6.2915,6.2842,6.34,6.4445,6.437,6.4332,6.4332,6.4332,6.3723,6.2805,6.2805,6.3168,6.3723,6.4292,6.5338,6.6674,8.4022,8.4428,8.4319,8.2927,8.2664,8.1942,7.9688,8.1307,8.2326,8.099,8.2432,8.3434,8.2774,8.2003,8.0865,7.925,7.8002,7.7414,7.7598,7.7414,7.7304,7.7304,7.7304,7.6956,7.6094,7.6893,7.692,7.613,7.5891,7.4976,7.3492,7.3252,7.2645,7.1678,7.1504,7.1328,7.145,7.2222,7.3125,7.4115,7.4456,7.5139,7.5776,7.4958,7.4652,7.4529,7.3744,7.3435,7.3456,7.345,7.4375,7.5359,7.4316,7.4258,7.4368,7.312,7.2642,7.2496,7.2496,7.1908,7.1321,7.1321,7.1064,7.0587,6.9743,6.9706,6.9596,6.8825,6.8641,6.8385,6.7577,6.743,6.7173,6.6366,6.6256,6.6035,6.5411,6.5852,6.5999,6.5375,6.6549,6.71,6.6329,6.7136,6.7687,6.7687,6.754,6.7136,6.6512,6.6916,6.6953,6.6512,6.6145,6.6072,6.6256,6.464,6.3466,6.2805,6.2805,6.3172,6.3796,6.3135,6.3501,6.4662,6.4027,6.3766,6.3766,6.3766,6.3363,6.2805,6.2805,6.3408,6.4292,6.5048,6.6036,6.7176,8.2824,8.3448,8.3628,8.3005,8.2153,8.0847,7.8539,7.9453,8.0006,7.8638,8.0368,8.1525,8.1085,8.0681,7.9746,7.7976,7.7036,7.6396,7.5891,7.633,7.633,7.5891,7.5891,7.558,7.5048,7.558,7.558,7.5048,7.461,7.385,7.2797,7.2279,7.183,7.1312,7.1312,7.1312,7.1401,7.2364,7.313,7.3629,7.4709,7.5482,7.591,7.5592,7.5434,7.5299,7.4147,7.3471,7.3178,7.356,7.4478,7.5382,7.4542,7.4822,7.5161,7.3545,7.3104,7.2973,7.2606,7.2202,7.1872,7.1872,7.1872,7.1578,7.0367,7.0403,7.044,6.9633,6.9192,6.8788,6.8348,6.7944,6.754,6.7136,6.7063,6.6916,6.6512,6.6806,6.6916,6.6476,6.7173,6.7504,6.71,6.743,6.7687,6.7687,6.7687,6.7357,6.6549,6.7247,6.732,6.6512,6.6512,6.6512,6.6512,6.5264,6.4457,6.398,6.3209,6.3062,6.3466,6.3025,6.3331,6.4227,6.378,6.3631,6.3631,6.3631,6.3308,6.2805,6.3073,6.368,6.4483,6.5154,6.6376,6.7898,8.1593,8.214,8.2505,8.2879,8.1345,7.9487,7.7444,7.7532,7.7511,7.627,7.7955,7.9231,7.9121,7.8975,7.8207,7.6658,7.594,7.5192,7.431,7.5048,7.5192,7.431,7.431,7.4234,7.4005,7.4005,7.4005,7.4005,7.3171,7.2714,7.2498,7.1688,7.1312,7.1312,7.1312,7.1312,7.1401,7.2193,7.2674,7.2976,7.4834,7.5616,7.5844,7.6141,7.6326,7.6093,7.4625,7.356,7.3031,7.367,7.4382,7.486,7.4872,7.5348,7.5625,7.4154,7.3692,7.3523,7.2716,7.2606,7.2679,7.2532,7.2606,7.2312,7.0844,7.1027,7.1284,7.0477,6.9779,6.9229,6.8972,6.8348,6.7834,6.7724,6.7687,6.7687,6.7687,6.7687,6.7687,6.7687,6.7687,6.7687,6.7687,6.7687,6.7687,6.7687,6.7687,6.7393,6.6733,6.732,6.7393,6.6733,6.6696,6.6696,6.6696,6.5925,6.5521,6.5485,6.398,6.3319,6.3429,6.3172,6.3357,6.3862,6.3565,6.3453,6.3453,6.3453,6.3262,6.2965,6.3408,6.4016,6.4592,6.5372,6.6845,6.8513,8.1449,8.0767,8.0154,8.0912,8.0422,7.8632,7.5067,7.6559,7.7265,7.4694,7.5952,7.6823,7.6146,7.5505,7.4968,7.4713,7.4606,7.446,7.431,7.4385,7.446,7.431,7.431,7.385,7.3044,7.3044,7.3044,7.3044,7.288,7.2364,7.1546,7.1401,7.1312,7.1312,7.1312,7.1312,7.1312,7.1457,7.1987,7.2935,7.4066,7.5001,7.5898,7.682,7.7157,7.7011,7.6093,7.5257,7.4601,7.472,7.4794,7.4889,7.4921,7.4958,7.4882,7.3956,7.3685,7.3523,7.2716,7.301,7.3377,7.2679,7.301,7.3303,7.2386,7.2275,7.2129,7.1321,7.1064,7.055,6.9155,6.8825,6.8495,6.7797,6.7687,6.7687,6.7687,6.7687,6.7687,6.7687,6.7687,6.7687,6.7687,6.7687,6.7687,6.7687,6.7687,6.765,6.754,6.7614,6.765,6.754,6.754,6.754,6.754,6.6733,6.6329,6.6329,6.5411,6.5338,6.5962,6.4567,6.4361,6.4963,6.3529,6.2904,6.2904,6.2904,6.3121,6.3498,6.3587,6.4178,6.522,6.7218,6.8114,6.8513,7.7964,7.7479,7.722,7.7651,7.7155,7.5803,7.3635,7.4422,7.4765,7.3483,7.4501,7.5195,7.4876,7.3983,7.3492,7.3492,7.3492,7.3171,7.2666,7.3206,7.3171,7.2666,7.2582,7.2448,7.1969,7.1969,7.1969,7.1969,7.1969,7.1776,7.1312,7.1312,7.1312,7.1312,7.1312,7.1312,7.1312,7.1312,7.1604,7.2144,7.3671,7.4567,7.5082,7.672,7.7304,7.7194,7.6387,7.5565,7.4853,7.4368,7.4853,7.5389,7.4529,7.5128,7.5946,7.4235,7.4015,7.4184,7.3377,7.3413,7.3597,7.3266,7.345,7.3487,7.2679,7.2496,7.2422,7.2055,7.1615,7.1101,7.0367,6.9889,6.9302,6.8495,6.8385,6.8201,6.776,6.7687,6.7687,6.7687,6.7687,6.7687,6.7687,6.7687,6.7687,6.7687,6.7687,6.7687,6.7687,6.7687,6.7687,6.7687,6.7687,6.7687,6.7687,6.7357,6.7173,6.7173,6.6806,6.6366,6.5778,6.464,6.4273,6.4567,6.3356,6.2805,6.2805,6.2805,6.3121,6.3593,6.3934,6.4661,6.5685,6.6653,6.759,6.8398]},{"header":{"parameterUnit":"m.s-1","parameterCategory":1,"la1":30.6,"la2":28.766,"lo1":-90.7593,"lo2":-88.6598,"dy":0.0162,"dx":0.0183,"nx":116,"ny":114,"refTime":"2024-03-18T06:00:00:Z","depth":0,"parameterNumber":3,"parameterNumberName":"V-component_of_WINDS"},"data":[0.0,0.0,0.0,0.0,0.0,0.0,0.0,0.0,0.0,0.0,0.0,0.0,0.0,0.0,0.0,0.0,0.0,0.0,0.0,0.0,0.0,0.0,0.0,0.0,0.0,0.0,0.0,0.0,0.0,0.0,0.0,0.0,0.0,0.0,0.0,0.0,0.0,0.0,0.0,0.0,0.0,0.0,0.0,0.0,0.0,0.0,0.0,0.0,0.0,0.0,0.0,0.0,0.0,0.0,0.0,0.0,0.0,0.0,0.0,0.0,0.0,0.0,0.0,0.0,0.0,0.0,0.0,0.0,0.0,0.0,0.0,0.0,0.0,0.0,0.0,0.0,0.0,0.0,0.0,0.0,0.0,0.0,0.0,0.0,0.0,0.0,0.0,0.0,0.0,0.0,0.0,0.0,0.0,0.0,0.0,0.0,0.0,0.0,0.0,0.0,0.0,0.0,0.0,0.0,0.0,0.0,0.0,0.0,0.0,0.0,0.0,0.0,0.0,0.0,0.0,0.0,0.0,0.0,0.0,0.0,0.0,0.0,0.0,0.0,0.0,0.0,0.0,0.0,0.0,0.0,0.0,0.0,0.0,0.0,0.0,0.0,0.0,0.0,0.0,0.0,0.0,0.0,0.0,0.0,0.0,0.0,0.0,0.0,0.0,0.0,0.0,0.0,0.0,0.0,0.0,0.0,0.0,0.0,0.0,0.0,0.0,0.0,0.0,0.0,0.0,0.0,0.0,0.0,0.0,0.0,0.0,0.0,0.0,0.0,0.0,0.0,0.0,0.0,0.0,0.0,0.0,0.0,0.0,0.0,0.0,0.0,0.0,0.0,0.0,0.0,0.0,0.0,0.0,0.0,0.0,0.0,0.0,0.0,0.0,0.0,0.0,0.0,0.0,0.0,0.0,0.0,0.0,0.0,0.0,0.0,0.0,0.0,0.0,0.0,0.0,0.0,0.0,0.0,0.0,0.0,0.0,0.0,0.0,0.0,0.0,0.0,0.0,0.0,0.0,0.0,0.0,0.0,0.0,0.0,0.0,0.0,0.0,0.0,0.0,0.0,0.0,0.0,0.0,0.0,0.0,0.0,0.0,0.0,0.0,0.0,0.0,0.0,0.0,0.0,0.0,0.0,0.0,0.0,0.0,0.0,0.0,0.0,0.0,0.0,0.0,0.0,0.0,0.0,0.0,0.0,0.0,0.0,0.0,0.0,0.0,0.0,0.0,0.0,0.0,0.0,0.0,0.0,0.0,0.0,0.0,0.0,0.0,0.0,0.0,0.0,0.0,0.0,0.0,0.0,0.0,0.0,0.0,0.0,0.0,0.0,0.0,0.0,0.0,0.0,0.0,0.0,0.0,0.0,0.0,0.0,0.0,0.0,0.0,0.0,0.0,0.0,0.0,0.0,0.0,0.0,0.0,0.0,0.0,0.0,0.0,0.0,0.0,0.0,0.0,0.0,0.0,0.0,0.0,0.0,0.0,0.0,0.0,0.0,0.0,0.0,0.0,0.0,0.0,0.0,0.0,0.0,0.0,0.0,0.0,0.0,0.0,0.0,0.0,0.0,0.0,0.0,0.0,0.0,0.0,0.0,0.0,0.0,0.0,0.0,0.0,0.0,0.0,0.0,0.0,0.0,0.0,0.0,0.0,0.0,0.0,0.0,0.0,0.0,0.0,0.0,0.0,0.0,0.0,0.0,0.0,0.0,0.0,0.0,0.0,0.0,0.0,0.0,0.0,0.0,0.0,0.0,0.0,0.0,0.0,0.0,0.0,0.0,0.0,0.0,0.0,0.0,0.0,0.0,0.0,0.0,0.0,0.0,0.0,0.0,0.0,0.0,0.0,0.0,0.0,0.0,0.0,0.0,0.0,0.0,0.0,0.0,0.0,0.0,0.0,0.0,0.0,0.0,0.0,0.0,0.0,0.0,0.0,0.0,0.0,0.0,0.0,0.0,0.0,0.0,0.0,0.0,0.0,0.0,0.0,0.0,0.0,0.0,0.0,0.0,0.0,0.0,0.0,0.0,0.0,0.0,0.0,0.0,0.0,0.0,0.0,0.0,0.0,0.0,0.0,0.0,0.0,0.0,0.0,0.0,0.0,0.0,0.0,0.0,0.0,0.0,0.0,0.0,0.0,0.0,0.0,0.0,0.0,0.0,0.0,0.0,0.0,0.0,0.0,0.0,0.0,0.0,0.0,0.0,0.0,0.0,0.0,0.0,0.0,0.0,0.0,0.0,0.0,0.0,0.0,0.0,0.0,0.0,0.0,0.0,0.0,0.0,0.0,0.0,0.0,0.0,0.0,0.0,0.0,0.0,0.0,0.0,0.0,0.0,0.0,0.0,0.0,0.0,0.0,0.0,0.0,0.0,0.0,0.0,0.0,0.0,0.0,0.0,0.0,0.0,0.0,0.0,0.0,0.0,0.0,0.0,0.0,0.0,0.0,0.0,0.0,0.0,0.0,0.0,0.0,0.0,0.0,0.0,0.0,0.0,0.0,0.0,0.0,0.0,0.0,0.0,0.0,0.0,0.0,0.0,0.0,0.0,0.0,0.0,0.0,0.0,0.0,0.0,0.0,0.0,0.0,0.0,0.0,0.0,0.0,0.0,0.0,0.0,0.0,0.0,0.0,0.0,0.0,0.0,0.0,0.0,0.0,0.0,0.0,0.0,0.0,0.0,0.0,0.0,0.0,0.0,0.0,0.0,0.0,0.0,0.0,0.0,0.0,0.0,0.0,0.0,0.0,0.0,0.0,0.0,0.0,0.0,0.0,0.0,0.0,0.0,0.0,0.0,0.0,0.0,0.0,0.0,0.0,0.0,0.0,0.0,0.0,0.0,0.0,0.0,0.0,0.0,0.0,0.0,0.0,0.0,0.0,0.0,0.0,0.0,0.0,0.0,0.0,0.0,0.0,0.0,0.0,0.0,0.0,0.0,0.0,0.0,0.0,0.0,0.0,0.0,0.0,0.0,0.0,0.0,0.0,0.0,0.0,0.0,0.0,0.0,0.0,0.0,0.0,0.0,0.0,0.0,0.0,0.0,0.0,0.0,0.0,0.0,0.0,0.0,0.0,0.0,0.0,0.0,0.0,0.0,0.0,0.0,0.0,0.0,0.0,0.0,0.0,0.0,0.0,0.0,0.0,0.0,0.0,0.0,0.0,0.0,0.0,0.0,0.0,0.0,0.0,0.0,0.0,0.0,0.0,0.0,0.0,0.0,0.0,0.0,0.0,0.0,0.0,0.0,0.0,0.0,0.0,0.0,0.0,0.0,0.0,0.0,0.0,0.0,0.0,0.0,0.0,0.0,0.0,0.0,0.0,0.0,0.0,0.0,0.0,0.0,0.0,0.0,0.0,0.0,0.0,0.0,0.0,0.0,0.0,0.0,0.0,0.0,0.0,0.0,0.0,0.0,0.0,0.0,0.0,0.0,0.0,0.0,0.0,0.0,0.0,0.0,0.0,0.0,0.0,0.0,0.0,0.0,0.0,0.0,0.0,0.0,0.0,0.0,0.0,0.0,0.0,0.0,0.0,0.0,0.0,0.0,0.0,0.0,0.0,0.0,0.0,0.0,0.0,0.0,0.0,0.0,0.0,0.0,0.0,0.0,0.0,0.0,0.0,0.0,0.0,0.0,0.0,0.0,0.0,0.0,0.0,0.0,0.0,0.0,0.0,0.0,0.0,0.0,0.0,0.0,0.0,0.0,0.0,0.0,0.0,0.0,0.0,0.0,0.0,0.0,0.0,0.0,0.0,0.0,0.0,0.0,0.0,0.0,0.0,0.0,0.0,0.0,0.0,0.0,0.0,0.0,0.0,0.0,0.0,0.0,0.0,0.0,0.0,0.0,0.0,0.0,0.0,0.0,0.0,0.0,0.0,0.0,0.0,0.0,0.0,0.0,0.0,0.0,0.0,0.0,0.0,0.0,0.0,0.0,0.0,0.0,0.0,0.0,0.0,0.0,0.0,0.0,0.0,0.0,0.0,0.0,0.0,0.0,0.0,0.0,0.0,0.0,0.0,0.0,0.0,0.0,0.0,0.0,0.0,0.0,0.0,0.0,0.0,0.0,0.0,0.0,0.0,0.0,0.0,0.0,0.0,0.0,0.0,0.0,0.0,0.0,0.0,0.0,0.0,0.0,0.0,0.0,0.0,0.0,0.0,0.0,0.0,0.0,0.0,0.0,0.0,0.0,0.0,0.0,0.0,0.0,0.0,0.0,0.0,0.0,0.0,0.0,0.0,0.0,0.0,0.0,0.0,0.0,0.0,0.0,0.0,0.0,0.0,0.0,0.0,0.0,0.0,0.0,0.0,0.0,0.0,0.0,0.0,0.0,0.0,0.0,0.0,0.0,0.0,0.0,0.0,0.0,0.0,0.0,0.0,0.0,0.0,0.0,0.0,0.0,0.0,0.0,0.0,0.0,0.0,0.0,0.0,0.0,0.0,0.0,0.0,0.0,0.0,0.0,0.0,0.0,0.0,0.0,0.0,0.0,0.0,0.0,0.0,0.0,0.0,0.0,0.0,0.0,0.0,0.0,0.0,0.0,0.0,0.0,0.0,0.0,0.0,0.0,0.0,0.0,0.0,0.0,0.0,0.0,0.0,0.0,0.0,0.0,0.0,0.0,0.0,0.0,0.0,0.0,0.0,0.0,0.0,0.0,0.0,0.0,0.0,0.0,0.0,0.0,0.0,0.0,0.0,0.0,0.0,0.0,0.0,0.0,0.0,0.0,0.0,0.0,0.0,0.0,0.0,0.0,0.0,0.0,0.0,0.0,0.0,0.0,0.0,0.0,0.0,0.0,0.0,0.0,0.0,0.0,0.0,0.0,0.0,0.0,0.0,0.0,0.0,0.0,0.0,0.0,0.0,0.0,0.0,0.0,0.0,0.0,0.0,0.0,0.0,0.0,0.0,0.0,0.0,0.0,0.0,0.0,0.0,0.0,0.0,0.0,0.0,0.0,0.0,0.0,0.0,0.0,0.0,0.0,0.0,0.0,0.0,0.0,0.0,0.0,0.0,0.0,0.0,0.0,0.0,0.0,0.0,0.0,0.0,0.0,0.0,0.0,0.0,0.0,0.0,0.0,0.0,0.0,0.0,0.0,0.0,0.0,0.0,0.0,0.0,0.0,0.0,0.0,0.0,0.0,0.0,0.0,0.0,0.0,0.0,0.0,0.0,0.0,0.0,0.0,0.0,0.0,0.0,0.0,0.0,0.0,0.0,0.0,0.0,0.0,0.0,0.0,0.0,0.0,0.0,0.0,0.0,0.0,0.0,0.0,0.0,0.0,0.0,0.0,0.0,0.0,0.0,0.0,0.0,0.0,0.0,0.0,0.0,0.0,0.0,0.0,0.0,0.0,0.0,0.0,0.0,0.0,0.0,0.0,0.0,0.0,0.0,0.0,0.0,0.0,0.0,0.0,0.0,0.0,0.0,0.0,0.0,0.0,0.0,0.0,0.0,0.0,0.0,0.0,0.0,0.0,0.0,0.0,0.0,0.0,0.0,0.0,0.0,0.0,0.0,0.0,0.0,0.0,0.0,0.0,0.0,0.0,0.0,0.0,0.0,0.0,0.0,0.0,0.0,0.0,0.0,0.0,0.0,0.0,0.0,0.0,0.0,0.0,0.0,0.0,0.0,0.0,0.0,0.0,0.0,0.0,0.0,0.0,0.0,0.0,0.0,0.0,0.0,0.0,0.0,0.0,0.0,0.0,0.0,0.0,0.0,0.0,0.0,0.0,0.0,0.0,0.0,0.0,0.0,0.0,0.0,0.0,0.0,0.0,0.0,0.0,0.0,0.0,0.0,0.0,0.0,0.0,0.0,0.0,0.0,0.0,0.0,0.0,0.0,0.0,0.0,0.0,0.0,0.0,0.0,0.0,0.0,0.0,0.0,0.0,0.0,0.0,0.0,0.0,0.0,0.0,0.0,0.0,0.0,0.0,0.0,0.0,0.0,0.0,0.0,0.0,0.0,0.0,0.0,0.0,0.0,0.0,0.0,0.0,0.0,0.0,0.0,0.0,0.0,0.0,0.0,0.0,0.0,0.0,0.0,0.0,0.0,0.0,0.0,0.0,0.0,0.0,0.0,0.0,0.0,0.0,0.3045,0.0,0.0,0.0,0.0,0.0,0.0,0.0,0.0,0.0,0.0,0.0,0.0,0.0,0.0,0.0,0.0,0.0,0.0,0.0,0.0,0.0,0.0,0.0,0.0,0.0,0.0,0.0,-0.087,-0.1185,-0.0958,-0.1213,-0.1385,-0.1629,-0.143,-0.1624,-0.2051,-0.1965,-0.1985,-0.2204,-0.0,0.2212,0.4388,0.4237,0.3644,0.2835,0.0,0.0,0.0,0.0,0.0,0.0,0.0,0.0,0.0,0.0,0.0,0.0,0.0,0.0,0.0,0.0,0.0,0.0,0.0,0.0,0.0,0.0,0.0,0.0,0.0,0.0,0.0,0.0,0.0,0.0,0.0,0.0,0.0,0.0,0.0,0.0,0.0,0.0,0.0,0.0,0.0,0.0,0.0,0.0,0.0,0.0,0.0,0.0,0.0,0.0,0.0,0.0,0.0,0.0,0.0,0.0,0.0,0.0,0.0,0.0,0.0,0.0,0.0,0.0,0.0,0.0,0.0,0.0,0.0,0.0,0.0,0.4598,0.0,0.0,0.0,0.0,0.0,0.0,0.0,0.0,0.0,0.0,0.0,0.0,0.0,0.0,0.0,0.0,0.0,0.0,0.0,0.0,0.0,0.0,0.0,-0.1184,-0.0879,-0.0164,-0.0647,-0.0808,-0.0248,-0.0911,-0.1324,-0.1565,-0.1541,-0.1748,-0.2185,-0.2193,-0.197,-0.158,0.181,0.4754,0.7172,0.7449,0.6862,0.5368,0.3448,0.0,0.0,0.0,0.0,0.0,0.0,0.0,0.0,0.0,0.0,0.0,0.0,0.0,0.0,0.0,0.0,0.0,0.0,0.0,0.0,0.0,0.0,0.0,0.0,0.0,0.0,0.0,0.0,0.0,0.0,0.0,0.0,0.0,0.0,0.0,0.0,0.0,0.0,0.0,0.0,0.0,0.0,0.0,0.0,0.0,0.0,0.0,0.0,0.0,0.0,0.0,0.0,0.0,0.0,0.0,0.0,0.0,0.0,0.0,0.0,0.0,0.0,0.0,0.0,0.7825,0.8746,0.8898,0.8508,0.7913,0.7693,0.7527,0.7416,0.0,0.0,0.0,0.0,0.0,0.0,0.0,0.0,0.0,0.0,0.0,0.0,0.0,0.0,0.0,0.0,0.0,0.0,0.0,0.0,0.0,0.0,-0.08,-0.0082,0.1113,0.0429,0.0259,0.1148,-0.0177,-0.1142,-0.138,-0.1853,-0.2323,-0.2772,-0.2549,-0.1391,0.0662,0.6241,0.8857,0.8415,0.9287,0.9504,0.9256,0.6493,0.4089,0.2251,0.0,0.0,0.0,0.0,0.0,0.0,0.0,0.0,0.0,0.0,0.0,0.0,0.0,0.0,0.0,0.0,0.0,0.0,0.0,0.0,0.0,0.0,0.0,0.0,0.0,0.0,0.0,0.0,0.0,0.0,0.0,0.0,0.0,0.0,0.0,0.0,0.0,0.0,0.0,0.0,0.0,0.1579,0.4309,0.0,0.0,0.0,0.0,0.0,0.0,0.0,0.0,0.0,0.0,0.0,0.0,0.0,0.0,0.3034,0.6817,0.904,0.9626,1.0169,1.0254,1.0181,1.0459,1.0245,0.9531,0.9942,0.0,0.5814,0.7091,0.0,0.0,0.0,0.0,0.0,0.0,0.0,0.0,0.0,0.0,0.0,0.0,0.0,0.0,0.0,0.0,0.0,0.0,0.0,0.0,0.0,0.0855,0.2173,0.2447,0.3033,0.3324,0.3422,0.2208,0.0875,-0.0361,-0.1168,-0.1962,-0.2823,-0.1563,0.0992,0.4636,0.8952,1.085,1.0455,1.1012,1.1175,1.1208,0.9826,0.7969,0.5706,0.4718,0.0,0.0,0.0,0.0,0.0,0.0,0.0,0.0,0.0,0.0,0.0,0.0,0.0,0.0,0.0,0.0,0.0,0.0,0.0,0.0,0.0,0.0,0.0,0.0,0.0,0.0,0.0,0.0,0.0,0.0,0.0,0.0,0.0,0.0,0.0,0.0,0.0,0.0,0.0,0.0186,0.2176,0.4647,0.5218,0.4746,0.0,0.0,0.0,0.0,0.0,0.0,0.0,0.0,0.0,-0.1261,0.0975,0.4206,0.841,1.0419,1.1365,1.1287,1.1565,1.1674,1.1482,1.155,1.1269,1.0787,1.1097,1.0751,0.9941,0.9677,0.9275,0.8654,0.0,0.0,0.0,0.0,0.0,-0.0,0.0,0.0,0.0,0.0,0.0,0.0,0.0,0.0,0.0,0.0,0.0,0.0,0.0765,0.292,0.4398,0.4529,0.5466,0.5962,0.5715,0.4225,0.2626,0.0948,-0.0185,-0.1455,-0.2764,0.0291,0.4047,0.8466,1.0786,1.2051,1.2176,1.2332,1.2427,1.2461,1.242,1.1188,0.9118,0.7104,0.6804,0.7304,0.0,0.0,0.0,0.0,0.0,0.0,0.0,0.0,0.0,0.0,0.0,0.0,0.0,0.0,0.0,0.0,0.0,0.0,0.0,0.0,0.0,0.0,0.0,0.0,0.0,0.0,0.0,0.0,0.0,0.0,0.0,0.0,0.0,0.0,0.0,0.0,0.0,0.0691,0.2613,0.461,0.6923,0.7385,0.0,0.0,0.0,0.0,0.0,0.0,0.4046,0.4145,0.3719,0.2614,0.3025,0.6275,1.2742,1.2875,1.2813,1.2406,1.2515,1.2487,1.2463,1.2416,1.2217,1.2018,1.2105,1.2644,1.339,0.9538,0.8642,0.9335,0.4452,0.3095,0.4069,0.4063,0.2868,0.1563,0.0,0.0,0.0,0.0,0.0,0.0,0.0,0.0,0.0,0.0,0.0,0.2519,0.384,0.5018,0.6359,0.7842,0.7365,0.718,0.7653,0.5288,0.3353,0.2314,0.0591,-0.1161,-0.2854,0.3091,0.7975,1.161,1.2095,1.2528,1.3112,1.3261,1.341,1.3546,1.3397,1.2507,1.1083,1.0496,0.8793,0.6655,0.7252,0.0,0.0,0.0,0.0,0.0,0.0,0.0,0.0,0.0,0.0,0.0,0.0,0.0,0.0,0.0,0.0,0.0,0.0,0.0,0.0,0.0,0.0,0.0,0.0,0.0,0.0,0.0,0.0,0.0,0.0,0.0,0.0,0.0,0.0,0.0,0.0,0.0,0.0,0.4358,0.7273,0.0,0.0,0.0,0.0,-0.1137,0.1423,0.3229,0.3649,0.6541,0.9771,1.3442,0.9174,0.9021,1.3561,1.3037,1.284,1.2992,1.2999,1.2912,1.2881,1.2888,1.3141,1.3265,1.3316,1.3624,1.3612,0.4322,0.4244,0.9817,0.9416,0.5545,0.0255,0.0251,0.2371,0.5609,0.0,0.0,0.0,0.0,0.0,0.0,0.0,0.0,0.0073,0.0151,0.1523,0.339,0.5945,0.7605,0.8968,0.9844,1.0793,1.1231,1.07,0.7993,0.5429,0.363,0.1255,0.031,0.1219,0.5346,0.9046,1.2414,1.2965,1.341,1.3899,1.3953,1.4007,1.4061,1.4,1.358,1.2695,1.1764,1.0554,0.8957,0.792,0.6344,0.0,0.0,0.0,0.0,0.0,0.0,0.0,0.0,0.0,0.0,0.0,0.0,0.0,0.0,0.0,0.0,0.0,0.0,0.0,0.0,0.0,0.0,0.0,0.0,0.0,0.0,0.0,0.0,0.0,0.0,0.0,0.0,0.0,0.0,0.0,0.0,0.0,0.6137,0.8608,0.0,0.0,0.6168,0.4622,0.3293,0.455,0.6635,0.9495,1.0928,1.1318,1.0713,1.093,1.1977,1.3916,1.3789,1.3654,1.3512,1.3506,1.3363,1.3245,1.3337,1.3588,1.3994,1.4041,1.3892,1.3412,0.9962,0.9746,1.1012,0.5611,0.4687,0.5759,0.1612,0.4031,0.9588,0.0,0.0,0.0,0.0,0.0,0.0,0.0,0.0,0.0075,0.1037,0.2486,0.4721,0.7806,1.0079,1.1472,1.2075,1.3263,1.3432,1.2217,0.9419,0.6805,0.4542,0.4335,0.4578,0.5014,0.8127,1.0863,1.303,1.3587,1.4061,1.4448,1.4394,1.4373,1.4367,1.4319,1.4109,1.3722,1.282,1.1824,1.0869,0.8967,0.7557,0.6415,0.0,0.0,0.0,0.0,0.0,0.0,0.0,0.0,0.0,0.0,0.0,0.0,0.0,0.0,0.0,0.0,0.0,0.0,0.0,0.0,0.0,0.0,0.0,0.0,0.0,0.0,0.0,0.0,0.0,0.0,0.0,0.0,0.0,0.0,0.0,0.7423,0.8841,1.0329,1.0992,1.0178,0.889,0.8107,0.8233,0.8744,1.0275,1.3176,1.338,1.2585,1.0551,1.2551,1.3892,1.4034,1.4215,1.4201,1.382,1.382,1.382,1.3647,1.374,1.3968,1.4331,1.438,1.4075,1.3475,1.3459,1.3205,1.221,0.6477,0.6905,1.0235,0.5883,0.7334,1.166,0.0,0.0,0.0,0.0,0.0,0.0,0.0,0.0076,0.0473,0.3795,0.4818,0.6423,0.9656,1.22,1.3966,1.4713,1.436,1.3606,1.2049,0.954,0.7226,0.5193,0.9724,1.1012,0.8381,1.1667,1.3433,1.3648,1.4095,1.4462,1.4733,1.459,1.4516,1.4516,1.4373,1.4231,1.4068,1.3777,1.2969,1.183,1.0652,0.9491,0.8326,0.0,0.0,0.0,0.0,0.0,0.0,0.0,0.0,0.0,0.0,0.0,0.0,0.0,0.0,0.0,0.0,0.0,0.0,0.0,0.0,0.0,0.0,0.0,0.0,0.0,0.0,0.0,0.0,0.0,0.0,0.0,0.0,0.0,0.5178,0.9292,1.2376,1.1963,1.2199,1.2115,1.1688,1.161,1.2155,1.3251,1.3512,1.3669,1.3832,1.3627,1.3653,1.4297,1.4311,1.4366,1.4299,1.4299,1.4299,1.4299,1.4299,1.4299,1.4299,1.4299,1.4299,1.4292,1.4325,1.4167,1.3817,1.3532,1.3404,1.3283,1.2813,1.2515,1.2491,1.2477,1.2105,1.1639,0.0,0.0,0.0,0.0,0.0,0.0,0.0,-0.0666,-0.0078,0.2849,0.4778,0.7612,1.2417,1.3839,1.4855,1.5493,1.4943,1.4434,1.4216,1.0052,0.6769,0.4833,0.7407,0.9831,1.1887,1.2852,1.3494,1.4116,1.4455,1.4658,1.474,1.4699,1.4679,1.4672,1.4638,1.4536,1.438,1.4197,1.3797,1.3186,1.1851,1.0272,0.8447,0.0,0.0,0.0,0.0,0.0,0.0,0.0,0.0,0.0,0.0,0.0,0.0,0.0,0.0,0.0,0.0,0.0,0.0,0.0,0.0,0.0,0.0,0.0,0.0,0.0,0.0,0.0,0.0,0.0,0.0,0.0,0.0,1.0307,0.9857,1.0599,1.1658,1.2731,1.3003,1.3152,1.2888,1.2935,1.3003,1.338,1.3473,1.3762,1.4071,1.3946,1.4055,1.4245,1.4251,1.4265,1.4299,1.4299,1.4299,1.4299,1.4299,1.4299,1.4299,1.4299,1.4299,1.4299,1.4258,1.4089,1.3831,1.3579,1.3478,1.3422,1.2675,1.2766,1.3034,1.2651,1.2436,1.2237,0.0,0.0,0.0,0.0,0.0,0.0,0.0,-0.0906,0.0243,0.3867,0.5664,0.8515,1.3252,1.4794,1.5479,1.5825,1.4926,1.4028,1.3173,0.9513,0.7107,0.6354,0.866,1.1038,1.3297,1.3487,1.398,1.4672,1.4909,1.5052,1.5113,1.5052,1.5018,1.5018,1.4957,1.4875,1.478,1.4638,1.4407,1.4041,1.3132,1.1702,1.012,0.9192,0.8688,0.8204,0.7665,0.7795,0.8268,0.8291,0.0,0.0,0.0,0.0,0.0,0.0,0.0,0.0,0.0,0.0,0.0,0.0,0.0,0.0,0.0,0.0,0.0,0.0,0.0,0.0,0.0,0.0,0.0,0.0,0.9052,1.2276,1.223,1.2203,1.2549,1.339,1.3668,1.3777,1.3688,1.3682,1.3682,1.3682,1.3824,1.3987,1.4156,1.4163,1.4211,1.4299,1.4299,1.4299,1.4299,1.4299,1.4299,1.4299,1.4299,1.4299,1.4299,1.4299,1.4299,0.0,1.4299,1.4163,1.3933,1.3865,1.3614,0.0,0.0,0.0,0.0,0.0,1.2532,1.2532,0.0,0.0,0.0,0.0,0.0,0.0,0.0,-0.0939,0.0925,0.5459,0.702,0.9101,1.301,1.4814,1.5798,1.5845,1.4745,1.2841,1.0184,0.8677,0.8303,0.8869,1.1592,1.3198,1.3281,1.4021,1.4665,1.5208,1.5364,1.5513,1.5662,1.5527,1.5459,1.5452,1.5316,1.5242,1.5201,1.5072,1.4841,1.4543,1.4278,1.3519,1.2416,1.1434,1.102,1.0932,1.0392,0.9943,0.9933,1.0831,0.0,0.0,0.0,0.0,0.0,0.0,0.0,0.0,0.0,0.0,0.0,0.0,0.0,0.0,0.0,0.0,0.0,0.0,0.0,0.0,0.0,0.0,0.0,0.0,1.0397,1.2856,1.3102,1.3753,1.4202,1.3878,1.4055,1.4136,1.4122,1.4136,1.4129,1.4095,1.4251,1.434,1.4326,0.0,0.0,0.0,0.0,1.4312,1.4299,1.4299,1.4299,1.4299,1.4299,1.4299,1.4299,1.4299,1.4299,1.4299,1.4299,1.4211,1.4061,1.4105,1.3858,1.3383,1.271,1.2494,1.2574,1.2447,1.2549,0.0,0.0,0.0,0.0,0.0,0.0,0.0,0.0,-0.122,0.0083,0.3723,0.635,0.926,1.2856,1.4468,1.5459,1.5818,1.5006,1.3028,0.932,0.9876,1.0232,0.9918,1.1985,1.3487,1.4068,1.4692,1.5126,1.5364,1.552,1.5669,1.5811,1.5784,1.5771,1.5764,1.5737,1.5588,1.5364,1.5337,1.5153,1.4875,1.4821,1.4311,1.3591,1.3033,1.2413,1.1992,1.2561,1.1914,1.0915,1.1084,1.1024,1.034,0.87,0.822,0.0,0.0,0.0,0.0,0.0,0.0,0.0,0.0,0.0,0.0,0.0,0.0,0.0,0.0,0.0,0.0,0.0,0.0,0.0,1.1001,1.1952,1.2769,1.358,1.3941,1.4249,1.4387,1.4516,1.4563,1.4441,1.4536,1.4509,1.4272,1.4502,1.4597,1.4296,1.4403,0.0,1.4289,1.4289,1.4236,1.4299,1.4299,1.4299,1.4299,0.0,0.0,1.4299,1.4299,1.4299,1.4299,1.4299,1.4211,1.4068,1.4041,1.3783,1.3376,1.2774,1.2468,1.2422,1.2556,1.2542,1.2523,0.0,0.0,0.0,0.0,0.0,0.0,0.0,-0.108,-0.0328,0.1531,0.4487,0.7493,1.0076,1.1549,1.2384,1.2174,1.1361,1.0588,0.9954,1.029,1.0986,1.1893,1.3045,1.4089,1.4841,1.5289,1.5594,1.5744,1.5974,1.6117,1.6185,1.6185,1.6185,1.6185,1.6185,1.6103,1.5954,1.5811,1.5615,1.5398,1.5248,1.4929,1.4388,1.4006,1.3549,1.3125,1.3647,1.3248,1.2291,1.1864,1.1525,1.1301,1.0419,0.989,0.9116,0.0,0.0,0.0,0.0,0.0,0.0,0.0,0.0,0.0,0.0,0.0,0.0,0.0,0.0,0.6453,0.8095,0.0,1.1192,1.1864,1.2615,1.3385,1.4007,1.4343,1.4611,1.4457,1.4692,1.4679,1.4523,1.4516,1.4489,1.4229,1.4543,1.4624,1.4443,1.4699,1.4672,1.433,1.4509,1.4441,1.4299,1.4299,1.4299,1.4299,1.4299,1.4299,1.4299,1.4299,1.4299,1.4299,1.4299,1.4258,1.4177,1.4102,1.4029,1.3846,1.3184,1.299,1.2963,1.2963,1.2963,1.2949,0.0,0.0,0.0,0.0,0.0,0.0,0.0,-0.0704,-0.0163,0.0727,0.2916,0.514,0.7258,0.857,0.9018,0.849,0.803,0.8654,1.1257,1.0851,1.1553,1.379,1.4306,1.4869,1.5527,1.5805,1.6015,1.6171,1.6402,1.6537,1.6564,1.6564,1.6564,1.6564,1.6564,1.6551,1.6503,1.6266,1.6083,1.592,1.5649,1.5343,1.5011,1.4624,1.434,1.4095,1.4168,1.3582,1.2847,1.2393,1.2134,1.1886,1.1448,1.1298,1.0809,0.9659,0.826,0.0,0.0,0.0,0.0,0.0,0.0,0.0,0.0,0.0,0.6806,0.722,0.7713,0.8312,0.9297,1.0364,1.1441,1.1969,1.3125,1.4048,1.438,1.4787,1.4819,1.4698,1.4841,1.4767,1.443,1.4523,1.4496,1.437,1.4611,1.4672,1.4551,1.4774,1.4901,1.4557,1.4557,1.4489,1.434,1.434,1.434,1.434,1.4312,1.4312,1.434,1.4312,1.4299,1.4299,1.4299,1.4299,1.4292,1.4345,1.4312,1.4238,1.3682,1.3431,1.3422,1.3387,1.338,1.3374,0.0,0.0,0.0,0.0,0.0,0.0,0.0,0.0,0.0879,0.3545,0.2622,0.3079,0.6608,0.7643,0.7965,0.7956,0.8688,1.0302,1.297,1.2935,1.3311,1.457,1.5174,1.5649,1.6001,1.6171,1.6327,1.6469,1.6503,1.6592,1.672,1.672,1.672,1.672,1.672,1.6646,1.6517,1.6483,1.6388,1.6246,1.6076,1.575,1.5343,1.5153,1.4821,1.4222,1.3953,1.284,1.1482,1.2516,1.2874,1.2772,1.282,1.2582,1.2042,1.0834,0.9574,0.8262,0.6424,0.5925,0.6002,0.6276,0.6437,0.7011,0.0,0.0,0.8558,1.0215,1.0451,1.067,1.1147,1.1978,1.2628,1.3083,1.3844,1.4401,1.4835,1.4973,1.516,1.514,1.5215,1.5079,1.5121,1.5018,1.4984,1.4733,1.4957,1.4812,1.4375,1.4869,1.5066,1.5097,1.4531,1.4269,1.4303,1.4303,1.4303,1.4303,1.436,1.4367,1.4296,1.436,1.4299,1.4299,1.4299,1.4299,1.4299,1.4278,1.4352,1.4187,1.3693,1.3363,1.3365,1.3403,1.3356,1.348,0.0,0.0,0.0,0.0,0.0,0.0,0.0,0.0,0.0,0.2423,0.204,0.2147,0.3512,0.3891,0.4126,0.411,0.6455,0.9619,1.3679,1.3745,1.4109,1.5337,1.5716,1.6035,1.6334,1.649,1.6592,1.6653,1.6829,1.6944,1.7012,1.71,1.7141,1.7141,1.7141,1.7053,1.6904,1.6822,1.67,1.6551,1.6402,1.6123,1.5764,1.5438,1.4685,1.4015,1.4281,1.3063,0.0,1.1721,1.2182,1.2633,1.2444,1.2619,1.282,1.1957,1.058,0.9271,0.8706,0.7339,0.0,0.0,0.8299,0.8297,0.979,1.0071,1.0319,1.1118,1.1612,1.1965,1.2332,1.2935,1.3498,0.0,1.4175,1.4571,1.4943,1.5147,1.5181,1.5491,1.5101,1.4936,1.5156,1.5135,1.5101,1.4691,1.4798,1.4852,1.4812,1.4865,1.4832,1.4691,1.4685,1.4611,1.4276,1.4276,1.4229,1.4323,1.4634,1.4599,1.4387,1.4326,1.4299,1.4299,1.4299,1.4299,1.4299,1.4299,1.4211,1.4242,1.4,1.3878,1.3552,1.3485,1.3403,1.3383,0.0,0.0,0.0,0.0,0.0,0.0,0.0,0.0,0.0,0.0,0.1507,0.1612,0.132,0.1341,0.1356,0.1365,0.4696,0.854,1.2838,1.3848,1.4687,1.5791,1.6157,1.6449,1.67,1.6856,1.6937,1.6937,1.7148,1.7256,1.7256,1.7365,1.7419,1.7419,1.7419,1.7358,1.7249,1.7148,1.7012,1.6856,1.6707,1.6395,1.5961,1.5234,1.4504,1.3713,1.3964,1.2682,1.0969,1.0866,1.1201,1.1443,1.1409,1.1959,1.2445,1.1388,0.9921,0.8698,0.9091,0.0,0.0,0.9313,0.9697,0.9685,1.0803,1.1436,1.1748,1.1911,1.2406,1.2908,1.3214,1.3614,1.4,1.4306,1.4517,1.4778,1.497,1.5092,1.5396,1.568,1.4764,1.4289,1.4963,1.4991,1.5039,1.4772,1.4819,1.4865,1.512,1.4932,1.4692,1.4593,1.497,1.4916,1.4611,1.4611,1.4557,1.4631,1.4744,1.4668,1.4236,1.4333,1.4299,1.4299,1.4299,1.4299,1.4299,1.4299,1.4238,1.4311,1.427,1.418,1.3871,1.3789,1.3498,1.3451,0.0,0.0,0.0,0.0,0.0,0.0,0.0,0.0,0.0,0.0,0.0,0.0,0.0,0.134,0.1273,0.1302,0.4686,0.7883,1.0128,1.342,1.5444,1.5973,1.6558,1.7019,1.7168,1.7324,1.7399,1.7399,1.7412,1.7412,1.7412,1.7419,1.7419,1.7419,1.7419,1.7419,1.7412,1.7405,1.7317,1.7168,1.7026,1.6524,1.5778,1.5038,1.4292,1.358,1.28,1.1202,0.9484,1.0448,0.9856,0.8963,1.0028,1.0567,1.0335,0.8065,0.652,0.5535,0.5573,0.0,0.6194,0.877,1.027,1.1335,1.2074,1.2359,1.2637,1.322,1.3478,1.3688,1.398,1.4055,1.4163,1.4455,1.4577,1.4778,1.5162,1.5279,1.5396,1.6055,1.4024,1.304,0.0,1.4713,1.4964,1.5162,1.5099,1.512,1.5176,1.5169,1.5169,1.5162,1.5162,1.5162,1.5156,1.5156,1.5156,1.5142,1.4652,1.4397,1.4342,1.4249,1.4299,1.4299,1.4299,1.4299,1.4299,1.4299,1.4299,1.4278,1.4311,1.4249,1.4228,1.4242,1.3913,1.3405,0.0,0.0,0.0,0.0,0.0,0.0,0.0,0.0,0.0,0.0,0.0,0.0,0.0,0.0,0.0,0.0,0.3592,0.5793,0.7469,1.0925,1.3151,1.3572,1.5698,1.6958,1.6897,1.7243,1.7419,1.7419,1.7521,1.7568,1.7575,1.767,1.7724,1.7724,1.7724,1.767,1.7561,1.7467,1.7277,1.7019,1.6673,1.6083,1.5337,1.4692,1.3675,1.2522,0.0,1.1208,0.9933,0.9613,0.9193,0.8763,0.9494,0.9513,0.8989,0.7616,0.829,0.886,0.6142,0.0,0.9543,1.1712,1.2791,1.3262,1.324,1.3288,1.3424,1.3532,1.3264,1.2999,1.2992,1.2926,1.3058,1.3275,1.3872,1.4571,1.5327,1.4899,1.4869,1.5458,1.37,0.0,0.0,0.0,0.0,1.5142,1.5204,1.5252,1.5113,1.5591,1.5605,1.53,1.5208,1.5215,1.5113,1.5113,1.5252,1.5162,1.4577,1.4315,1.4355,1.4343,1.4256,1.4256,1.434,1.4299,1.4299,1.4299,1.4299,1.4292,1.4245,1.4224,1.4386,1.4228,1.4249,1.3919,0.0,0.0,0.0,0.0,0.0,0.0,0.0,0.0,0.0,0.0,0.0,0.0,0.0,0.0,0.0,0.0,0.0,0.3999,0.5656,0.853,1.0433,1.1224,1.3276,1.44,1.4361,1.4718,1.5131,1.519,1.5996,1.6247,1.6366,1.6976,1.7412,1.7467,1.7575,1.7568,1.7473,1.727,1.7161,1.6946,1.6234,1.5506,1.4826,1.394,1.2766,0.0,1.1496,1.0767,0.9929,0.9252,0.8778,0.8567,0.8772,0.8537,0.8002,0.7383,0.9758,1.1964,0.93,1.0141,1.1993,1.3546,1.4187,1.4426,1.3988,1.3939,1.3919,1.3789,1.2893,1.2006,1.1555,1.1773,1.2269,1.2445,1.3533,1.462,1.5399,1.4731,1.4464,1.4772,1.3508,1.2588,0.0,0.0,0.0,1.4774,1.5101,1.5224,1.5368,1.566,1.5695,1.5269,1.5357,1.5337,1.5181,1.5235,1.5167,1.5162,1.4869,1.4604,1.4551,1.4577,1.433,1.4316,1.436,1.4299,1.4299,1.4299,1.4299,1.4299,1.4299,1.4299,1.4285,1.4366,1.4235,1.4249,0.0,0.0,0.0,0.0,0.0,0.0,0.0,0.0,0.0,0.0,0.0,0.0,0.0,0.0,0.0,0.0,0.0,0.0,0.4667,0.6425,0.7889,0.8713,0.9397,0.9885,1.0318,1.0561,1.0913,1.1214,1.2991,1.3872,1.4158,1.5552,1.6429,1.6578,1.687,1.6998,1.6978,1.67,1.664,1.6623,1.5459,1.4583,1.4186,1.2651,1.1633,1.1118,1.0496,0.9982,0.947,0.9211,0.8739,0.8295,0.806,0.7578,0.7268,0.7293,1.0635,1.4174,1.4089,1.3694,1.3582,1.4203,1.4486,1.4667,1.4455,1.4285,1.427,1.4202,1.2682,1.1149,0.0,0.0,1.1622,1.179,1.3245,1.4451,1.507,1.4658,1.4269,0.0,0.0,0.0,0.0,0.0,0.0,1.433,0.0,1.5417,1.5577,1.5396,1.5276,1.5616,1.5609,1.554,1.5208,1.5147,1.5262,1.5176,1.5176,1.5285,1.5139,1.4785,1.4523,1.433,1.4367,1.4299,1.4299,1.4299,1.4299,1.4299,1.4299,1.4299,1.4299,1.4299,1.438,1.4201,0.0,0.0,0.0,0.0,0.0,0.0,0.0,0.0,0.0,0.0,0.0,0.0,0.0,0.0,0.0,0.0,0.0,0.0,0.2807,0.4941,0.623,0.6372,0.8594,0.9915,0.9943,1.0582,1.0982,1.1115,1.1641,1.2111,1.2185,1.3006,1.352,1.3565,1.4278,1.4544,1.436,1.4462,1.4381,1.4013,1.341,1.2896,1.2157,1.1667,1.088,1.0232,1.0271,0.9968,0.9325,0.9051,0.8622,0.7973,0.7766,0.7475,0.7427,0.8603,1.1156,1.3143,1.0926,1.1962,1.381,1.415,1.4496,1.4599,1.4634,1.4395,1.3916,1.263,1.2324,1.1729,0.0,0.0,0.0,0.9504,1.224,0.0,1.4565,1.4721,0.0,1.4262,0.0,1.4965,1.415,1.433,0.0,0.0,1.5561,1.5853,1.554,1.5657,1.554,1.5381,1.5472,1.5643,1.5918,1.5445,1.512,1.5126,1.5126,1.5113,1.5252,1.4801,1.4497,1.4295,1.4229,1.4299,1.4299,1.4299,1.4299,1.4299,1.4299,1.4299,1.4299,1.4299,1.4311,1.4242,0.0,0.0,0.0,0.0,0.0,0.0,0.0,0.0,0.0,0.0,0.0,0.0,0.0,0.0,0.0,0.0,0.0,0.0,0.0,0.3545,0.4278,0.4184,0.5809,0.674,0.6827,0.7298,0.7592,0.7833,0.8826,0.9462,0.9574,1.0871,1.1409,1.1632,1.237,1.2813,1.2807,1.2739,1.2656,0.0,0.0,1.1372,1.1105,1.0621,1.0053,0.9641,0.9993,1.0047,1.0001,0.9975,0.0,0.876,0.8933,0.8919,0.9226,1.0404,0.0,1.344,1.1752,1.257,1.4042,1.4199,1.4571,1.4798,1.4569,1.4686,1.3816,1.0969,1.0036,0.0,0.8324,0.0,0.0,0.0,0.0,0.0,1.5471,1.5486,1.5466,0.0,1.564,0.0,1.5238,1.5224,1.53,0.0,1.573,1.5779,1.5691,1.5787,1.5669,1.5529,1.5649,1.5842,1.5938,1.5588,1.5466,1.5384,1.5316,1.5282,1.5269,1.4903,1.4557,1.4537,0.0,1.4299,1.4299,1.4299,1.4299,1.4299,1.4299,1.4299,1.4299,1.4299,1.4373,1.4201,0.0,0.0,0.0,0.0,0.0,0.0,0.0,0.0,0.0,0.0,0.0,0.0,0.0,0.0,0.0,0.0,0.0,0.0,0.0,0.0,0.2579,0.2475,0.2578,0.2718,0.3105,0.317,0.3427,0.3788,0.5473,0.6489,0.6793,0.8648,0.9692,1.009,1.0626,1.1096,1.1375,1.1127,1.1262,1.1505,1.051,1.0172,1.0207,0.0,0.9238,0.9201,0.9507,0.9975,1.0552,1.0966,1.0711,1.0239,1.0724,1.1314,1.1884,1.2692,1.3605,1.4515,1.4541,1.4577,1.4487,1.4474,1.4899,1.5083,1.4166,1.4361,1.3514,0.9441,0.0,0.6557,0.6515,0.6602,0.6925,0.7356,0.0,1.623,1.689,1.6472,1.6187,1.6307,1.6237,1.6307,1.6173,1.6138,1.6124,1.5925,1.5779,1.5609,1.5655,1.5669,1.5911,1.5825,1.5866,1.5866,1.5825,1.5918,1.5662,1.5635,1.5486,1.5398,1.5364,1.4936,1.4726,1.4692,0.0,0.0,1.4299,1.4299,1.4299,1.4299,1.4299,1.4299,1.4299,1.4299,1.4285,1.4231,0.0,0.0,0.0,0.0,0.0,0.0,0.0,0.0,0.0,0.0,0.2542,0.2507,0.0,0.0,0.0,0.0,0.0,0.0,0.0,0.0,0.0,0.2563,0.2782,0.3016,0.3087,0.3426,0.368,0.3939,0.4502,0.4856,0.489,0.5972,0.6589,0.6724,0.7843,0.8297,0.8202,0.8613,0.854,0.8175,0.8549,0.8573,0.8407,0.8501,0.0,0.0,0.8744,0.8885,0.945,1.0609,1.1439,1.202,1.1942,1.3181,1.451,1.4769,1.5119,1.5614,1.596,1.5945,1.5703,1.5787,1.5744,1.4944,1.274,1.237,0.0,0.0,0.765,0.6473,0.6463,0.7152,0.8749,1.1708,1.4045,1.5637,1.6147,0.0,1.675,0.0,0.0,0.0,0.0,0.0,0.0,0.0,0.0,0.0,1.5818,1.5818,1.5778,1.5877,1.5913,1.5927,1.5877,1.5771,1.5757,1.5635,1.5486,1.5343,1.5208,1.4889,1.4672,1.4543,0.0,0.0,1.4299,1.4299,1.4299,1.4299,1.4299,1.4299,1.4299,1.4299,1.4224,1.4263,0.0,0.0,0.0,0.0,0.0,0.0,0.0,0.272,0.2826,0.2934,0.2909,0.2888,0.2884,0.3052,0.3159,0.0,0.0,0.0,0.0,0.0,0.0,0.0,0.3024,0.3093,0.3074,0.3194,0.3316,0.3524,0.0,0.3963,0.4051,0.4709,0.5087,0.5275,0.6076,0.6531,0.6827,0.7318,0.7465,0.7432,0.7813,0.7846,0.7733,0.0,0.0,0.0,0.0,0.8508,0.9096,1.0293,1.0904,1.1441,1.2532,1.3676,1.4563,1.4166,1.4935,1.5782,1.6112,1.6285,1.6357,1.6131,1.5235,1.3649,1.1087,0.0,0.0,0.0,0.7822,0.7135,0.6566,0.7616,0.0,0.9634,1.0709,1.2432,1.5262,1.6474,0.0,0.0,0.0,0.0,0.0,0.0,0.0,0.0,0.0,0.0,1.5981,1.5974,1.594,1.5872,1.6008,1.6015,1.5872,1.594,1.59,1.575,1.5601,1.5452,1.5289,1.4909,1.4699,1.4618,1.4394,0.0,1.4299,1.4299,1.4299,1.4299,1.4299,1.4299,1.4299,1.4299,1.4258,1.4345,0.0,0.0,0.0,0.0,0.0,0.0,0.0,0.2957,0.3022,0.3201,0.3401,0.3393,0.3248,0.3291,0.3293,0.0,0.0,0.0,0.0,0.0,0.0,0.0,0.0,0.0,0.0,0.0,0.0,0.0,0.0,0.0,0.0,0.0,0.0,0.0,0.0,0.5422,0.6037,0.6328,0.6687,0.0,0.0,0.7382,0.0,0.0,0.0,0.0,0.0,0.8385,0.9001,0.9926,1.0209,1.0548,1.24,1.3311,1.3594,1.3298,1.433,1.5485,1.5946,1.6447,1.6912,1.6371,1.4682,1.2747,1.0319,0.9468,0.0,0.8425,0.814,0.7581,0.6705,0.7491,0.786,0.0,0.728,0.9489,1.4256,1.6051,1.686,0.0,1.6849,0.0,0.0,0.0,0.0,0.0,0.0,0.0,1.609,1.6083,1.6083,1.6083,1.6083,1.6083,1.6083,1.6083,1.6001,1.5852,1.571,1.5527,1.5303,1.4916,1.4706,1.4631,1.4401,0.0,0.0,1.4299,1.4299,1.4299,1.4299,1.4299,1.4299,1.4299,1.4299,1.4278,0.0,0.0,0.0,0.0,0.0,0.0,0.0,0.3166,0.3422,0.3507,0.3679,0.3772,0.3768,0.3608,0.3431,0.0,0.0,0.0,0.0,0.0,0.0,0.0,0.0,0.0,0.0,0.0,0.0,0.0,0.0,0.0,0.0,0.0,0.0,0.0,0.0,0.0,0.0,0.5655,0.0,0.0,0.0,0.0,0.0,0.0,0.0,0.0,0.0,0.8227,0.8749,0.9523,1.0009,1.0293,1.1234,1.1625,1.2249,1.3441,0.0,0.0,1.6117,1.6544,1.6625,1.6398,1.5194,1.3687,1.1517,0.0,0.7304,0.9292,0.8729,0.7551,0.6644,0.6273,0.6219,0.0,0.0,0.8745,1.3787,1.5364,1.6074,1.5824,0.0,0.0,0.0,0.0,0.0,0.0,0.0,0.0,0.0,1.6083,1.6083,1.6083,1.6083,1.6083,1.6083,1.6083,1.6001,1.5852,1.571,1.5418,1.5004,1.4821,1.459,1.434,0.0,0.0,0.0,1.4299,1.4299,1.4299,1.4299,1.4299,1.4299,1.4299,1.4299,1.4278,0.0,0.0,0.0,0.0,0.0,0.0,0.3205,0.3402,0.3617,0.3898,0.4042,0.4141,0.3998,0.4092,0.4028,0.3694,0.0,0.0,0.0,0.0,0.0,0.0,0.0,0.0,0.0,0.0,0.0,0.0,0.0,0.0,0.0,0.0,0.0,0.0,0.0,0.0,0.0,0.0,0.0,0.0,0.0,0.0,0.0,0.0,0.0,0.0,0.0,0.0,0.8254,0.0,0.8713,0.8791,0.9205,0.9323,0.9678,0.0,1.2783,1.4212,1.4525,1.5618,1.6781,1.6334,1.5052,1.3526,1.2122,0.0,0.8336,0.8209,0.8062,0.7546,0.6358,0.6243,0.6325,0.6457,0.6762,0.0,1.0401,1.2087,1.3865,1.5899,0.0,0.0,0.0,0.0,0.0,0.0,0.0,0.0,0.0,1.613,1.6083,1.6083,1.6083,1.6083,1.6083,1.5988,1.5872,1.5723,1.5574,1.5357,1.5092,1.4943,1.4767,1.4563,0.0,0.0,0.0,1.4299,1.4299,1.4299,1.4299,1.4299,1.4299,1.4299,1.4299,1.4292,0.0,0.0,0.0,0.0,0.0,0.3253,0.3412,0.3578,0.3811,0.4061,0.4222,0.4262,0.4166,0.4346,0.4345,0.418,0.4207,0.0,0.0,0.0,0.0,0.0,0.0,0.0,0.0,0.0,0.2942,0.2917,0.0,0.0,0.0,0.0,0.0,0.0,0.0,0.0,0.0,0.0,0.0,0.0,0.0,0.0,0.0,0.0,0.0,0.0,0.0,0.0,0.0,0.0,0.0,0.7917,0.7987,0.7985,0.8161,0.9504,1.1384,1.3089,1.3528,1.4969,1.6312,1.6246,1.4923,1.3184,0.0,0.0,0.8729,0.7431,0.7531,0.7521,0.6156,0.6243,0.6627,0.681,0.7552,0.8223,0.8455,0.9772,1.2024,0.0,0.0,0.0,0.0,0.0,0.0,0.0,0.0,0.0,0.0,1.6164,1.6083,1.6083,1.6083,1.6062,1.6015,1.5906,1.5757,1.5567,1.5459,1.5309,1.5113,1.497,1.4821,1.4665,0.0,0.0,0.0,1.4299,1.4299,1.4299,1.4299,1.4299,1.4299,1.4299,1.4299,1.4299,0.0,0.0,0.0,0.0,0.0,0.0,0.3398,0.3717,0.3956,0.3989,0.4075,0.4175,0.4346,0.4162,0.418,0.4574,0.4617,0.0,0.0,0.0,0.0,0.0,0.0,0.0,0.0,0.0,0.3044,0.3025,0.263,0.2735,0.0,0.0,0.0,0.0,0.0,0.0,0.0,0.0,0.0,0.0,0.0,0.0,0.0,0.0,0.0,0.0,0.0,0.0,0.0,0.0,0.0,0.0,0.0,0.7915,0.8043,0.9455,1.0357,1.1306,1.3926,1.4839,1.5301,1.5825,1.4658,1.2764,0.0,0.9377,0.8071,0.7325,0.7598,0.7434,0.6143,0.6243,0.6761,0.7754,0.939,1.0265,0.9117,0.9381,1.0543,0.0,0.0,0.0,0.0,0.0,0.0,0.0,0.0,0.0,0.0,1.6164,1.6083,1.6083,1.6083,1.6008,1.5859,1.5852,1.5703,1.5411,1.5411,1.5255,1.497,1.4814,1.4658,0.0,0.0,0.0,0.0,1.4299,1.4299,1.4299,1.4299,1.4299,1.4299,1.4299,1.4299,1.4299,0.0,0.0,0.0,0.0,0.0,0.0,0.0,0.3613,0.3899,0.4087,0.4319,0.4393,0.436,0.4378,0.4377,0.4317,0.4423,0.0,0.0,0.0,0.0,0.0,0.0,0.0,0.0,0.0,0.2858,0.282,0.2578,0.2591,0.2859,0.2872,0.3119,0.0,0.0,0.0,0.0,0.0,0.0,0.0,0.0,0.0,0.0,0.0,0.0,0.0,0.0,0.0,0.0,0.0,0.0,0.0,0.0,0.0,0.0,0.8212,0.9325,1.0536,1.1665,1.2771,1.3509,1.3629,1.2561,1.1428,1.0694,0.9215,0.7975,0.7696,0.7793,0.7809,0.7286,0.734,0.7331,0.6934,0.7679,0.8747,0.0,0.0,0.0,0.0,0.0,0.0,0.0,0.0,0.0,0.0,0.0,0.0,0.0,1.6218,1.6083,1.6083,1.5981,1.59,1.5852,1.5649,1.5506,1.5411,1.5303,1.5208,1.5113,1.4964,0.0,0.0,0.0,0.0,0.0,1.4299,1.4299,1.4299,1.4299,1.4299,1.4299,1.4299,1.4299,1.4299,0.0,0.0,0.0,0.0,0.0,0.0,0.0,0.3658,0.3926,0.4178,0.43,0.429,0.4366,0.4267,0.4259,0.4177,0.4247,0.0,0.0,0.0,0.0,0.0,0.0,0.0,0.0,0.3103,0.2857,0.2711,0.2703,0.2734,0.2867,0.2986,0.3221,0.35,0.3732,0.0,0.0,0.0,0.0,0.0,0.0,0.0,0.5321,0.0,0.0,0.0,0.0,0.0,0.0,0.0,0.0,0.0,0.0,0.0,0.0,0.0,0.8324,0.9336,1.0252,1.1258,1.2111,1.2288,1.1348,1.034,1.0076,0.8984,0.7932,0.7888,0.7883,0.7782,0.7222,0.7142,0.699,0.6562,0.6753,0.0,0.0,0.0,0.0,0.0,0.0,0.0,0.0,0.0,0.0,0.0,0.0,0.0,0.0,0.0,1.5995,1.5995,1.59,1.5798,1.5689,1.5499,1.5377,1.5323,1.5228,1.5181,1.5174,1.4977,0.0,0.0,0.0,0.0,0.0,1.4299,1.4299,1.4299,1.4299,1.4299,1.4299,1.4299,1.4299,1.4299,0.0,0.0,0.0,0.0,0.0,0.0,0.0,0.3778,0.3955,0.4284,0.4001,0.3993,0.4365,0.3964,0.382,0.4158,0.0,0.0,0.0,0.0,0.0,0.0,0.0,0.0,0.339,0.3227,0.3019,0.283,0.2999,0.3081,0.3081,0.3299,0.3508,0.363,0.3745,0.3899,0.0,0.0,0.0,0.0,0.0,0.4474,0.0,0.0,0.0,0.0,0.0,0.0,0.0,0.0,0.0,0.0,0.0,0.0,0.0,0.0,0.0,0.0,0.0,1.0269,1.0678,1.1392,1.0708,0.9697,0.9125,0.8508,0.0,0.7899,0.7872,0.75,0.639,0.6077,0.6168,0.6937,0.0,0.0,0.0,0.0,0.0,0.0,0.0,0.0,0.0,0.0,0.0,0.0,0.0,0.0,0.0,0.0,1.5845,1.5839,1.5825,1.5689,1.5411,1.5398,1.5323,1.5181,1.5181,1.5174,1.516,1.4869,0.0,0.0,0.0,0.0,0.0,1.4299,1.4299,1.4299,1.4299,1.4299,1.4299,1.4299,1.4299,1.4299,0.0,0.0,0.0,0.0,0.0,0.0,0.0,0.0,0.0,0.0,0.4207,0.4186,0.425,0.3992,0.3822,0.0,0.0,0.0,0.0,0.0,0.0,0.0,0.0,0.0,0.3385,0.3224,0.3084,0.283,0.2999,0.3081,0.3081,0.3359,0.3493,0.3635,0.382,0.3905,0.0,0.0,0.0,0.0,0.4255,0.4313,0.0,0.0,0.0,0.0,0.5667,0.6039,0.0,0.0,0.0,0.0,0.0,0.0,0.0,0.0,0.7355,0.7464,0.7994,0.0,0.8772,0.8929,0.8828,0.8524,0.0,0.8193,0.7921,0.0,0.0,0.8049,0.8777,0.7271,0.7243,0.0,0.0,0.0,0.0,0.0,0.0,0.0,0.0,0.0,0.0,0.0,0.0,0.0,0.0,0.0,0.0,0.0,1.5805,1.5689,1.5574,1.5479,1.5411,1.5296,1.5215,1.5181,1.5181,1.5126,1.5018,1.4828,0.0,0.0,0.0,0.0,1.4299,1.4299,1.4299,1.4299,1.4299,1.4299,1.4299,1.4299,1.4299,1.4299,0.0,0.0,0.0,0.0,0.0,0.0,0.0,0.0,0.0,0.0,0.0,0.4313,0.4297,0.416,0.0,0.0,0.0,0.0,0.0,0.0,0.0,0.0,0.0,0.352,0.3421,0.3278,0.3104,0.2963,0.3158,0.3283,0.3283,0.3584,0.3726,0.3772,0.4028,0.4089,0.0,0.0,0.0,0.0,0.4261,0.0,0.0,0.0,0.0,0.0,0.5639,0.5866,0.0,0.6078,0.6317,0.644,0.0,0.0,0.0,0.0,0.7102,0.7053,0.7174,0.7459,0.7728,0.7738,0.7521,0.7401,0.7547,0.7521,0.7622,0.0,0.0,0.7531,0.9497,0.7754,0.0,0.0,0.0,0.0,0.0,0.0,0.0,0.0,0.0,0.0,0.0,0.0,0.0,0.0,0.0,0.0,0.0,0.0,1.5689,1.554,1.5323,1.5208,1.5208,1.5126,1.5052,1.4977,1.4977,1.4936,1.4862,1.4706,0.0,0.0,0.0,0.0,1.4299,1.4299,1.4299,1.4299,1.4299,1.4299,1.4299,1.4299,1.4299,1.4299,0.0,0.0,0.0,0.0,0.0,0.0,0.0,0.0,0.0,0.0,0.0,0.0,0.0,0.0,0.0,0.0,0.0,0.0,0.0,0.0,0.0,0.0,0.3864,0.3574,0.3442,0.3287,0.3215,0.3246,0.3474,0.358,0.3593,0.3909,0.404,0.4065,0.4219,0.4317,0.0,0.0,0.0,0.0,0.4287,0.0,0.0,0.0,0.0,0.0,0.0,0.0,0.0,0.5931,0.5978,0.6026,0.6401,0.0,0.0,0.0,0.0,0.0,0.6853,0.7102,0.7311,0.7334,0.7104,0.6836,0.702,0.7054,0.722,0.0,0.0,0.6634,0.8763,0.7712,0.0,0.0,0.0,0.0,0.0,0.0,0.0,0.0,0.0,0.0,0.0,0.0,0.0,0.0,0.0,0.0,0.0,0.0,0.0,1.5377,1.5113,1.495,1.4903,1.4923,1.4869,1.474,1.474,1.4726,1.4699,1.457,0.0,0.0,0.0,0.0,1.4299,1.4299,1.4299,1.4299,1.4299,1.4299,1.4299,1.4299,1.4299,1.4299,0.0,0.0,0.0,0.0,0.0,0.0,0.0,0.0,0.0,0.0,0.0,0.0,0.0,0.0,0.0,0.0,0.0,0.0,0.0,0.0,0.0,0.4342,0.3837,0.3533,0.3503,0.3325,0.3286,0.3454,0.3675,0.3752,0.3834,0.4313,0.4488,0.4354,0.4437,0.4319,0.4033,0.0,0.0,0.4319,0.4385,0.0,0.0,0.0,0.0,0.0,0.0,0.0,0.0,0.5686,0.5551,0.5452,0.6078,0.0,0.0,0.0,0.0,0.0,0.6853,0.6759,0.6857,0.7663,0.7886,0.7982,0.8301,0.7334,0.6769,0.7723,0.0,0.0,0.0,0.6268,0.0,0.0,0.0,0.0,0.0,0.0,0.0,0.0,0.0,0.0,0.0,0.0,0.0,0.0,0.0,0.0,0.0,0.0,0.0,1.5221,1.5059,1.4848,1.4584,1.4713,1.476,1.474,1.474,1.4672,1.455,1.4523,1.4448,0.0,0.0,1.4299,1.4299,1.4299,1.4299,1.4299,1.4299,1.4299,1.4299,1.4299,1.4299,1.4278,0.0,0.0,0.0,0.0,0.0,0.0,0.0,0.0,0.0,0.0,0.0,0.0,0.0,0.0,0.0,0.0,0.0,0.0,0.0,0.0,0.4417,0.4498,0.4074,0.3803,0.3735,0.3658,0.3666,0.3766,0.4099,0.4208,0.416,0.4456,0.4517,0.4421,0.4389,0.4214,0.4033,0.4084,0.4171,0.4278,0.0,0.0,0.0,0.0,0.0,0.0,0.0,0.0,0.0,0.0,0.5344,0.5298,0.5753,0.0,0.0,0.0,0.0,0.0,0.6312,0.6189,0.6512,0.773,0.7886,0.7889,0.854,0.8444,0.7878,0.0,0.0,0.0,0.0,0.0,0.0,0.0,0.0,0.0,0.0,0.0,0.0,0.0,0.0,0.0,0.0,0.0,0.0,0.0,0.0,0.0,0.0,0.0,0.0,0.0,1.4801,1.4652,1.4516,1.4509,1.4502,1.4502,1.4502,1.4468,1.4394,1.4394,1.436,1.4299,0.0,1.4299,1.4299,1.4299,1.4299,1.4299,1.4299,1.4299,1.4299,1.4299,1.4245,1.4156,0.0,0.0,0.0,0.0,0.0,0.0,0.0,0.0,0.0,0.0,0.0,0.0,0.0,0.0,0.0,0.0,0.0,0.0,0.0,0.0,0.4516,0.462,0.4464,0.4243,0.4085,0.4001,0.4079,0.4255,0.4588,0.4701,0.4732,0.4696,0.4566,0.4499,0.4293,0.4121,0.4095,0.3991,0.4051,0.4201,0.0,0.0,0.0,0.0,0.0,0.0,0.0,0.0,0.0,0.0,0.0,0.0,0.0,0.0,0.0,0.5917,0.5938,0.5841,0.5828,0.6139,0.657,0.7519,0.7627,0.7845,0.8921,0.9438,0.9079,0.0,0.0,0.0,0.0,0.0,0.0,0.0,0.0,0.0,0.0,0.0,0.0,0.0,0.0,0.0,0.0,0.0,0.0,0.0,0.0,0.0,0.0,0.0,0.0,0.0,1.457,1.4496,1.4462,1.4353,1.4299,1.4299,1.4299,1.4299,1.4299,1.4299,1.4299,1.4299,1.4299,1.4299,1.4299,1.4299,1.4299,1.4299,1.4299,1.4299,1.4299,1.4258,1.417,1.4048,0.0,0.0,0.0,0.0,0.0,0.0,0.0,0.0,0.0,0.0,0.0,0.0,0.0,0.0,0.0,0.0,0.0,0.0,0.0,0.0,0.481,0.4626,0.4683,0.4677,0.4532,0.4084,0.4227,0.5029,0.5057,0.5291,0.5811,0.5286,0.5022,0.4942,0.4237,0.4061,0.4239,0.4003,0.4052,0.4217,0.4494,0.0,0.0,0.0,0.0,0.0,0.0,0.0,0.0,0.0,0.0,0.0,0.0,0.0,0.539,0.5898,0.6103,0.6172,0.6048,0.6759,0.7503,0.7267,0.7558,0.8329,0.9949,0.9738,0.0,1.0326,0.0,0.0,0.0,0.0,0.0,0.0,0.0,0.0,0.0,0.0,0.0,0.0,0.0,0.0,0.0,0.0,0.0,0.0,0.0,0.0,0.0,0.0,0.0,0.0,0.0,1.4448,1.4319,1.4306,1.4299,1.4299,1.4299,1.4299,1.4299,1.4299,1.4299,1.4299,1.4299,1.4299,1.4299,1.4299,1.4299,1.4299,1.4299,1.4299,1.4285,1.4143,1.4082,1.4034,0.0,0.0,0.0,0.0,0.0,0.0,0.0,0.0,0.0,0.0,0.0,0.0,0.0,0.0,0.0,0.0,0.0,0.0,0.0,0.4902,0.4926,0.4938,0.4815,0.4683,0.4677,0.4762,0.4973,0.5318,0.5473,0.57,0.591,0.5145,0.4806,0.4648,0.4247,0.4176,0.4214,0.4252,0.4195,0.4196,0.4497,0.4442,0.0,0.0,0.0,0.0,0.0,0.0,0.0,0.0,0.4798,0.4674,0.4822,0.4984,0.515,0.5387,0.5521,0.5647,0.563,0.6536,0.737,0.753,0.8531,0.0,0.0,1.0892,1.1066,1.208,1.2287,0.0,0.0,0.0,0.0,0.0,0.0,0.0,0.0,0.0,0.0,0.0,0.0,0.0,0.0,0.0,0.0,0.0,0.0,0.0,0.0,0.0,0.0,0.0,0.0,1.4353,1.4299,1.4299,1.4299,1.4299,1.4299,1.4299,1.4299,1.4299,1.4299,1.4299,1.4299,1.4299,1.4299,1.4299,1.4299,1.4299,1.4299,1.4299,1.4278,1.4129,1.4014,1.3899,0.0,0.0,0.0,0.0,0.0,0.0,0.0,0.0,0.0,0.0,0.0,0.0,0.0,0.0,0.0,0.0,0.0,0.0,0.4925,0.4911,0.4971,0.5022,0.4827,0.4729,0.4739,0.5316,0.5594,0.5538,0.6014,0.6244,0.6053,0.528,0.486,0.463,0.4592,0.4462,0.4404,0.4624,0.4546,0.4338,0.4517,0.4466,0.0,0.0,0.0,0.0,0.0,0.0,0.0,0.0,0.4863,0.478,0.4685,0.4741,0.4912,0.503,0.5469,0.58,0.5431,0.6654,0.7955,0.7702,0.0,0.0,1.1023,1.1467,1.2013,1.2809,1.3446,0.0,0.0,0.0,0.0,0.0,0.0,0.0,0.0,0.0,0.0,0.0,0.0,0.0,0.0,0.0,0.0,0.0,0.0,0.0,0.0,0.0,0.0,0.0,0.0,1.4299,1.4299,1.4299,1.4299,1.4299,1.4299,1.4299,1.4299,1.4299,1.4299,1.4299,1.4299,1.4272,1.4231,1.4278,1.4299,1.4299,1.4299,1.4272,1.4211,1.4055,1.3905,1.3749,0.0,0.0,0.0,0.0,0.0,0.0,0.0,0.0,0.0,0.0,0.0,0.0,0.0,0.0,0.0,0.0,0.0,0.0,0.4931,0.4996,0.5029,0.4893,0.4826,0.4825,0.4865,0.5507,0.5867,0.591,0.6662,0.6814,0.6357,0.5816,0.5454,0.5133,0.5266,0.5103,0.4742,0.5138,0.5103,0.467,0.4635,0.4588,0.4542,0.0,0.0,0.0,0.0,0.0,0.0,0.0,0.4917,0.4714,0.4718,0.4708,0.4745,0.492,0.6147,0.7078,0.5565,0.7504,0.9443,0.7651,0.0,0.0,1.0655,1.1335,1.202,1.2413,1.3524,1.3793,1.1959,0.0,0.0,0.0,0.0,0.0,0.0,0.0,0.0,0.0,0.0,0.0,0.0,0.0,0.0,0.0,0.0,0.0,0.0,0.0,0.0,0.0,0.0,0.0,1.4299,1.4299,1.4299,1.4299,1.4299,1.4299,1.4299,1.4299,1.4299,1.4299,1.4299,1.4211,1.4082,1.4231,1.4299,1.4299,1.4299,1.4204,1.4048,1.3899,1.3749,1.3607,0.0,0.0,0.0,0.0,0.0,0.0,0.0,0.0,0.0,0.0,0.0,0.0,0.0,0.0,0.0,0.0,0.0,0.0,0.4898,0.5055,0.5067,0.5029,0.4918,0.4827,0.4739,0.5259,0.578,0.6217,0.6446,0.6244,0.5728,0.5201,0.4902,0.4914,0.5352,0.5312,0.48,0.5604,0.5416,0.4643,0.4831,0.4522,0.406,0.0,0.0,0.0,0.0,0.0,0.0,0.0,0.0,0.0,0.4944,0.5429,0.592,0.5265,0.6047,0.7061,0.6017,0.6197,0.0,0.8124,0.0,0.0,0.0,1.2108,0.0,0.0,1.4418,1.5449,0.0,0.0,0.0,0.0,0.0,0.0,0.0,0.0,0.0,0.0,0.0,0.0,0.0,0.0,0.0,0.0,0.0,0.0,0.0,0.0,0.0,0.0,0.0,0.0,1.4299,1.4299,1.4299,1.4299,1.4299,1.4299,1.4299,1.4299,1.4299,1.4292,1.4183,1.4116,1.4068,1.4,1.3973,1.3973,1.3973,1.3946,1.3892,1.3743,1.3661,1.3607,0.0,0.0,0.0,0.0,0.0,0.0,0.0,0.0,0.0,0.0,0.4755,0.4954,0.0,0.0,0.0,0.0,0.0,0.0,0.0,0.5107,0.5226,0.5226,0.5105,0.5021,0.5045,0.5354,0.5657,0.5866,0.6062,0.5966,0.5514,0.525,0.501,0.4985,0.5682,0.5647,0.4996,0.5882,0.567,0.4784,0.4945,0.4705,0.4324,0.0,0.0,0.0,0.0,0.0,0.0,0.0,0.0,0.0,0.5046,0.5489,0.596,0.5244,0.6303,0.7398,0.6695,0.6856,0.0,0.8284,0.9758,1.1545,1.3317,0.0,0.0,0.0,0.0,0.0,0.0,0.0,0.0,0.0,0.0,0.0,0.0,0.0,0.0,0.0,0.0,0.0,0.0,0.0,0.0,0.0,0.0,0.0,0.0,0.0,0.0,0.0,0.0,0.0,1.4116,1.4116,1.4116,1.4116,1.4116,1.4116,1.4122,1.4183,1.4211,1.4197,1.3987,1.3926,1.3966,1.3817,1.379,1.3838,1.3838,1.3804,1.3743,1.3661,1.3553,1.3437,0.0,0.0,0.3226,0.3431,0.0,0.0,0.0,0.0,0.0,0.0,0.4628,0.4755,0.0,0.0,0.0,0.0,0.0,0.0,0.0,0.0,0.5432,0.5446,0.5398,0.5402,0.552,0.5645,0.5468,0.5002,0.5716,0.577,0.5422,0.5629,0.5553,0.5398,0.6189,0.6147,0.5398,0.6039,0.5829,0.5036,0.5036,0.5012,0.5043,0.5043,0.0,0.0,0.0,0.0,0.0,0.0,0.0,0.0,0.5137,0.5175,0.5222,0.5124,0.653,0.7999,0.738,0.8622,0.0,0.8492,0.9751,0.0,1.693,1.7652,0.0,0.0,0.0,0.0,0.0,0.0,0.0,0.0,0.0,0.0,0.0,0.0,0.0,0.0,0.0,0.0,0.0,0.0,0.0,0.0,0.0,0.0,0.0,0.0,0.0,0.0,0.0,0.0,1.3844,1.3838,1.3838,0.0,1.3838,1.3838,1.3844,1.3987,1.4034,1.3994,1.3743,1.3682,1.3749,1.3634,1.3654,1.3763,1.3763,1.3682,1.3566,1.3566,1.339,1.3152,0.0,0.0,0.3092,0.3226,0.0,0.0,0.0,0.0,0.0,0.0,0.0,0.0,0.0,0.0,0.0,0.0,0.0,0.0,0.0,0.0,0.5413,0.5535,0.5571,0.5569,0.5591,0.5442,0.5291,0.5002,0.5213,0.5151,0.4894,0.5571,0.6135,0.6577,0.7074,0.7041,0.6479,0.6373,0.5881,0.5245,0.5328,0.5389,0.5515,0.5515,0.5604,0.0,0.0,0.0,0.0,0.0,0.0,0.0,0.5228,0.5598,0.6056,0.5065,0.6274,0.7704,0.6829,0.7877,0.0,0.0,1.3687,1.7627,1.5624,2.0635,2.3677,0.0,0.0,0.0,0.0,0.0,0.0,0.0,0.0,0.0,0.0,0.0,0.0,0.0,0.0,0.0,0.0,0.0,0.0,0.0,0.0,0.0,0.0,0.0,0.0,0.0,0.0,1.3871,1.3838,1.3838,1.3838,0.0,1.3838,1.3838,1.3844,1.3871,1.3763,1.3546,1.3607,1.3444,1.3159,1.3234,1.322,1.3152,1.3152,1.3132,1.3105,1.3105,1.3064,1.301,0.0,0.0,0.0,0.0,0.0,0.0,0.0,0.0,0.0,0.0,0.0,0.0,0.0,0.0,0.0,0.0,0.0,0.0,0.0,0.0,0.5706,0.5936,0.5942,0.5867,0.5628,0.5381,0.5061,0.4696,0.4722,0.4961,0.5595,0.6222,0.6867,0.7506,0.7485,0.7168,0.657,0.6141,0.5644,0.5288,0.5431,0.5567,0.5735,0.5735,0.5735,0.5735,0.5735,0.0,0.0,0.0,0.0,0.0,0.0,0.0,0.6029,0.5204,0.5686,0.6459,0.6616,0.0,0.0,1.1218,0.0,1.7413,1.7596,2.1363,2.3872,0.0,0.0,0.0,0.0,0.0,0.0,0.0,0.0,0.0,0.0,0.0,0.0,0.0,0.0,0.0,0.0,0.0,0.0,0.0,0.0,0.0,0.0,0.0,0.0,0.0,1.5916,1.4667,1.3526,1.3593,1.3559,1.3424,1.3559,1.3593,1.3519,1.3593,1.3505,1.3295,1.3302,1.318,1.2969,1.3044,1.303,1.2963,1.2963,1.2963,1.2963,1.2963,1.2915,1.2854,0.0,0.0,0.0,0.0,0.0,0.0,0.0,0.0,0.0,0.0,0.0,0.0,0.0,0.0,0.0,0.0,0.0,0.0,0.0,0.0,0.0,0.624,0.6325,0.6099,0.5622,0.5422,0.5026,0.454,0.4394,0.5239,0.6987,0.7115,0.7598,0.8517,0.8065,0.7448,0.6592,0.6051,0.5615,0.5325,0.5422,0.5621,0.5735,0.5735,0.5735,0.5735,0.5735,0.5735,0.5735,0.5735,0.0,0.0,0.0,0.0,0.5684,0.5315,0.5101,0.5335,0.645,0.7881,0.9837,1.3383,1.4252,0.0,1.9102,2.0801,2.1964,0.0,0.0,0.0,0.0,0.0,0.0,0.0,0.0,0.0,0.0,0.0,0.0,0.0,0.0,0.0,0.0,0.0,0.0,0.0,0.0,0.0,0.0,0.0,2.1674,1.7504,1.6973,1.5671,1.3139,1.3261,1.32,1.2963,1.3207,1.3261,1.3139,1.3241,1.3214,1.3091,1.2996,1.2929,1.2881,1.2908,1.2908,1.2881,1.2881,1.2881,1.2881,1.2881,1.28,1.2691,0.0,0.0,0.0,0.0,0.0,0.0,0.0,0.0,0.0,0.0,0.5141,0.5272,0.0,0.5545,0.5281,0.5105,0.5029,0.4924,0.4686,0.0,0.0,0.6023,0.6402,0.6331,0.586,0.5652,0.5341,0.4924,0.5015,0.6251,0.8437,0.7945,0.836,0.9657,0.9713,0.9088,0.7951,0.7269,0.6435,0.5443,0.5459,0.5621,0.5735,0.5735,0.5735,0.5735,0.5735,0.5735,0.5735,0.5735,0.5735,0.0,0.0,0.0,0.5652,0.5136,0.5087,0.5398,0.6272,0.0,1.2932,0.0,1.4365,1.4381,0.0,0.0,0.0,0.0,0.0,0.0,0.0,0.0,0.0,0.0,0.0,0.0,0.0,0.0,0.0,0.0,0.0,0.0,0.0,0.0,0.0,0.0,0.0,0.0,0.0,2.4368,2.1994,1.9344,1.7244,1.5081,1.299,1.301,1.3003,1.2963,1.3003,1.301,1.2983,1.2874,1.2807,1.2793,1.2908,1.2807,1.2576,1.2705,1.2684,1.2562,1.2562,1.2562,1.2562,1.2562,1.2549,1.2838,0.0,0.0,0.0,0.0,0.0,0.0,0.0,0.0,0.0,0.0,0.0,0.5488,0.5855,0.5565,0.5332,0.5133,0.5003,0.4938,0.4873,0.5491,0.5808,0.5874,0.6096,0.5938,0.5395,0.5168,0.4935,0.4696,0.4808,0.6031,0.8255,0.8502,0.9583,1.1327,1.088,0.9936,0.876,0.8394,0.7513,0.6337,0.6745,0.6557,0.5812,0.5746,0.5668,0.5737,0.57,0.5727,0.0,0.0,0.5727,0.5714,0.5547,0.0,0.0,0.0,0.5393,0.5577,0.6193,0.9336,1.2676,0.0,1.3735,1.4337,1.6191,0.0,0.0,0.0,0.0,0.0,0.0,0.0,0.0,0.0,0.0,0.0,0.0,0.0,0.0,0.0,0.0,0.0,0.0,0.0,0.0,0.0,0.0,0.0,2.6587,2.5177,2.3453,2.1279,2.0074,1.8397,1.6259,1.5264,1.4062,1.2963,1.2786,1.2745,1.2827,1.2589,1.2576,1.2725,1.2712,1.2583,1.2386,1.2454,1.244,1.2386,1.2386,1.2433,1.2656,1.3714,1.4176,1.4475,0.0,0.0,0.0,0.0,0.0,0.0,0.0,0.0,0.0,0.0,0.0,0.5632,0.6016,0.0,0.0,0.0,0.5032,0.4983,0.5075,0.5482,0.5744,0.5852,0.588,0.5628,0.5162,0.4929,0.4696,0.454,0.4678,0.5781,0.7879,0.8713,1.0136,1.2301,1.1827,1.0783,0.9434,0.9562,0.8675,0.741,0.8168,0.7732,0.6542,0.5969,0.5871,0.6084,0.6317,0.0,0.0,0.0,0.0,0.0,0.0,0.0,0.0,0.0,0.0,0.5914,0.6331,0.0,1.1323,1.2585,1.3006,1.3894,0.0,0.0,0.0,0.0,0.0,0.0,0.0,0.0,0.0,0.0,0.0,0.0,0.0,0.0,0.0,0.0,0.0,0.0,0.0,0.0,0.0,0.0,0.0,0.0,2.6172,2.5611,2.4353,2.2177,2.1895,2.0821,1.8501,1.6662,1.4735,1.2732,1.2501,1.2447,1.2556,1.2332,1.2651,1.3317,1.3195,1.3079,1.2979,1.2979,1.2979,1.2979,1.3015,1.3101,1.3501,1.5472,1.6223,1.6518,0.0,0.0,0.0,0.0,0.0,0.0,0.0,0.0,0.0,0.0,0.0,0.5783,0.6247,0.6073,0.5778,0.5507,0.5164,0.502,0.5032,0.5291,0.5639,0.5848,0.5938,0.0,0.5556,0.5162,0.5007,0.494,0.5002,0.604,0.7886,0.8336,0.973,1.2087,1.2711,1.1886,1.0158,1.0699,0.9848,0.8181,0.906,0.8847,0.8028,0.6653,0.6469,0.7118,0.0,0.0,0.0,0.0,0.0,0.0,0.0,0.0,0.0,0.0,0.0,0.0,0.0,0.7916,0.0,1.131,1.1911,1.288,0.0,0.0,0.0,0.0,0.0,0.0,0.0,0.0,0.0,0.0,0.0,0.0,0.0,0.0,0.0,0.0,0.0,0.0,0.0,0.0,0.0,0.0,0.0,2.5852,2.5571,2.4997,2.3761,2.1637,2.102,1.9882,1.7819,1.5919,1.4019,1.2108,1.2094,1.2088,1.2094,1.2081,1.3111,1.4728,1.472,1.4712,1.4703,1.4703,1.4703,1.472,1.5043,1.511,1.5419,1.7207,1.7951,1.8229,0.0,0.0,0.0,0.0,0.0,0.0,0.0,0.0,0.0,0.0,0.0,0.0,0.0,0.6013,0.5708,0.5513,0.5091,0.4726,0.4587,0.499,0.5225,0.5196,0.5431,0.5318,0.4851,0.4851,0.4779,0.4779,0.5002,0.5792,0.7228,0.7959,0.9109,1.0631,1.195,1.2123,1.1476,1.1937,1.1072,0.945,1.0145,0.9916,0.9114,0.906,0.0,0.0,0.0,0.0,0.0,0.0,0.0,0.0,0.0,0.0,0.0,0.0,0.0,0.6583,0.0,0.0,0.0,0.9672,1.0633,1.2294,1.5789,0.0,0.0,0.0,0.0,0.0,0.0,0.0,0.0,0.0,0.0,0.0,0.0,0.0,0.0,0.0,0.0,0.0,0.0,0.0,0.0,0.0,0.0,0.0,2.497,2.4569,2.3971,2.3049,2.2844,2.1126,1.7905,1.7175,1.5276,1.206,1.206,1.206,1.206,1.1959,1.2199,1.3066,1.5399,1.6415,1.6538,1.6538,1.6538,1.6547,1.6613,1.6727,1.7144,1.9052,1.9792,2.0095,0.0,0.0,0.0,0.0,0.0,0.0,0.0,0.0,0.0,0.0,0.0,0.0,0.0,0.0,0.5695,0.543,0.5047,0.4683,0.4499,0.4897,0.5121,0.5045,0.52,0.5162,0.4929,0.4779,0.4779,0.5012,0.5127,0.5684,0.6731,0.753,0.85,0.9444,1.0822,1.1483,1.1877,1.221,1.1576,1.0238,0.0,0.0,0.9975,0.0,0.0,0.0,0.0,0.0,0.0,0.0,0.0,0.0,0.0,0.0,0.0,0.0,0.0,0.0,0.6981,0.0,0.0,0.0,0.9976,1.1621,1.5035,0.0,0.0,0.0,0.0,0.0,0.0,0.0,0.0,0.0,0.0,0.0,0.0,0.0,0.0,0.0,0.0,0.0,0.0,0.0,0.0,0.0,0.0,0.0,2.4502,2.4115,2.3768,2.3474,2.346,2.187,1.8688,1.797,1.6066,1.2846,1.2178,1.1884,1.183,1.2301,1.2994,1.3754,1.6676,1.783,1.746,1.8028,1.8312,1.8322,1.8407,1.8524,1.8816,2.0852,2.1579,2.1734,0.0,0.0,0.0,0.0,0.0,0.0,0.0,0.0,0.0,0.5457,0.0,0.0,0.0,0.0,0.0,0.5329,0.5096,0.4969,0.4844,0.5095,0.5401,0.5562,0.5401,0.5473,0.586,0.509,0.5012,0.564,0.5371,0.5723,0.6583,0.7008,0.7835,0.884,0.9436,1.0257,1.129,1.1492,1.1133,1.0601,0.0,1.1664,1.0604,0.0,0.0,0.0,1.0009,1.2425,0.0,0.0,0.0,0.0,0.0,0.0,0.0,0.0,0.0,0.0,0.0,0.0,0.0,0.0,0.0,0.0,1.4009,0.0,0.0,0.0,0.0,0.0,0.0,0.0,0.0,0.0,0.0,0.0,0.0,0.0,0.0,0.0,0.0,0.0,0.0,0.0,0.0,0.0,0.0,2.4182,2.4182,2.3621,2.3166,2.2859,2.2846,2.1996,2.0039,1.8218,1.6279,1.4275,1.2514,1.1531,1.153,1.3184,1.5086,1.7228,1.8798,1.8694,1.7378,1.9356,2.0201,2.0225,2.0473,2.0568,2.085,2.2587,2.3313,2.3273,0.0,0.0,0.0,0.0,0.0,0.0,0.4974,0.4996,0.5162,0.0,0.0,0.0,0.6464,0.6404,0.6047,0.5419,0.5331,0.5291,0.5069,0.5172,0.5401,0.5562,0.5556,0.5479,0.5473,0.5401,0.5401,0.564,0.5705,0.6096,0.6686,0.6956,0.7402,0.8174,0.8822,0.9346,0.9923,1.07,0.0,1.1568,1.1411,1.1672,0.0,0.0,0.0,0.0,0.0,1.6774,2.0345,0.0,1.4953,1.4735,0.0,0.0,0.0,0.0,0.0,0.0,0.8209,0.0,0.0,0.0,0.0,0.0,1.1051,1.2758,0.0,0.0,0.0,0.0,0.0,0.0,0.0,0.0,0.0,0.0,0.0,0.0,0.0,0.0,0.0,0.0,0.0,0.0,0.0,0.0,2.4102,2.3794,2.3581,2.3207,2.2846,2.2552,2.2539,2.1475,1.9499,1.8958,1.7684,1.571,1.4001,1.3253,1.3324,1.3742,1.419,1.5059,1.7998,1.9128,1.9095,2.1233,2.216,2.216,2.225,2.2276,2.2276,2.2842,2.2993,2.3006,0.0,0.0,0.524,0.5168,0.0,0.5089,0.5089,0.5089,0.5263,0.0,0.0,0.0,0.6483,0.6538,0.6369,0.5822,0.5693,0.5627,0.5532,0.5623,0.572,0.5877,0.5877,0.5798,0.5792,0.5665,0.5774,0.6045,0.6066,0.6344,0.6803,0.6953,0.7342,0.7917,0.8369,0.8877,0.9335,0.9943,0.0,0.0,1.1287,0.0,0.0,1.5523,1.6728,0.0,0.0,0.0,2.3245,2.0626,1.8184,0.0,0.0,0.0,0.0,0.0,0.0,0.0,0.0,0.0,0.0,0.0,0.0,0.0,0.9824,1.0932,1.249,0.0,0.0,0.0,0.0,0.0,0.0,0.0,0.0,0.0,0.0,0.0,0.0,0.0,0.0,0.0,0.0,0.0,0.0,2.4035,2.3634,2.326,2.2966,2.2779,2.2539,2.2245,2.2231,2.1606,2.0364,1.9554,1.8551,1.7507,1.5721,1.4837,1.4873,1.5557,1.602,1.6353,1.8974,2.0352,2.0747,2.2015,2.2645,2.2859,2.2859,2.2859,2.2859,2.2859,2.2859,2.2886,0.0,0.0,0.5562,0.5341,0.5286,0.5208,0.5306,0.5306,0.5513,0.0,0.6071,0.6268,0.6708,0.6838,0.6763,0.6362,0.6108,0.6003,0.6108,0.6166,0.6263,0.6263,0.6263,0.6344,0.6498,0.5975,0.6039,0.6702,0.6423,0.6503,0.6932,0.7075,0.7486,0.7973,0.8218,0.8668,0.9236,0.9267,0.0,1.0048,1.1134,1.1921,0.0,0.0,1.9233,0.0,2.384,2.4516,2.4451,2.3133,2.0095,0.0,0.0,0.0,0.0,0.0,1.0703,0.0,0.0,0.0,0.0,0.0,0.0,0.0,0.9553,0.9648,0.9834,0.0,0.0,0.0,0.0,0.0,0.0,0.0,0.0,0.0,0.0,0.0,0.0,0.0,0.0,0.0,0.0,2.3821,2.3647,2.3581,2.3073,2.2645,2.2378,2.2378,2.2231,2.1951,2.1937,2.1924,2.1884,2.0278,1.9352,1.9244,1.7475,1.6542,1.6379,1.7949,1.8862,1.9229,2.0837,2.167,2.1937,2.1937,2.2285,2.2819,2.2819,2.2832,2.2859,2.2859,2.2859,2.2859,0.5789,0.5634,0.5514,0.5297,0.5333,0.5532,0.6051,0.5899,0.6031,0.686,0.7048,0.7175,0.7356,0.7289,0.7085,0.677,0.6595,0.646,0.637,0.6338,0.6407,0.6579,0.6579,0.6654,0.6654,0.6545,0.6558,0.6702,0.6713,0.6786,0.6932,0.7257,0.7667,0.8067,0.8652,0.9124,0.9549,0.0,0.0,0.9738,0.9913,0.0,1.4438,1.5252,1.8971,2.3863,2.4004,2.43,2.4233,0.0,2.0052,1.8551,0.0,0.0,0.0,0.0,0.0,0.0,0.0,0.0,0.0,0.0,0.0,0.0,0.9309,0.9647,1.0463,0.0,0.0,0.0,0.0,0.0,0.0,0.0,0.0,0.0,0.0,0.0,0.0,0.0,0.0,0.0,0.0,2.3073,2.2846,2.2365,2.2218,2.2138,2.2071,2.2071,2.1937,2.1643,2.163,2.1523,2.1283,2.0886,2.0732,2.0667,1.8899,1.8086,1.8233,1.8418,1.8594,1.8827,2.0541,2.1363,2.163,2.163,2.1977,2.2498,2.2498,2.2645,2.2859,2.2859,2.2859,2.2859,0.5879,0.5744,0.5675,0.5428,0.5471,0.5637,0.6055,0.6028,0.6298,0.6969,0.7547,0.7785,0.7785,0.7785,0.7629,0.7204,0.7822,0.793,0.7415,0.7753,0.7767,0.7361,0.6936,0.6817,0.6817,0.6742,0.677,0.6919,0.6926,0.6966,0.7215,0.7546,0.7927,0.834,0.88,0.9267,0.9673,0.0,1.0932,1.1467,1.0524,0.0,1.9801,2.0452,2.1475,2.2947,2.4661,2.4898,2.4249,2.1468,2.0246,0.0,0.0,1.6163,1.4966,0.0,1.2421,1.1431,0.0,0.0,0.0,0.963,0.0,0.0,0.0,0.9854,1.0327,0.0,0.0,0.0,0.0,0.0,0.0,0.0,0.0,0.0,0.0,0.0,0.0,0.0,0.0,0.0,0.0,2.2645,2.2458,2.2017,2.1991,2.1924,2.1777,2.1764,2.163,2.1336,2.1336,2.1256,2.1109,2.1109,2.1109,2.1109,2.0195,1.9876,1.9886,1.9876,1.9876,1.9886,2.0781,2.1189,2.1336,2.1336,2.167,2.2218,2.2365,2.2605,2.2859,2.2859,2.2859,2.2859,0.5846,0.5866,0.5841,0.5519,0.5609,0.5891,0.6098,0.618,0.6472,0.7073,0.7822,0.8369,0.8675,0.8698,0.863,0.849,0.9664,0.9947,0.0,0.0,0.0,0.8411,0.7474,0.7014,0.7014,0.6865,0.6898,0.7143,0.7027,0.7208,0.7598,0.7811,0.8238,0.8715,0.9052,0.9402,0.9784,0.0,0.0,1.4147,0.0,1.7269,2.4202,2.5505,2.4354,2.2178,2.5079,2.5458,2.4286,2.1841,0.0,2.0297,1.8144,1.7297,0.0,0.0,0.0,0.0,0.0,0.0,0.0,0.0,0.0,1.0145,0.0,0.0,0.0,0.0,0.0,0.0,0.0,0.0,0.0,0.0,0.0,0.0,0.0,0.0,0.0,0.0,0.0,0.0,0.0,2.1846,2.1857,2.1737,2.163,2.1537,2.147,2.147,2.1363,2.1122,2.1109,2.1109,2.1109,2.1109,2.1109,2.1109,2.1109,2.1109,2.1109,2.1109,2.1109,2.1109,2.1109,2.1109,2.1109,2.1109,2.1456,2.2004,2.2245,2.2552,2.2859,2.2859,2.2859,2.2859,0.5331,0.5524,0.5655,0.532,0.5714,0.6245,0.674,0.6783,0.6938,0.7644,0.8031,0.9021,0.0,0.0,0.0,0.0,0.0,0.0,1.1197,0.0,0.0,1.0166,0.8374,0.7319,0.7319,0.717,0.7197,0.7415,0.7401,0.7577,0.7856,0.8304,0.8575,0.8707,0.9664,0.0,0.0,0.0,1.4894,0.0,1.9063,2.0882,0.0,2.4096,2.5172,2.5714,2.4983,2.4873,2.4756,0.0,2.2403,2.1991,0.0,1.7409,0.0,0.0,0.0,0.0,0.0,0.0,0.0,0.0,1.224,0.0,0.0,0.0,0.0,0.0,0.0,0.0,0.0,0.0,0.0,0.0,0.0,0.0,0.0,0.0,0.0,0.0,0.0,0.0,0.0,0.0,2.0294,2.0788,2.0347,2.0374,2.1122,2.1162,2.1149,2.1109,2.1109,2.1109,2.1109,2.1109,2.1109,2.1109,2.1109,2.1109,2.1109,2.1109,2.1109,2.1109,2.1109,2.1109,2.1109,2.1109,2.1456,2.1991,2.2017,2.2378,2.2859,2.2859,2.2859,2.2859,0.5495,0.5566,0.5644,0.5521,0.5692,0.6031,0.6412,0.6714,0.7202,0.8119,0.8505,0.98,0.0,0.0,0.0,0.0,0.0,1.4711,0.0,0.0,1.2495,0.0,0.0,0.0,0.9552,0.8535,0.7998,0.8087,0.7812,0.7944,0.8288,0.8472,0.8737,0.0,0.9622,0.0,1.279,0.0,1.5991,0.0,0.0,0.0,0.0,2.0895,2.2986,2.5283,2.5037,2.4957,2.4569,0.0,2.2123,0.0,0.0,0.0,0.0,0.0,0.0,0.0,0.0,0.0,0.0,0.0,0.0,0.0,0.0,0.0,1.0707,0.0,0.0,0.0,0.0,0.0,0.0,0.0,0.0,0.0,0.0,0.0,0.0,0.0,0.0,0.0,0.0,0.0,0.0,0.0,0.0,1.9107,1.9331,2.0296,2.0775,2.0601,2.0935,2.1029,2.0855,2.1029,2.1109,2.1109,2.1109,2.0589,1.9546,1.9546,1.9546,1.9546,1.9546,2.0195,2.1109,2.1109,2.1456,2.1991,2.1991,2.2338,2.2859,2.2859,2.2859,2.2859,0.5689,0.5606,0.56,0.5633,0.5703,0.593,0.6172,0.0,0.0,0.0,0.0,0.0,1.5309,1.473,0.0,0.0,0.0,1.7978,0.0,0.0,1.4713,0.0,0.0,0.0,0.0,1.0156,0.9317,0.9317,0.8631,0.852,0.8966,0.882,0.9066,0.952,0.0,1.1199,1.3207,0.0,0.0,1.9318,1.905,1.9217,1.9697,1.9759,2.1829,2.4605,2.4863,2.4703,2.4289,2.2589,2.2244,0.0,1.8368,0.0,0.0,0.0,0.0,0.0,1.67,0.0,0.0,0.0,0.0,0.0,0.0,0.0,0.0,0.0,0.0,0.0,0.0,0.0,0.0,0.0,0.0,0.0,0.0,0.0,0.0,0.0,0.0,0.0,0.0,0.0,0.0,0.0,0.0,0.0,1.8332,1.9459,2.0156,2.0361,2.0762,2.0922,2.0802,2.1002,2.1109,2.1109,2.0589,1.9674,1.85,1.7988,1.7731,1.7859,1.8244,1.9164,2.0462,2.0935,2.1537,2.1991,2.2071,2.2418,2.2859,2.2859,2.2859,2.2859,0.5782,0.5633,0.0,0.0,0.0,0.0,0.0,0.0,0.0,0.0,0.0,0.0,0.0,0.0,0.0,0.0,0.0,2.264,1.9889,0.0,1.648,0.0,0.0,1.2151,0.0,0.0,1.1239,1.1531,1.0094,0.9638,0.9815,0.9815,0.9809,0.981,1.0697,1.0604,0.9912,1.2671,1.7242,2.2365,1.888,2.0192,2.4156,0.0,2.3036,2.4609,2.417,0.0,0.0,2.3292,2.3612,0.0,0.0,0.0,0.0,0.0,0.0,0.0,0.0,0.0,0.0,1.8403,0.0,0.0,0.0,0.0,1.1557,0.0,0.0,0.0,0.0,0.0,0.0,1.1246,0.0,0.0,0.0,0.0,0.0,0.0,0.0,0.0,0.0,0.0,0.0,0.0,0.0,0.0,1.8771,1.8728,1.9223,2.0641,2.0681,2.0815,2.1096,2.1109,2.1109,2.1109,1.9419,1.8512,1.8384,1.6689,1.5913,1.6043,1.7731,1.8512,1.878,2.076,2.171,2.2017,2.2298,2.2592,2.2859,2.2859,2.2859,2.2859,0.757,0.6926,0.0,0.0,0.0,0.0,0.0,0.8214,0.0,0.0,0.0,0.0,0.0,0.0,2.4021,0.0,0.0,2.4757,2.3392,2.0994,0.0,0.0,0.0,1.575,0.0,0.0,1.3028,1.3539,1.0972,1.0341,1.1461,1.0407,1.0108,1.0505,0.0,1.3101,0.0,0.0,0.0,0.0,0.0,2.0382,2.1654,0.0,0.0,2.4011,2.4063,2.3917,0.0,2.3647,2.3804,2.383,2.2668,2.2312,2.2052,2.1002,2.0585,0.0,0.0,0.0,2.0773,1.9614,0.0,0.0,0.0,0.0,0.0,0.0,0.0,0.0,0.0,0.0,1.318,1.216,1.1308,0.0,0.0,0.0,0.0,0.0,0.0,0.0,0.0,0.0,0.0,0.0,0.0,0.0,0.0,1.7687,1.8803,1.9519,2.0267,2.0211,1.9148,1.9333,1.8768,1.7602,1.7076,1.6172,1.5005,1.4493,1.4232,1.4232,1.6043,1.7474,1.864,2.0566,2.143,2.1724,2.2017,2.2311,2.2592,2.2792,2.2859,2.2859,0.9173,0.7942,0.0,0.0,0.0,0.0,0.0,0.0,0.0,0.0,1.7025,0.0,2.5929,0.0,2.7145,0.0,2.8672,2.7065,2.5504,2.3585,0.0,2.2178,1.9763,0.0,0.0,0.0,1.5551,1.5719,1.2809,1.1815,1.2699,1.1163,1.0564,1.099,0.0,1.3822,1.7065,0.0,1.8477,0.0,0.0,2.1922,0.0,0.0,2.4289,2.4035,0.0,2.3599,2.3258,2.3426,2.3282,2.3107,2.3006,2.2599,2.2168,2.1383,2.1443,2.162,2.1483,2.1897,0.0,0.0,2.0093,0.0,1.7958,0.0,0.0,0.0,0.0,0.0,0.0,0.0,0.0,1.3314,1.2214,1.1288,0.0,1.0573,0.0,0.0,0.0,0.0,0.0,0.0,0.0,0.0,0.0,0.0,0.0,0.0,1.8084,1.8931,1.996,2.0067,1.9013,1.8637,1.7988,1.6818,1.5524,1.4362,1.3325,1.2676,1.2413,1.2545,1.4884,1.656,1.7731,2.0298,2.1376,2.159,2.1991,2.2258,2.2458,2.2752,2.2859,2.2873,1.0181,0.8517,0.0,0.0,0.8151,0.0,0.0,0.0,1.6957,0.0,2.0764,2.4357,2.6569,2.8504,3.0175,3.1637,3.1209,0.0,2.64,2.5348,0.0,0.0,2.179,2.1623,2.2124,0.0,0.0,0.0,0.0,1.403,1.3707,1.2004,1.1189,1.1179,1.13,0.0,1.5296,1.3349,1.5629,2.0641,2.3549,2.4622,2.4512,2.3997,0.0,2.4337,2.3588,2.3147,2.2915,2.2926,2.2496,2.2097,2.2687,2.2004,2.1057,2.1062,2.1336,2.1652,2.1243,2.179,2.2231,2.139,0.0,0.0,0.0,0.0,1.7446,0.0,0.0,0.0,0.0,0.0,0.0,1.4561,1.3312,1.2035,1.0773,0.0,0.0,0.0,0.0,0.0,0.0,0.0,0.0,0.0,0.0,0.0,0.0,0.0,1.7104,1.8791,1.9773,2.0388,2.0571,1.9157,1.8384,1.8244,1.4754,1.3193,1.3062,1.1505,1.0717,1.0982,1.4362,1.5913,1.6322,2.009,2.1537,2.159,2.2164,2.2418,2.2472,2.2752,2.2873,2.2926,1.0645,0.871,0.7369,0.0,0.9355,1.0536,0.0,0.0,0.0,0.0,2.1345,2.4294,2.9119,3.1257,3.235,3.2639,3.2305,0.0,0.0,0.0,0.0,2.64,2.5352,2.4393,2.3484,2.1391,0.0,1.9625,0.0,0.0,1.5421,1.2491,1.1208,1.1197,0.0,0.0,1.3519,1.4819,1.8502,2.3634,2.534,2.534,0.0,0.0,2.32,2.3417,2.3426,2.3033,2.2496,2.2863,2.2794,2.2508,2.183,2.1371,2.1057,2.1062,2.147,2.2002,2.2367,2.2552,2.2645,2.2191,2.2191,2.2124,0.0,0.0,0.0,0.0,0.0,0.0,0.0,0.0,0.0,0.0,1.309,0.0,0.0,0.0,0.0,0.0,0.0,0.0,0.0,0.0,0.0,0.0,0.0,0.0,0.0,0.0,0.0,1.8311,1.9536,1.984,1.9054,1.744,1.5913,1.4623,1.2413,1.1372,1.1372,1.085,1.1372,1.2808,1.5014,1.6689,1.7999,2.0272,2.1229,2.1283,2.1871,2.2365,2.2752,2.2832,2.3006,2.322,1.1346,0.0,0.0,0.8488,0.0,0.0,1.3577,0.0,0.0,2.1618,2.4392,0.0,2.9052,3.1806,3.3347,3.3187,3.2786,0.0,0.0,0.0,0.0,2.7749,2.7068,2.6069,2.4882,2.3219,0.0,1.8994,0.0,0.0,1.5724,1.3236,1.2128,1.2253,0.0,1.3627,1.4106,1.6775,2.0389,2.4268,2.5049,0.0,0.0,2.3087,2.2974,2.2886,2.3211,2.2969,2.258,2.2875,2.2736,2.2367,2.2032,2.155,2.1083,2.1067,2.1567,2.2032,2.2484,2.2809,2.2819,2.2659,2.2848,2.2944,2.2376,2.2481,2.249,0.0,0.0,0.0,0.0,0.0,0.0,0.0,0.0,0.0,0.0,0.0,0.0,0.0,0.0,0.0,0.0,0.0,0.0,0.0,0.0,0.0,0.0,0.0,0.0,1.7644,1.922,1.9709,1.8994,1.7239,1.5629,1.4367,1.1931,1.0717,1.0717,1.0717,1.163,1.3456,1.5135,1.6947,1.864,2.0322,2.1189,2.1363,2.1951,2.2539,2.306,2.306,2.318,2.3354,1.2183,0.0,0.0,0.0,0.0,0.0,0.0,2.131,0.0,2.3996,0.0,2.9818,2.8207,3.1274,3.3414,3.3414,0.0,3.2024,3.0675,3.0515,2.9713,2.8003,2.7896,2.7321,2.6146,2.5133,0.0,0.0,0.0,0.0,1.5342,1.3995,1.3453,1.3648,0.0,0.0,0.0,1.8924,2.1417,2.3566,2.3722,2.3399,2.3007,2.2968,2.2935,2.2859,2.2859,2.2808,2.2807,2.2807,2.2413,2.1937,2.2507,2.2093,2.1252,2.1212,2.1635,2.211,2.2231,2.2605,2.2859,2.2859,2.3073,2.306,2.2285,2.2298,2.2311,2.1724,2.1659,0.0,0.0,0.0,0.0,0.0,0.0,0.0,0.0,0.0,0.0,0.0,0.0,0.0,0.0,0.0,0.0,0.0,0.0,0.0,0.0,0.0,0.0,1.7167,1.8893,0.0,1.965,0.0,1.6295,1.55,1.225,1.0717,1.0717,1.0717,1.1762,1.3709,1.5265,1.7076,1.8896,2.0462,2.1309,2.167,2.2205,2.2792,2.3327,2.3367,2.3407,2.3514,0.0,0.0,0.0,0.0,0.0,1.8489,2.2337,2.1591,2.1905,2.5893,2.78,0.0,2.9925,3.2124,3.3414,3.3414,3.3106,0.0,0.0,0.0,0.0,2.9219,2.8938,2.8439,2.7798,2.6033,2.4098,0.0,0.0,0.0,1.4395,1.4102,1.4071,1.4129,1.4581,0.0,1.8809,2.0221,0.0,2.2632,2.3014,2.3213,2.3313,2.3033,2.2899,2.2859,2.2859,2.2525,2.2203,2.2203,2.1813,2.133,2.1343,2.1943,2.2521,2.1988,2.2223,2.2673,2.2416,2.2606,2.2859,2.2859,2.2899,2.2899,2.2739,2.2752,2.2619,2.2031,2.1871,2.1733,2.1243,0.0,0.0,0.0,0.0,0.0,0.0,0.0,0.0,0.0,0.0,0.0,0.0,0.0,0.0,0.0,0.0,0.0,0.0,0.0,0.0,0.0,0.0,0.0,0.0,0.0,1.5404,1.4095,1.1777,1.0717,1.0717,1.0717,1.2413,1.5394,1.5784,1.7731,2.0716,2.0982,2.143,2.1937,2.2285,2.2792,2.3354,2.3607,2.3848,2.4062,0.0,0.0,0.0,0.0,0.0,0.0,0.0,2.4837,0.0,2.8217,2.9221,2.9886,3.0386,3.2164,3.3414,3.3414,3.3013,3.2639,3.2345,3.1356,3.0461,2.974,2.9138,0.0,2.8249,2.6375,2.4555,2.2627,0.0,0.0,0.0,1.5378,1.5195,1.5098,0.0,1.742,0.0,0.0,0.0,2.174,2.2629,2.3073,2.3225,2.2926,2.2859,2.2859,2.2859,2.2727,2.2351,2.2031,2.166,2.1537,2.1531,2.1943,2.2427,2.2435,2.2658,2.2917,2.2633,2.2795,2.2859,2.2859,2.2859,2.2859,2.2859,2.2739,2.2592,2.2472,2.2084,2.1666,2.1175,1.9699,0.0,0.0,0.0,0.0,0.0,0.0,0.0,0.0,0.0,0.0,0.0,0.0,0.0,0.0,0.0,0.0,0.0,0.0,0.0,0.0,0.0,0.0,0.0,0.0,0.0,1.413,1.1844,1.0717,1.0717,1.0717,1.2157,1.4623,1.5524,1.7345,1.9814,2.0886,2.159,2.2031,2.2472,2.302,2.3594,2.3888,2.4182,2.4422,0.0,1.4104,0.0,0.0,1.8339,0.0,0.0,2.8333,3.0452,3.0675,3.1062,3.1263,3.1036,3.2385,3.332,3.332,3.2786,3.2398,3.2278,3.1076,3.0167,2.9753,2.9005,2.8507,2.8275,2.6575,2.4541,0.0,0.0,0.0,0.0,0.0,0.0,0.0,0.0,0.0,0.0,0.0,2.0268,2.1503,2.2552,2.2859,2.2859,2.2859,2.2859,2.2859,2.2859,2.2862,2.2781,2.2032,2.1885,2.1951,2.2011,2.2149,2.2257,2.2646,2.2741,2.2846,2.2779,2.2819,2.2859,2.2859,2.2859,2.2859,2.2859,2.2632,2.2472,2.2645,2.2031,2.1397,2.0929,1.9679,0.0,0.0,0.0,0.0,0.0,0.0,0.0,0.0,0.0,0.0,0.0,0.0,0.0,0.0,0.0,0.0,0.0,0.0,0.0,0.0,0.0,1.6706,1.8214,0.0,1.4281,0.0,1.1799,1.0717,1.0717,1.0717,1.1894,1.397,1.5265,1.7109,1.9261,2.0928,2.1764,2.2124,2.2592,2.314,2.3701,2.3928,2.4235,2.4543,0.0,0.0,0.0,0.0,0.0,0.0,0.0,2.9475,3.1257,3.2919,3.3133,3.316,3.3133,3.3066,3.3013,3.3013,3.2478,3.1917,3.1383,3.0728,2.9993,2.9152,2.8791,2.8507,2.8275,2.641,2.4052,0.0,0.0,0.0,0.0,0.0,0.0,0.0,0.0,0.0,0.0,1.9799,2.0864,2.2217,2.2712,2.2859,2.2859,2.2859,2.2859,2.2859,2.2859,2.2846,2.2779,2.2472,2.2205,2.1991,2.2241,2.2471,2.2673,2.2257,2.2432,2.2806,2.2539,2.2659,2.2859,2.2859,2.2859,2.2859,2.2859,2.2632,2.2352,2.2111,2.1577,2.0975,2.0374,2.0618,2.0186,0.0,0.0,0.0,0.0,0.0,0.0,0.0,0.0,0.0,0.0,0.0,0.0,0.0,0.0,0.0,0.0,0.0,0.0,1.6993,0.0,1.7363,1.7928,1.5954,0.0,1.3815,1.1777,1.0717,1.0717,1.0717,1.2545,1.5654,1.5784,1.7984,2.1381,2.1537,2.1884,2.2378,2.2432,2.2832,2.3367,2.3407,2.3768,2.4249,0.0,0.0,0.0,0.0,0.0,0.0,0.0,3.1059,3.2549,3.3334,3.3414,3.3347,3.3173,3.3053,3.2906,3.2732,3.2185,3.1744,3.1503,3.0448,2.9673,2.9325,2.8684,2.8386,2.8157,2.6707,2.494,0.0,0.0,0.0,0.0,0.0,0.0,0.0,0.0,1.9037,2.023,2.0294,2.1058,2.231,2.2789,2.3094,2.3407,2.3253,2.3134,2.2974,2.314,2.302,2.2846,2.2726,2.2605,2.2485,2.2445,2.2606,2.2821,2.2552,2.2686,2.2792,2.2498,2.2632,2.2819,2.2645,2.2726,2.2859,2.2859,2.2498,2.2178,2.2231,2.1777,2.1256,2.0842,2.0684,2.0348,0.0,0.0,0.0,0.0,0.0,0.0,0.0,0.0,0.0,0.0,0.0,0.0,0.0,0.0,0.0,0.0,0.0,0.0,1.6218,0.0,1.6692,1.8161,1.5416,1.4041,1.4164,1.1776,1.0765,1.0853,1.1806,1.4101,1.7474,1.7474,1.9052,2.155,2.155,2.1897,2.2432,2.2619,2.2953,2.3354,2.3527,2.3741,2.3968,2.4393,0.0,2.4296,0.0,2.7779,2.9598,3.0597,3.2071,3.316,3.316,3.3227,3.32,3.3,3.2826,3.2639,3.2438,3.1877,3.1503,3.1423,3.0274,2.9539,2.9366,2.8657,0.0,2.815,2.7161,2.5869,2.4175,2.3222,0.0,0.0,0.0,0.0,0.0,1.9548,2.0401,2.1376,2.1537,2.1939,2.2696,2.3121,2.3426,2.3768,2.3612,2.3426,2.3021,2.3174,2.3113,2.2859,2.2859,2.2859,2.2819,2.2619,2.2699,2.2846,2.2752,2.2726,2.2672,2.2378,2.2498,2.2659,2.2365,2.2512,2.2726,2.2726,2.2352,2.2017,2.2138,2.1764,2.1363,2.1149,2.0775,2.0508,2.078,0.0,0.0,0.0,0.0,0.0,0.0,0.0,1.5564,1.6182,0.0,0.0,0.0,0.0,0.0,0.0,0.0,0.0,0.0,0.0,0.0,0.0,1.587,1.4828,1.5691,1.28,1.1636,1.1745,1.3336,1.5714,1.8512,1.9108,2.0348,2.1683,2.1683,2.2017,2.2565,2.2686,2.2926,2.322,2.3434,2.3567,2.3674,2.7762,2.7629,2.7883,2.9953,3.0568,3.0782,3.0795,3.1797,3.2559,3.2559,3.2799,3.2986,3.2973,3.2465,3.2118,3.2104,3.157,3.1116,3.0822,3.0247,2.9659,0.0,0.0,2.8457,2.815,2.7562,2.632,2.4635,0.0,0.0,2.0605,0.0,2.0138,2.0267,2.1585,2.2109,2.2017,2.3364,2.3817,2.3443,2.391,2.3924,2.3768,2.3768,2.3735,2.348,2.3021,2.2961,2.2859,2.2859,2.2859,2.2859,2.2859,2.2859,2.2806,2.2512,2.2418,2.2365,2.2071,2.2205,2.2352,2.2071,2.2205,2.2418,2.2418,2.2191,2.1911,2.1617,2.1323,2.1109,2.1109,2.1096,2.0909,2.0334,0.0,0.0,0.0,0.0,0.0,0.0,1.66,1.5681,1.5134,0.0,0.0,0.0,0.0,0.0,0.0,0.0,0.0,1.6671,1.7426,0.0,1.9649,1.8152,1.7753,1.8372,1.5092,1.347,1.347,1.5329,1.6912,1.8652,2.0631,2.171,2.1977,2.1977,2.2325,2.2832,2.2539,2.2605,2.2873,2.2873,2.3073,2.334,2.9165,2.9686,3.0234,3.1102,3.149,3.1757,3.1957,3.2305,3.2612,3.2812,3.2572,3.2452,3.2666,3.2519,3.2158,0.0,3.1156,3.0808,0.0,2.9953,2.9539,2.9352,2.8871,2.8564,2.8457,2.8063,2.7163,2.5462,0.0,0.0,0.0,2.1421,2.1288,2.1456,2.2031,2.2632,2.322,2.3728,2.4025,2.4062,2.4233,2.4354,2.4369,2.4369,2.4182,2.3745,2.3545,2.3434,2.3153,2.2939,2.2859,2.2859,2.2859,2.2859,2.2806,2.2512,2.2565,2.2565,2.1884,2.2044,2.2352,2.2058,2.2058,2.2178,2.2378,2.2044,2.1603,2.1309,2.1176,2.1109,2.1109,2.1109,2.0975,2.0835,0.0,0.0,0.0,0.0,0.0,0.0,0.0,1.5787,0.0,1.5127,0.0,0.0,0.0,0.0,0.0,0.0,0.0,0.0,1.8148,0.0,1.9994,1.8744,1.83,1.8512,1.6409,1.6195,1.755,1.7951,1.9255,2.0889,2.1331,2.183,2.2285,2.2285,2.2512,2.2846,2.2752,2.2779,2.2859,2.2859,2.2926,2.306,3.0154,3.0862,3.149,3.1784,3.1984,3.2171,3.2345,3.2291,3.2278,3.2465,3.2265,3.2131,3.2211,3.2318,0.0,3.145,3.1022,3.0715,3.0528,2.9967,2.9606,2.9486,2.9032,2.8724,2.8604,0.0,0.0,2.6441,2.5852,2.4877,2.3243,2.2768,2.2699,2.2993,2.3287,2.3794,2.4422,2.4461,2.4515,2.4529,2.4582,2.4636,2.4636,2.4636,2.4302,2.3997,2.3718,2.3567,2.3287,2.2966,2.2859,2.2859,2.2859,2.2859,2.2779,2.2378,2.2392,2.2392,2.1737,2.1897,2.2191,2.1897,2.1911,2.2031,2.2218,2.1897,2.1537,2.1456,2.1269,2.1109,2.1109,2.1109,2.1042,2.1105,0.0,2.0362,0.0,0.0,0.0,0.0,0.0,0.0,0.0,1.5784,0.0,0.0,0.0,0.0,0.0,0.0,0.0,1.7303,1.88,0.0,2.0315,1.9658,1.9431,1.9419,1.808,1.805,1.9287,1.9381,2.033,2.1977,2.179,2.1977,2.2418,2.2418,2.2592,2.2859,2.2859,2.2859,2.2859,2.2859,2.2859,2.2913,3.0768,3.1276,0.0,0.0,3.2078,0.0,3.2078,3.1837,3.1677,3.1704,3.1917,3.1971,3.1704,3.1891,3.1931,3.1637,0.0,0.0,0.0,3.0221,2.978,2.9499,2.9205,0.0,2.8617,2.831,2.7989,2.7669,2.6082,2.5144,2.4661,2.4302,2.4289,2.4743,2.4997,2.5277,2.5531,2.5237,2.5104,2.505,2.4783,2.4649,2.4636,2.4636,2.4316,2.4024,2.3705,2.3439,2.33,2.2979,2.2859,2.2859,2.2859,2.2859,2.2739,2.2151,2.2017,2.1977,2.1643,2.1777,2.1951,2.1683,2.1817,2.2004,2.1991,2.1764,2.163,2.1897,2.151,2.1109,2.1109,2.1109,2.1096,2.1082,2.0575,2.008,1.972,0.0,0.0,0.0,0.0,0.0,0.0,1.6406,1.6406,0.0,0.0,0.0,0.0,0.0,1.711,1.8122,1.961,2.0606,2.0615,2.0889,2.1044,2.1203,2.0022,1.9456,1.948,1.9705,2.0637,2.2044,2.2031,2.2178,2.2445,2.2445,2.2605,2.2859,2.2859,2.2859,2.2859,2.2859,2.2859,2.2886,0.0,0.0,3.169,3.1757,3.177,3.177,3.177,3.1717,3.1744,3.1971,3.1864,3.1744,3.1677,3.153,3.1316,3.1022,3.0875,3.0608,3.0154,2.9993,2.978,2.9499,2.9205,2.8898,2.8617,2.831,2.8063,2.7552,2.6573,2.6128,2.6044,2.5496,2.5523,2.5638,2.5478,2.5571,2.5825,2.5531,2.5277,2.5077,2.4997,2.4836,2.4636,2.4636,2.4596,2.4462,2.3941,2.3728,2.3581,2.3046,2.2859,2.2859,2.2859,2.2859,2.2739,2.2151,2.2298,2.2498,2.175,2.1924,2.2298,2.2231,2.2271,2.2258,2.2031,2.1764,2.1577,2.1643,2.1363,2.1109,2.1109,2.1109,2.1042,2.0815,2.0107,1.9372,1.8883,1.797,0.0,0.0,1.7048,1.6972,1.7154,1.7118,1.7121,0.0,0.0,0.0,0.0,1.8451,1.881,1.9021,2.0077,2.0711,2.0982,2.1275,2.1607,2.2111,2.1844,2.1745,2.1952,2.1797,2.2093,2.2645,2.2418,2.2485,2.2752,2.2752,2.2806,2.2859,2.2859,2.2859,2.2859,2.2859,2.2859,2.2913,3.1423,3.1557,3.1664,3.1664,3.1664,3.1664,3.1664,3.1664,3.173,3.1877,3.177,3.1664,3.1664,3.153,3.1303,3.1022,3.0862,3.0595,3.0154,3.0114,2.9927,2.9499,2.9205,2.8898,2.8617,2.831,2.8103,2.7838,2.7148,2.6827,2.6733,2.6253,2.6199,2.6333,2.6052,2.5999,2.6132,2.5838,2.5625,2.5451,2.5184,2.4983,2.4823,2.469,2.4556,2.4382,2.3928,2.3688,2.3641,2.302,2.2859,2.2859,2.2859,2.2859,2.2779,2.2311,2.2405,2.2552,2.2071,2.2178,2.2418,2.2418,2.2311,2.2218,2.2191,2.1964,2.179,2.1924,2.1603,2.1309,2.1309,2.1203,2.0922,2.0361,1.9641,1.8836,1.7991,1.7331,0.0,1.7133,1.737,1.7675,1.7969,1.8103,1.8087,1.7825,0.0,0.0,1.8477,1.9349,1.976,1.976,2.0481,2.1015,2.1309,2.1603,2.1503,2.099,2.1116,2.07,2.015,1.9989,2.061,2.1584,2.1306,2.1752,2.2846,2.2712,2.2739,2.2859,2.2859,2.2859,2.2859,2.2859,2.2859,2.2913,3.1664,3.1664,3.1664,3.1664,3.1664,3.1664,3.1664,3.1664,3.165,3.161,3.1637,3.1637,3.1543,3.1583,3.1476,3.1183,3.0929,3.0675,3.0381,3.0354,3.0074,2.9446,2.9179,2.8885,2.8537,2.8283,2.8184,2.8261,2.7696,2.737,2.7268,2.6826,2.6693,2.6814,2.6613,2.648,2.6373,2.6172,2.6039,2.5905,2.5371,2.5117,2.505,2.4756,2.4489,2.4235,2.3941,2.3674,2.3561,2.306,2.2926,2.2913,2.2873,2.2859,2.2819,2.2565,2.2512,2.2539,2.2445,2.2458,2.2485,2.2485,2.2298,2.2178,2.2432,2.2258,2.2124,2.2365,2.1991,2.1603,2.1563,2.1309,2.0842,1.988,1.9141,1.8398,1.7381,0.0,1.6977,1.7383,1.7859,1.8424,1.8731,1.9158,1.9158,1.849,1.9052,1.9265,0.0,1.9826,2.0388,2.0428,2.0922,2.1336,2.1683,2.1661,2.0851,1.9405,1.9209,1.8342,1.6827,1.7157,1.8229,2.0039,1.9828,2.0959,2.2846,2.2592,2.2632,2.2859,2.2859,2.2859,2.2859,2.2859,2.2859,2.2913,3.1623,3.1664,3.1664,3.1664,3.1664,3.1664,3.1664,3.1664,3.1583,3.133,3.1517,3.1476,3.0982,3.1142,3.1183,3.0889,3.0822,3.0675,3.0381,3.0354,2.998,2.9152,2.9072,2.8778,2.823,2.8163,2.8184,2.8261,2.8081,2.7919,2.7622,2.7771,2.7446,2.6827,2.7041,2.6854,2.64,2.66,2.64,2.5932,2.5585,2.5304,2.505,2.4756,2.4609,2.4529,2.4235,2.4102,2.3824,2.3588,2.3247,2.2902,2.2939,2.2859,2.2859,2.2806,2.2979,2.3073,2.2552,2.2605,2.2792,2.2792,2.2766,2.2739,2.2779,2.2565,2.2365,2.2405,2.2151,2.1844,2.1603,2.1309,2.077,1.9537,1.8713,1.7909,1.7277,0.0,1.7685,1.8207,1.9052,1.9639,1.9933,1.9826,1.988,2.0241,1.9933,2.0013,2.0668,2.0882,2.1082,2.1336,2.143,2.1737,2.2271,2.0687,1.9995,1.9933,1.8304,1.7477,1.7197,1.7238,1.8229,2.0051,2.0016,2.1133,2.2859,2.2819,2.2819,2.2859,2.2859,2.2859,2.2859,2.2859,2.2859,2.2913,3.161,3.1664,3.1664,3.1664,3.1664,3.1664,3.1664,3.1664,3.1623,3.1476,3.1583,3.157,3.1289,3.1383,3.141,3.1276,3.1116,3.0902,3.0608,3.0448,2.9967,2.9085,2.9045,2.8764,2.8163,2.8136,2.8251,2.813,2.813,2.8063,2.7915,2.7933,2.762,2.7295,2.7281,2.7028,2.6627,2.676,2.6573,2.6146,2.5692,2.5438,2.5264,2.481,2.4543,2.4382,2.4249,2.4102,2.3928,2.3647,2.3413,2.3386,2.324,2.3034,2.3021,2.334,2.334,2.33,2.318,2.3126,2.3113,2.3113,2.3113,2.3073,2.2899,2.2886,2.2859,2.2686,2.2418,2.2124,2.1844,2.1416,2.0618,1.9261,1.8557,0.0,0.0,1.7367,1.8053,1.9074,1.9801,2.0454,2.0895,2.0681,2.0615,2.0882,2.0508,2.0588,2.1309,2.1349,2.155,2.2004,2.2017,2.2151,2.2418,2.0773,1.9381,1.8519,1.6545,1.5141,1.4156,1.4156,1.5849,1.8508,1.8508,2.019,2.2859,2.2859,2.2859,2.2859,2.2859,2.2859,2.2859,2.2859,2.2859,2.2913,3.1597,3.1664,3.1664,3.1664,3.1664,3.1664,3.1664,3.1664,3.1637,3.157,3.1623,3.1637,3.157,3.1623,3.1637,3.157,3.1303,3.0996,3.0715,3.0421,2.99,2.9072,2.8911,2.8617,2.815,2.8136,2.8136,2.8136,2.8136,2.8136,2.8136,2.7896,2.7762,2.7682,2.7535,2.7228,2.6827,2.6894,2.672,2.6346,2.5825,2.5611,2.5558,2.5037,2.4703,2.4502,2.4436,2.4262,2.4062,2.3901,2.3875,2.4018,2.3794,2.3599,2.3443,2.3768,2.3661,2.3567,2.3728,2.3607,2.3434,2.3434,2.3434,2.3367,2.3126,2.3207,2.326,2.302,2.2726,2.2432,2.2138,2.1603,2.0697,1.9274,0.0,0.0,0.0,1.7764,1.8503,1.9719,2.0491,2.1082,2.1603,2.1443,2.1309,2.1309,2.1109,2.1176,2.163,2.1724,2.1991,2.2498,2.2525,2.2525,2.2525,2.0934,1.9077,1.7117,1.5274,1.3452,1.1619,1.1619,1.3452,1.6545,1.6967,1.9077,2.2297,2.2722,2.2859,2.2859,2.2859,2.2859,2.2859,2.2859,2.2859,2.2762,3.1557,3.1664,3.1664,3.1664,3.1664,3.1664,3.1664,3.1664,3.157,3.1289,3.1503,3.157,3.1289,3.1503,3.1557,3.1276,3.0996,3.0702,3.0408,3.0114,2.9673,2.9072,2.8511,2.819,2.8136,2.8136,2.8136,2.8136,2.8136,2.8136,2.8136,2.8123,2.7963,2.7696,2.7963,2.7781,2.7028,2.7121,2.6907,2.636,2.6052,2.5919,2.5892,2.5571,2.5438,2.5384,2.5117,2.4834,2.4565,2.4515,2.4499,2.4603,2.4501,2.4561,2.4419,2.4093,2.4098,2.4088,2.3834,2.3754,2.3741,2.3741,2.3741,2.3728,2.3714,2.3514,2.3313,2.33,2.3046,2.2739,2.2445,2.1911,2.1195,1.9824,0.0,0.0,1.8046,1.8854,1.9732,2.0093,2.0975,2.1617,2.1924,2.1937,2.1924,2.1924,2.1897,2.1911,2.1951,2.2205,2.2498,2.2819,2.2832,2.2832,2.2832,2.1032,1.9077,1.7117,1.5274,1.3452,1.1619,1.1619,1.2745,1.4716,1.6404,1.8369,2.0479,2.216,2.2859,2.2859,2.2859,2.2859,2.2859,2.2859,2.2859,2.2598,3.1557,3.296,3.3873,3.3873,3.3873,3.3873,3.3873,3.2583,3.1623,3.1517,3.1597,3.1623,3.1517,3.1436,3.1343,3.1236,3.0795,3.0394,3.01,2.9806,2.9472,2.9058,2.8457,2.8136,2.8136,2.8136,2.8136,2.8136,2.8136,2.8136,2.8136,2.8136,2.8083,2.7963,2.809,2.7767,2.7094,2.7189,2.676,2.636,2.6079,2.5959,2.5919,2.5625,2.5518,2.5504,2.5384,2.5344,2.5139,2.5077,2.501,2.4997,2.5066,2.5188,2.5188,2.5188,2.4972,2.473,2.4609,2.4315,2.4035,2.4035,2.4035,2.3995,2.3808,2.3821,2.3821,2.3634,2.3354,2.306,2.2752,2.2218,2.1423,2.0387,0.0,1.9483,1.9013,1.965,2.0305,2.0989,2.167,2.2138,2.2245,2.2258,2.2258,2.2258,2.2432,2.2525,2.2525,2.2632,2.2739,2.2859,2.2859,2.2953,2.3153,2.1131,1.9854,1.916,1.7168,1.5698,1.5,1.3872,1.429,1.6122,1.6826,1.8239,2.0201,2.216,2.2859,2.2859,2.2859,2.2859,2.2886,2.3086,2.2315,2.1232,3.2647,3.4233,3.5509,3.6236,3.6421,3.6252,3.5323,3.3858,3.2583,3.1853,3.1664,3.1664,3.1664,3.1396,3.1156,3.0969,3.0595,3.0154,2.9673,2.9366,2.9112,2.8911,2.8417,2.8136,2.8136,2.8136,2.8136,2.8136,2.8136,2.8136,2.8136,2.8136,2.8096,2.7989,2.8068,2.8304,2.8543,2.8584,2.8156,2.7588,2.7379,2.6785,2.6066,2.5865,2.5785,2.5772,2.5692,2.5651,2.5638,2.5378,2.5352,2.5504,2.5684,2.5851,2.5698,2.5698,2.5536,2.5224,2.5224,2.485,2.4449,2.4369,2.4342,2.4289,2.4088,2.4128,2.4142,2.3941,2.3674,2.338,2.3073,2.2592,2.2005,2.1097,2.0763,2.0465,2.0268,2.0592,2.1042,2.1737,2.2258,2.2565,2.2565,2.2726,2.2806,2.2712,2.2979,2.3153,2.3153,2.2966,2.2953,2.314,2.2966,2.306,2.346,2.1786,2.0853,2.0321,1.8876,1.7809,1.7107,1.5839,1.5698,1.6404,1.6967,1.7949,1.9356,2.1183,2.2435,2.2859,2.2859,2.2859,2.2886,2.2393,2.1344,2.0121,3.4647,3.5323,3.6066,3.8628,3.8977,3.8262,3.5695,3.5323,3.442,3.2043,3.1664,3.1664,3.1664,3.1396,3.0982,3.0408,3.0354,2.998,2.9098,2.8764,2.8604,2.8604,2.831,2.8136,2.8136,2.8136,2.8136,2.8136,2.8136,2.815,2.8305,2.8305,2.7976,2.7669,2.8085,2.941,3.1327,3.1684,3.1166,3.01,3.01,2.8662,2.6386,2.6386,2.6386,2.636,2.6066,2.5959,2.5919,2.5805,2.5864,2.5864,2.6224,2.6391,2.6224,2.5698,2.5518,2.5518,2.5518,2.5304,2.501,2.4716,2.4636,2.4636,2.4636,2.4409,2.4209,2.4209,2.3981,2.3688,2.3394,2.3086,2.2672,2.2084,2.1991,2.1897,2.159,2.1804,2.2098,2.2392,2.2686,2.2873,2.2859,2.342,2.3647,2.3354,2.3607,2.3768,2.3768,2.3193,2.314,2.3754,2.318,2.3153,2.3754,2.3166,2.2022,2.0201,2.0063,1.9077,1.7248,1.7248,1.6263,1.4574,1.6404,1.7248,1.7388,1.9356,2.1183,2.2859,2.2859,2.2859,2.2585,2.0756,2.0063,1.968,3.4647,3.5323,3.6606,4.0808,4.0084,3.9341,4.0248,3.7512,3.4966,3.4233,3.2578,3.1356,3.1356,3.0915,3.0461,3.0087,2.986,2.9459,2.8778,2.8457,2.8283,2.8283,2.819,2.8136,2.8136,2.8136,2.8136,2.8136,2.8136,2.8964,3.0426,3.0426,3.1182,3.2523,3.1381,3.174,3.3337,3.2332,3.1364,3.0256,2.8645,2.7415,2.684,2.6466,2.6386,2.6373,2.6293,2.6266,2.6253,2.6159,2.6289,2.6302,2.6316,2.6437,2.6386,2.6186,2.5985,2.5825,2.5825,2.5464,2.5064,2.497,2.4796,2.4636,2.4636,2.4569,2.4502,2.4502,2.4275,2.4048,2.3955,2.3701,2.33,2.2699,2.2605,2.2432,2.1924,2.2285,2.2552,2.2432,2.306,2.342,2.3207,2.3541,2.3728,2.3647,2.3714,2.3768,2.3768,2.3594,2.3487,2.346,2.3287,2.3273,2.346,2.306,2.2691,2.2331,2.2125,2.1734,2.117,1.9773,1.8229,1.6404,1.6967,1.7248,1.7388,1.9356,2.1183,2.2859,2.2859,2.216,2.0918,2.0543,1.8509,1.6037,3.467,3.5234,3.6606,4.0446,4.0808,4.0576,4.078,3.8399,3.6174,3.495,3.2603,3.1049,3.1049,3.0635,3.0194,2.978,2.9259,2.8858,2.8617,2.831,2.8136,2.8136,2.8136,2.8136,2.8136,2.8136,2.8136,2.8136,2.9118,3.0093,3.1392,3.2381,3.327,3.442,3.4007,3.4417,3.5378,3.4275,3.3432,3.2474,3.0013,2.8066,2.6773,2.6494,2.6387,2.6374,2.6426,2.6386,2.6386,2.6386,2.6453,2.6401,2.652,2.6587,2.6426,2.6427,2.6346,2.6132,2.6132,2.5785,2.5424,2.5424,2.5117,2.4783,2.4663,2.473,2.4783,2.4663,2.4489,2.4342,2.4222,2.4062,2.3781,2.33,2.322,2.31,2.2739,2.3006,2.3153,2.2979,2.3541,2.3821,2.3527,2.3875,2.4115,2.4115,2.4008,2.3941,2.3941,2.3834,2.3741,2.3674,2.3447,2.338,2.35,2.3073,2.2953,2.314,2.2953,2.2859,2.2859,2.1734,1.9773,1.7248,1.7248,1.7248,1.7248,1.8508,2.0479,2.2859,2.2859,2.1734,2.0074,1.9374,1.7278,1.4593,3.477,3.487,3.5805,3.8562,4.0541,4.1121,3.8937,3.8366,3.7189,3.4879,3.2352,3.0742,3.0715,3.0461,3.0047,2.9459,2.8631,2.827,2.8551,2.8297,2.8136,2.8136,2.8136,2.8305,2.8473,2.8305,2.8305,2.8473,3.0426,3.1557,3.2052,3.4002,3.497,3.4953,3.6499,3.7475,3.7842,3.7144,3.6658,3.5949,3.2854,2.9626,2.6535,2.6598,2.6505,2.6466,2.652,2.6426,2.6426,2.6426,2.6454,2.6397,2.6796,2.6703,2.6492,2.6439,2.6414,2.6386,2.6386,2.6172,2.5959,2.5959,2.5558,2.5077,2.4783,2.493,2.5037,2.473,2.4676,2.4583,2.4302,2.4249,2.4142,2.3861,2.3808,2.3794,2.3768,2.3794,2.3794,2.3768,2.4048,2.4128,2.3834,2.4315,2.4636,2.4636,2.4396,2.4235,2.4209,2.3981,2.3955,2.4195,2.3688,2.3541,2.3808,2.3207,2.2886,2.2859,2.2859,2.2873,2.2899,2.2873,2.0906,1.7419,1.7398,1.7388,1.7388,1.7388,1.9634,2.2859,2.2859,2.1596,1.9634,1.783,1.5988,1.4172,3.4374,3.3257,3.3214,3.7792,3.7237,3.7127,3.9948,3.7483,3.5583,3.6483,3.3096,3.0368,3.0127,2.9847,2.9432,2.8845,2.839,2.8177,2.8243,2.8177,2.8136,2.8136,2.8136,2.8964,3.0744,2.9132,2.895,3.0759,3.1241,3.3186,3.6442,3.6922,3.8018,3.9732,4.0044,4.0356,4.0219,3.8401,3.7259,3.6148,3.1031,2.8468,2.7767,2.7839,2.7541,2.731,2.6841,2.6547,2.6373,2.6734,2.6703,2.6501,2.6865,2.7028,2.7068,2.6613,2.644,2.6386,2.6386,2.6172,2.5959,2.5959,2.5865,2.5692,2.5384,2.5371,2.5331,2.505,2.4983,2.489,2.4596,2.4543,2.4449,2.4155,2.4115,2.4035,2.3808,2.3968,2.4022,2.3794,2.4222,2.4422,2.4142,2.4436,2.4636,2.4636,2.4583,2.4436,2.4209,2.4356,2.4369,2.4209,2.4075,2.4048,2.4115,2.3527,2.31,2.2859,2.2859,2.2993,2.322,2.2979,2.171,1.9769,1.9575,1.9495,1.9495,1.9495,2.0894,2.2859,2.2859,2.0756,1.783,1.7582,1.5246,1.245,3.4307,3.3292,3.2942,3.4382,3.5296,3.6419,3.8306,3.6839,3.5621,3.6461,3.2471,2.9673,2.9513,2.9366,2.942,3.0127,2.9958,3.0093,3.1241,3.026,3.026,3.1241,3.1241,3.1887,3.3022,3.1887,3.1887,3.3022,3.4002,3.5621,3.7896,3.904,4.0021,4.1172,4.1172,4.1172,4.1016,3.8882,3.8272,3.8329,3.1136,2.8222,2.8193,2.8263,2.8016,2.7593,2.6987,2.656,2.6454,2.6774,2.7108,2.7251,2.75,2.7418,2.7171,2.6587,2.6427,2.656,2.6426,2.6279,2.6159,2.6159,2.6159,2.6052,2.5611,2.5625,2.5638,2.5344,2.5184,2.5037,2.4877,2.473,2.4583,2.4436,2.4409,2.4356,2.4209,2.4315,2.4356,2.4195,2.4449,2.4569,2.4422,2.4543,2.4636,2.4636,2.4636,2.4516,2.4222,2.4476,2.4502,2.4209,2.4209,2.4209,2.4209,2.3754,2.346,2.3287,2.3006,2.2953,2.31,2.2939,2.1961,2.0251,2.011,2.0063,2.0063,2.0063,2.1183,2.2859,2.1872,1.9773,1.7127,1.6245,1.426,1.1972,3.4215,3.3814,3.3334,3.1193,3.3694,3.6015,3.6525,3.6154,3.5733,3.6175,3.2689,3.0018,2.9976,2.9921,3.061,3.2145,3.2039,3.2694,3.4651,3.3022,3.2694,3.4651,3.4651,3.4813,3.5298,3.5298,3.5298,3.5298,3.7082,3.8054,3.8548,4.0353,4.1172,4.1172,4.1172,4.1172,4.1016,3.9198,3.9459,4.0451,3.2733,2.9406,2.8924,2.8468,2.7969,2.7696,2.7161,2.6774,2.6401,2.6814,2.7257,2.7989,2.818,2.7797,2.7152,2.6624,2.664,2.676,2.6466,2.6426,2.6453,2.64,2.6426,2.6319,2.5785,2.5852,2.5945,2.5651,2.5398,2.5197,2.5104,2.4877,2.469,2.4649,2.4636,2.4636,2.4636,2.4636,2.4636,2.4636,2.4636,2.4636,2.4636,2.4636,2.4636,2.4636,2.4636,2.4529,2.4289,2.4502,2.4529,2.4289,2.4275,2.4275,2.4275,2.3995,2.3848,2.3834,2.3287,2.3046,2.3086,2.2993,2.2125,2.075,2.0653,2.0617,2.0617,2.0617,2.1321,2.2297,2.0756,1.8659,1.6554,1.4642,1.3145,1.2081,3.4154,3.3455,3.2996,3.2896,3.1274,3.1969,3.7223,3.5092,3.3997,3.7445,3.6024,3.4606,3.4301,3.4013,3.3968,3.4246,3.4197,3.4327,3.4651,3.4489,3.4327,3.4651,3.4651,3.5621,3.7419,3.7419,3.7419,3.7419,3.7737,3.8882,4.0685,4.1016,4.1172,4.1172,4.1172,4.1172,4.1172,4.0841,4.0936,4.0846,3.713,3.418,3.1632,2.9104,2.8083,2.803,2.7696,2.702,2.6418,2.7012,2.7038,2.6888,2.7826,2.7839,2.7255,2.7284,2.7001,2.676,2.6466,2.6573,2.6707,2.6453,2.6573,2.668,2.6346,2.6306,2.6253,2.5959,2.5865,2.5678,2.517,2.505,2.493,2.4676,2.4636,2.4636,2.4636,2.4636,2.4636,2.4636,2.4636,2.4636,2.4636,2.4636,2.4636,2.4636,2.4636,2.4623,2.4583,2.4609,2.4623,2.4583,2.4583,2.4583,2.4583,2.4289,2.4142,2.4142,2.3808,2.3781,2.4008,2.35,2.3267,2.3324,2.2809,2.2585,2.2585,2.2585,2.1734,2.0479,2.0201,1.7949,1.4608,1.3066,1.2317,1.2081,3.6978,3.6542,3.5804,3.4573,3.415,3.5146,3.7721,3.6499,3.6062,3.7846,3.6337,3.5064,3.4915,3.5884,3.6442,3.6442,3.6442,3.7082,3.8231,3.7099,3.7082,3.8231,3.839,3.8724,3.9688,3.9688,3.9688,3.9688,3.9688,4.0197,4.1172,4.1172,4.1172,4.1172,4.1172,4.1172,4.1172,4.1172,4.1133,4.0817,3.7133,3.4376,3.2258,2.9258,2.8136,2.8096,2.7802,2.7317,2.6875,2.7068,2.6875,2.6882,2.731,2.7716,2.7642,2.7203,2.7122,2.7001,2.6707,2.672,2.6787,2.6667,2.6734,2.6747,2.6453,2.6386,2.636,2.6226,2.6066,2.5879,2.5611,2.5438,2.5224,2.493,2.489,2.4823,2.4663,2.4636,2.4636,2.4636,2.4636,2.4636,2.4636,2.4636,2.4636,2.4636,2.4636,2.4636,2.4636,2.4636,2.4636,2.4636,2.4636,2.4636,2.4636,2.4516,2.4449,2.4449,2.4315,2.4155,2.3941,2.3527,2.3394,2.35,2.306,2.2859,2.2859,2.2859,2.1734,2.0051,1.8938,1.6122,1.2768,1.2053,1.1918,1.206]}]]